[[{"header":{"parameterUnit":"m.s-1","parameterCategory":1,"la1":31.0,"la2":29.5877,"lo1":-88.7671,"lo2":-86.6584,"dy":0.0162,"dx":0.0185,"nx":115,"ny":88,"refTime":"2024-05-05T12:00:00:Z","depth":0,"parameterNumber":2,"parameterNumberName":"U-component_of_WINDS"},"data":[0.0,0.0,0.0,0.0,0.0,0.0,0.0,0.0,0.0,0.0,0.0,0.0,0.0,0.0,0.0,0.0,0.0,0.0,0.0,0.0,0.0,0.0,0.0,0.0,0.0,0.0,0.0,0.0,0.0,0.0,0.0,0.0,0.0,0.0,0.0,0.0,0.0,0.0,0.0,0.0,0.0,0.0,0.0,0.0,0.0,0.0,0.0,0.0,0.0,0.0,0.0,0.0,0.0,0.0,0.0,0.0,0.0,0.0,0.0,0.0,0.0,0.0,0.0,0.0,0.0,0.0,0.0,0.0,0.0,0.0,0.0,0.0,0.0,0.0,0.0,0.0,0.0,0.0,0.0,0.0,0.0,0.0,0.0,0.0,0.0,0.0,0.0,0.0,0.0,0.0,0.0,0.0,0.0,0.0,0.0,0.0,0.0,0.0,0.0,0.0,0.0,0.0,0.0,0.0,0.0,0.0,0.0,0.0,0.0,0.0,0.0,0.0,0.0,0.0,0.0,0.0,0.0,0.0,0.0,0.0,0.0,0.0,0.0,0.0,0.0,0.0,0.0,0.0,0.0,0.0,0.0,0.0,0.0,0.0,0.0,0.0,0.0,0.0,0.0,0.0,0.0,0.0,0.0,0.0,0.0,0.0,0.0,0.0,0.0,0.0,0.0,0.0,0.0,0.0,0.0,0.0,0.0,0.0,0.0,0.0,0.0,0.0,0.0,0.0,0.0,0.0,0.0,0.0,0.0,0.0,0.0,0.0,0.0,0.0,0.0,0.0,0.0,0.0,0.0,0.0,0.0,0.0,0.0,0.0,0.0,0.0,0.0,0.0,0.0,0.0,0.0,0.0,0.0,0.0,0.0,0.0,0.0,0.0,0.0,0.0,0.0,0.0,0.0,0.0,0.0,0.0,0.0,0.0,0.0,0.0,0.0,0.0,0.0,0.0,0.0,0.0,0.0,0.0,0.0,0.0,0.0,0.0,0.0,0.0,0.0,0.0,0.0,0.0,0.0,0.0,0.0,0.0,0.0,0.0,0.0,0.0,0.0,0.0,0.0,0.0,0.0,0.0,0.0,0.0,0.0,0.0,0.0,0.0,0.0,0.0,0.0,0.0,0.0,0.0,0.0,0.0,0.0,0.0,0.0,0.0,0.0,0.0,0.0,0.0,0.0,0.0,0.0,0.0,0.0,0.0,0.0,0.0,0.0,0.0,0.0,0.0,0.0,0.0,0.0,0.0,0.0,0.0,0.0,0.0,0.0,0.0,0.0,0.0,0.0,0.0,0.0,0.0,0.0,0.0,0.0,0.0,0.0,0.0,0.0,0.0,0.0,0.0,0.0,0.0,0.0,0.0,0.0,0.0,0.0,0.0,0.0,0.0,0.0,0.0,0.0,0.0,0.0,0.0,0.0,0.0,0.0,0.0,0.0,0.0,0.0,0.0,0.0,0.0,0.0,0.0,0.0,0.0,0.0,0.0,0.0,0.0,0.0,0.0,0.0,0.0,0.0,0.0,0.0,0.0,0.0,0.0,0.0,0.0,0.0,0.0,0.0,0.0,0.0,0.0,0.0,0.0,0.0,0.0,0.0,0.0,0.0,0.0,0.0,0.0,0.0,0.0,0.0,0.0,0.0,0.0,0.0,0.0,0.0,0.0,0.0,0.0,0.0,0.0,0.0,0.0,0.0,0.0,0.0,0.0,0.0,0.0,0.0,0.0,0.0,0.0,0.0,0.0,0.0,0.0,0.0,0.0,0.0,0.0,0.0,0.0,0.0,0.0,0.0,0.0,0.0,0.0,0.0,0.0,0.0,0.0,0.0,0.0,0.0,0.0,0.0,0.0,0.0,0.0,0.0,0.0,0.0,0.0,0.0,0.0,0.0,0.0,0.0,0.0,0.0,0.0,0.0,0.0,0.0,0.0,0.0,0.0,0.0,0.0,0.0,0.0,0.0,0.0,0.0,0.0,0.0,0.0,0.0,0.0,0.0,0.0,0.0,0.0,0.0,0.0,0.0,0.0,0.0,0.0,0.0,0.0,0.0,0.0,0.0,0.0,0.0,0.0,0.0,0.0,0.0,0.0,0.0,0.0,0.0,0.0,0.0,0.0,0.0,0.0,0.0,0.0,0.0,0.0,0.0,0.0,0.0,0.0,0.0,0.0,0.0,0.0,0.0,0.0,0.0,0.0,0.0,0.0,0.0,0.0,0.0,0.0,0.0,0.0,0.0,0.0,0.0,0.0,0.0,0.0,0.0,0.0,0.0,0.0,0.0,0.0,0.0,0.0,0.0,0.0,0.0,0.0,0.0,0.0,0.0,0.0,0.0,0.0,0.0,0.0,0.0,0.0,0.0,0.0,0.0,0.0,0.0,0.0,0.0,0.0,0.0,0.0,0.0,0.0,0.0,0.0,0.0,0.0,0.0,0.0,0.0,0.0,0.0,0.0,0.0,0.0,0.0,0.0,0.0,0.0,0.0,0.0,0.0,0.0,0.0,0.0,0.0,0.0,0.0,0.0,0.0,0.0,0.0,0.0,0.0,0.0,0.0,0.0,0.0,0.0,0.0,0.0,0.0,0.0,0.0,0.0,0.0,0.0,0.0,0.0,0.0,0.0,0.0,0.0,0.0,0.0,0.0,0.0,0.0,0.0,0.0,0.0,0.0,0.0,0.0,0.0,0.0,0.0,0.0,0.0,0.0,0.0,0.0,0.0,0.0,0.0,0.0,0.0,0.0,0.0,0.0,0.0,0.0,0.0,0.0,0.0,0.0,0.0,0.0,0.0,0.0,0.0,0.0,0.0,0.0,0.0,0.0,0.0,0.0,0.0,0.0,0.0,0.0,0.0,0.0,0.0,0.0,0.0,0.0,0.0,0.0,0.0,0.0,0.0,0.0,0.0,0.0,0.0,0.0,0.0,0.0,0.0,0.0,0.0,0.0,0.0,0.0,0.0,0.0,0.0,0.0,0.0,0.0,0.0,0.0,0.0,0.0,0.0,0.0,0.0,0.0,0.0,0.0,0.0,0.0,0.0,0.0,0.0,0.0,0.0,0.0,0.0,0.0,0.0,0.0,0.0,0.0,0.0,0.0,0.0,0.0,0.0,0.0,0.0,0.0,0.0,0.0,0.0,0.0,0.0,0.0,0.0,0.0,0.0,0.0,0.0,0.0,0.0,0.0,0.0,0.0,0.0,0.0,0.0,0.0,0.0,0.0,0.0,0.0,0.0,0.0,0.0,0.0,0.0,0.0,0.0,0.0,0.0,0.0,0.0,0.0,0.0,0.0,0.0,0.0,0.0,0.0,0.0,0.0,0.0,0.0,0.0,0.0,0.0,0.0,0.0,0.0,0.0,0.0,0.0,0.0,0.0,0.0,0.0,0.0,0.0,0.0,0.0,0.0,0.0,0.0,0.0,0.0,0.0,0.0,0.0,0.0,0.0,0.0,0.0,0.0,0.0,0.0,0.0,0.0,0.0,0.0,0.0,0.0,0.0,0.0,0.0,0.0,0.0,0.0,0.0,0.0,0.0,0.0,0.0,0.0,0.0,0.0,0.0,0.0,0.0,0.0,0.0,0.0,0.0,0.0,0.0,0.0,0.0,0.0,0.0,0.0,0.0,0.0,0.0,0.0,0.0,0.0,0.0,0.0,0.0,0.0,0.0,0.0,0.0,0.0,0.0,0.0,0.0,0.0,0.0,0.0,0.0,0.0,0.0,0.0,0.0,0.0,0.0,0.0,0.0,0.0,0.0,0.0,0.0,0.0,0.0,0.0,0.0,0.0,0.0,0.0,0.0,0.0,0.0,0.0,0.0,0.0,0.0,0.0,0.0,0.0,0.0,0.0,0.0,0.0,0.0,0.0,0.0,0.0,0.0,0.0,0.0,0.0,0.0,0.0,0.0,0.0,0.0,0.0,0.0,0.0,0.0,0.0,0.0,0.0,0.0,0.0,0.0,0.0,0.0,0.0,0.0,0.0,0.0,0.0,0.0,0.0,0.0,0.0,0.0,0.0,0.0,0.0,0.0,0.0,0.0,0.0,0.0,0.0,0.0,0.0,0.0,0.0,0.0,0.0,0.0,0.0,0.0,0.0,0.0,0.0,0.0,0.0,0.0,0.0,0.0,0.0,0.0,0.0,0.0,0.0,0.0,0.0,0.0,0.0,0.0,0.0,0.0,0.0,0.0,0.0,0.0,0.0,0.0,0.0,0.0,0.0,0.0,0.0,0.0,0.0,0.0,0.0,0.0,0.0,0.0,0.0,0.0,0.0,0.0,0.0,0.0,-5.1973,0.0,0.0,0.0,0.0,0.0,0.0,0.0,0.0,0.0,0.0,0.0,0.0,0.0,0.0,0.0,0.0,0.0,0.0,0.0,0.0,0.0,0.0,0.0,0.0,0.0,0.0,0.0,0.0,0.0,0.0,0.0,0.0,0.0,0.0,0.0,0.0,0.0,0.0,0.0,0.0,0.0,0.0,0.0,0.0,0.0,0.0,0.0,0.0,0.0,0.0,0.0,0.0,0.0,0.0,0.0,0.0,0.0,0.0,0.0,0.0,0.0,0.0,0.0,0.0,0.0,0.0,0.0,0.0,0.0,0.0,0.0,0.0,0.0,0.0,0.0,0.0,0.0,0.0,0.0,0.0,0.0,0.0,0.0,0.0,0.0,0.0,0.0,0.0,0.0,0.0,0.0,0.0,0.0,0.0,0.0,0.0,0.0,0.0,0.0,0.0,0.0,0.0,0.0,0.0,0.0,0.0,0.0,0.0,0.0,0.0,-5.7301,-5.5476,-5.8359,-5.7948,-5.3691,0.0,0.0,0.0,0.0,0.0,0.0,0.0,0.0,0.0,0.0,0.0,0.0,0.0,0.0,0.0,0.0,0.0,0.0,0.0,0.0,0.0,0.0,0.0,0.0,0.0,0.0,0.0,0.0,0.0,0.0,0.0,0.0,0.0,0.0,0.0,0.0,0.0,0.0,0.0,0.0,0.0,0.0,0.0,0.0,0.0,0.0,0.0,0.0,0.0,0.0,0.0,0.0,0.0,0.0,0.0,0.0,0.0,0.0,0.0,0.0,0.0,0.0,0.0,0.0,0.0,0.0,0.0,0.0,0.0,0.0,0.0,0.0,0.0,0.0,0.0,0.0,0.0,0.0,0.0,0.0,0.0,0.0,0.0,0.0,0.0,0.0,0.0,0.0,0.0,0.0,0.0,0.0,0.0,0.0,0.0,0.0,0.0,0.0,0.0,0.0,0.0,0.0,0.0,0.0,0.0,0.0,0.0,0.0,0.0,0.0,0.0,0.0,-6.0039,-5.9518,-5.5651,0.0,0.0,0.0,0.0,0.0,0.0,0.0,0.0,0.0,0.0,0.0,0.0,0.0,0.0,0.0,0.0,0.0,0.0,0.0,0.0,0.0,0.0,0.0,0.0,0.0,0.0,0.0,0.0,0.0,0.0,0.0,0.0,0.0,0.0,0.0,0.0,0.0,0.0,0.0,0.0,0.0,0.0,0.0,0.0,0.0,0.0,0.0,0.0,0.0,0.0,0.0,0.0,0.0,0.0,0.0,0.0,0.0,0.0,0.0,0.0,0.0,0.0,0.0,0.0,0.0,0.0,0.0,0.0,0.0,0.0,0.0,0.0,0.0,0.0,0.0,0.0,0.0,0.0,0.0,0.0,0.0,0.0,0.0,0.0,0.0,0.0,0.0,0.0,0.0,0.0,0.0,0.0,0.0,0.0,0.0,0.0,0.0,0.0,0.0,0.0,0.0,0.0,0.0,0.0,0.0,0.0,0.0,0.0,0.0,0.0,-5.5451,-6.0843,-6.0513,0.0,-5.6202,0.0,0.0,0.0,0.0,0.0,0.0,0.0,0.0,0.0,0.0,0.0,0.0,0.0,0.0,0.0,0.0,0.0,0.0,0.0,0.0,0.0,0.0,0.0,0.0,0.0,0.0,0.0,0.0,0.0,0.0,0.0,0.0,0.0,0.0,0.0,0.0,0.0,0.0,0.0,0.0,0.0,0.0,0.0,0.0,0.0,0.0,0.0,0.0,0.0,0.0,0.0,0.0,0.0,0.0,0.0,0.0,0.0,0.0,0.0,0.0,0.0,0.0,0.0,0.0,0.0,0.0,0.0,0.0,0.0,0.0,0.0,0.0,0.0,0.0,0.0,0.0,0.0,0.0,0.0,0.0,0.0,0.0,0.0,0.0,0.0,0.0,0.0,0.0,0.0,0.0,0.0,0.0,0.0,0.0,0.0,0.0,0.0,0.0,0.0,0.0,0.0,0.0,0.0,0.0,0.0,0.0,0.0,0.0,0.0,0.0,-5.7126,-6.0648,-5.99,-5.7946,0.0,0.0,0.0,0.0,0.0,0.0,0.0,0.0,0.0,0.0,0.0,0.0,0.0,0.0,0.0,0.0,0.0,0.0,0.0,0.0,0.0,0.0,0.0,0.0,0.0,0.0,0.0,0.0,0.0,0.0,0.0,0.0,0.0,0.0,0.0,0.0,0.0,0.0,0.0,0.0,0.0,0.0,0.0,0.0,0.0,0.0,0.0,0.0,0.0,0.0,0.0,0.0,0.0,0.0,0.0,0.0,0.0,0.0,0.0,0.0,0.0,0.0,0.0,0.0,0.0,0.0,0.0,0.0,0.0,0.0,0.0,0.0,0.0,0.0,0.0,0.0,0.0,0.0,0.0,0.0,0.0,0.0,0.0,0.0,0.0,0.0,0.0,0.0,0.0,0.0,0.0,0.0,0.0,0.0,0.0,0.0,0.0,0.0,0.0,0.0,0.0,0.0,0.0,0.0,0.0,0.0,0.0,0.0,0.0,0.0,-5.7206,-5.8667,-6.0983,-6.0436,-5.8087,-5.4006,0.0,0.0,0.0,0.0,0.0,0.0,0.0,0.0,0.0,0.0,0.0,0.0,0.0,0.0,0.0,0.0,0.0,0.0,0.0,0.0,0.0,0.0,0.0,0.0,0.0,0.0,0.0,0.0,0.0,0.0,0.0,0.0,0.0,0.0,0.0,0.0,0.0,0.0,0.0,0.0,0.0,0.0,0.0,0.0,0.0,0.0,0.0,0.0,0.0,0.0,0.0,0.0,0.0,0.0,0.0,0.0,0.0,0.0,0.0,0.0,0.0,0.0,0.0,0.0,0.0,0.0,0.0,0.0,0.0,0.0,0.0,0.0,0.0,0.0,0.0,0.0,0.0,0.0,0.0,0.0,0.0,0.0,0.0,0.0,0.0,0.0,0.0,0.0,0.0,0.0,0.0,0.0,0.0,0.0,0.0,0.0,0.0,0.0,0.0,0.0,0.0,0.0,0.0,0.0,0.0,0.0,0.0,0.0,-6.2061,-5.9269,-5.9476,-6.3433,-6.2921,-6.0028,0.0,0.0,0.0,0.0,0.0,0.0,0.0,0.0,0.0,0.0,0.0,0.0,0.0,0.0,0.0,0.0,0.0,0.0,0.0,0.0,0.0,0.0,0.0,0.0,0.0,0.0,0.0,0.0,0.0,0.0,0.0,0.0,0.0,0.0,0.0,0.0,0.0,0.0,0.0,0.0,0.0,0.0,0.0,0.0,0.0,0.0,0.0,0.0,0.0,0.0,0.0,0.0,0.0,0.0,0.0,0.0,0.0,0.0,0.0,0.0,0.0,0.0,0.0,0.0,0.0,0.0,0.0,0.0,0.0,0.0,0.0,0.0,0.0,0.0,0.0,0.0,0.0,0.0,0.0,0.0,0.0,0.0,0.0,0.0,0.0,0.0,0.0,0.0,0.0,0.0,0.0,0.0,0.0,0.0,0.0,0.0,0.0,0.0,0.0,0.0,0.0,0.0,0.0,0.0,0.0,0.0,0.0,0.0,0.0,-5.6452,-5.8815,-6.1537,-6.4401,-6.1822,-5.8984,0.0,0.0,0.0,0.0,0.0,0.0,0.0,0.0,0.0,0.0,0.0,0.0,0.0,0.0,0.0,0.0,0.0,0.0,0.0,0.0,0.0,0.0,0.0,0.0,0.0,0.0,0.0,0.0,0.0,0.0,0.0,0.0,0.0,0.0,0.0,0.0,0.0,0.0,0.0,0.0,0.0,0.0,0.0,0.0,0.0,0.0,0.0,0.0,0.0,0.0,0.0,0.0,0.0,0.0,0.0,0.0,0.0,0.0,0.0,0.0,0.0,0.0,0.0,0.0,0.0,0.0,0.0,0.0,0.0,0.0,0.0,0.0,0.0,0.0,0.0,0.0,0.0,0.0,0.0,0.0,0.0,0.0,0.0,0.0,0.0,0.0,0.0,0.0,0.0,0.0,0.0,0.0,0.0,0.0,0.0,0.0,0.0,0.0,0.0,0.0,0.0,0.0,0.0,0.0,0.0,0.0,0.0,0.0,0.0,-5.5652,0.0,-6.4383,-6.4201,-6.1612,-5.8282,0.0,0.0,0.0,0.0,0.0,0.0,0.0,0.0,0.0,0.0,0.0,0.0,0.0,0.0,0.0,0.0,0.0,0.0,0.0,0.0,0.0,0.0,0.0,0.0,0.0,0.0,0.0,0.0,0.0,0.0,0.0,0.0,0.0,0.0,0.0,0.0,0.0,0.0,0.0,0.0,0.0,0.0,0.0,0.0,0.0,0.0,0.0,0.0,0.0,0.0,0.0,0.0,0.0,0.0,0.0,0.0,0.0,0.0,0.0,0.0,0.0,0.0,0.0,0.0,0.0,0.0,0.0,0.0,0.0,0.0,0.0,0.0,0.0,0.0,0.0,0.0,0.0,0.0,0.0,0.0,0.0,0.0,0.0,0.0,0.0,0.0,0.0,0.0,0.0,0.0,0.0,0.0,0.0,0.0,0.0,0.0,0.0,0.0,0.0,0.0,0.0,0.0,0.0,0.0,0.0,0.0,0.0,0.0,-5.2728,-6.096,-6.693,-6.7603,-6.2972,-6.258,-5.8157,0.0,0.0,0.0,0.0,0.0,0.0,0.0,0.0,0.0,0.0,0.0,0.0,0.0,0.0,0.0,0.0,0.0,0.0,0.0,0.0,0.0,0.0,0.0,0.0,0.0,0.0,0.0,0.0,0.0,0.0,0.0,0.0,0.0,0.0,0.0,0.0,0.0,0.0,0.0,0.0,0.0,0.0,0.0,0.0,0.0,0.0,0.0,0.0,0.0,0.0,0.0,0.0,0.0,0.0,0.0,0.0,0.0,0.0,0.0,0.0,0.0,0.0,0.0,0.0,0.0,0.0,0.0,0.0,0.0,0.0,0.0,0.0,0.0,0.0,0.0,0.0,0.0,0.0,0.0,0.0,0.0,0.0,0.0,0.0,0.0,0.0,0.0,0.0,0.0,0.0,0.0,0.0,0.0,0.0,0.0,0.0,0.0,0.0,0.0,0.0,0.0,0.0,0.0,0.0,0.0,0.0,0.0,0.0,0.0,-5.6967,-6.3389,-6.6323,-6.5172,-6.1305,-5.8521,0.0,0.0,0.0,0.0,0.0,0.0,0.0,0.0,0.0,0.0,0.0,0.0,0.0,0.0,0.0,0.0,0.0,0.0,0.0,0.0,0.0,0.0,0.0,0.0,0.0,0.0,0.0,0.0,0.0,0.0,0.0,0.0,0.0,0.0,0.0,0.0,0.0,0.0,0.0,0.0,0.0,0.0,0.0,0.0,0.0,0.0,0.0,0.0,0.0,0.0,0.0,0.0,0.0,0.0,0.0,0.0,0.0,0.0,0.0,0.0,0.0,0.0,0.0,0.0,0.0,0.0,0.0,0.0,0.0,0.0,0.0,0.0,0.0,0.0,0.0,0.0,0.0,0.0,0.0,0.0,0.0,0.0,0.0,0.0,0.0,0.0,0.0,0.0,0.0,0.0,0.0,0.0,0.0,0.0,0.0,0.0,0.0,0.0,0.0,0.0,0.0,0.0,0.0,0.0,0.0,0.0,0.0,0.0,0.0,-5.6562,-6.2752,-6.5804,-6.5123,-6.0554,-5.8018,-5.7703,0.0,0.0,0.0,0.0,0.0,0.0,0.0,0.0,0.0,0.0,0.0,0.0,0.0,0.0,0.0,0.0,0.0,0.0,0.0,0.0,0.0,0.0,0.0,0.0,0.0,0.0,0.0,0.0,0.0,0.0,0.0,0.0,0.0,0.0,0.0,0.0,0.0,0.0,0.0,0.0,0.0,0.0,0.0,0.0,0.0,0.0,0.0,0.0,0.0,0.0,0.0,0.0,0.0,0.0,0.0,0.0,0.0,0.0,0.0,0.0,0.0,0.0,0.0,0.0,0.0,0.0,0.0,0.0,0.0,0.0,0.0,0.0,0.0,0.0,0.0,0.0,0.0,0.0,0.0,0.0,0.0,0.0,0.0,0.0,0.0,0.0,0.0,0.0,0.0,0.0,0.0,0.0,0.0,0.0,0.0,0.0,0.0,0.0,0.0,0.0,0.0,0.0,0.0,0.0,0.0,0.0,0.0,0.0,-5.8665,-6.4539,-6.6219,-6.3359,-6.054,-5.7141,0.0,0.0,0.0,0.0,0.0,0.0,0.0,0.0,0.0,0.0,0.0,0.0,0.0,0.0,0.0,0.0,0.0,0.0,0.0,0.0,0.0,0.0,0.0,0.0,0.0,0.0,0.0,0.0,0.0,0.0,0.0,0.0,0.0,0.0,0.0,0.0,0.0,0.0,0.0,0.0,0.0,0.0,0.0,0.0,0.0,0.0,0.0,0.0,0.0,0.0,0.0,0.0,0.0,0.0,0.0,0.0,0.0,0.0,0.0,0.0,0.0,0.0,0.0,0.0,0.0,0.0,0.0,0.0,0.0,0.0,0.0,0.0,0.0,0.0,0.0,0.0,0.0,0.0,0.0,0.0,0.0,0.0,0.0,0.0,0.0,0.0,0.0,0.0,0.0,0.0,0.0,0.0,0.0,0.0,0.0,0.0,0.0,0.0,0.0,0.0,0.0,0.0,0.0,0.0,0.0,0.0,0.0,0.0,0.0,-5.9603,-6.3664,-6.6042,-6.6384,-6.2269,-5.9377,0.0,0.0,0.0,0.0,0.0,0.0,0.0,0.0,0.0,0.0,0.0,0.0,0.0,0.0,0.0,0.0,0.0,0.0,0.0,0.0,0.0,0.0,0.0,0.0,0.0,0.0,0.0,0.0,0.0,0.0,0.0,0.0,0.0,0.0,0.0,0.0,0.0,0.0,0.0,0.0,0.0,0.0,0.0,0.0,0.0,0.0,0.0,0.0,0.0,0.0,0.0,0.0,0.0,0.0,0.0,0.0,0.0,0.0,0.0,0.0,0.0,0.0,0.0,0.0,0.0,0.0,0.0,0.0,0.0,0.0,0.0,0.0,0.0,0.0,0.0,0.0,0.0,0.0,0.0,0.0,0.0,0.0,0.0,0.0,0.0,0.0,0.0,0.0,0.0,0.0,0.0,0.0,0.0,0.0,0.0,0.0,0.0,0.0,0.0,0.0,0.0,0.0,0.0,0.0,0.0,0.0,0.0,0.0,-5.7298,-6.0537,-6.3483,-6.572,-6.7215,-6.3476,-6.0528,0.0,0.0,0.0,0.0,0.0,0.0,0.0,0.0,0.0,0.0,0.0,0.0,0.0,0.0,0.0,0.0,0.0,0.0,0.0,0.0,0.0,0.0,0.0,0.0,0.0,0.0,0.0,0.0,0.0,0.0,0.0,0.0,0.0,0.0,0.0,0.0,0.0,0.0,0.0,0.0,0.0,0.0,0.0,0.0,0.0,0.0,0.0,0.0,0.0,0.0,0.0,0.0,0.0,0.0,0.0,0.0,0.0,0.0,0.0,0.0,0.0,0.0,0.0,0.0,0.0,0.0,0.0,0.0,0.0,0.0,0.0,0.0,0.0,0.0,0.0,0.0,0.0,0.0,0.0,0.0,0.0,0.0,0.0,0.0,0.0,0.0,0.0,0.0,0.0,0.0,0.0,0.0,0.0,0.0,0.0,0.0,0.0,0.0,0.0,0.0,0.0,0.0,0.0,0.0,0.0,0.0,0.0,0.0,-5.7685,-6.1272,-6.3659,-6.534,-6.6223,-6.3991,-6.08,0.0,0.0,0.0,0.0,0.0,0.0,0.0,0.0,0.0,0.0,0.0,0.0,0.0,0.0,0.0,0.0,0.0,0.0,0.0,0.0,0.0,0.0,0.0,0.0,0.0,0.0,0.0,0.0,0.0,0.0,0.0,0.0,0.0,0.0,0.0,0.0,0.0,0.0,0.0,0.0,0.0,0.0,0.0,0.0,0.0,0.0,0.0,0.0,0.0,0.0,0.0,0.0,0.0,0.0,0.0,0.0,0.0,0.0,0.0,0.0,0.0,0.0,0.0,0.0,0.0,0.0,0.0,0.0,0.0,0.0,0.0,0.0,0.0,0.0,0.0,0.0,0.0,0.0,0.0,0.0,0.0,0.0,0.0,0.0,0.0,0.0,0.0,0.0,0.0,0.0,0.0,0.0,0.0,0.0,0.0,0.0,0.0,0.0,0.0,0.0,0.0,0.0,0.0,0.0,0.0,0.0,0.0,0.0,-5.81,-5.9632,-6.3089,-6.5031,-6.5304,-6.2419,-5.9538,0.0,0.0,0.0,0.0,0.0,0.0,0.0,0.0,0.0,0.0,0.0,0.0,0.0,0.0,0.0,0.0,0.0,0.0,0.0,0.0,0.0,0.0,0.0,0.0,0.0,0.0,0.0,0.0,0.0,0.0,0.0,0.0,0.0,0.0,0.0,0.0,0.0,0.0,0.0,0.0,0.0,0.0,0.0,0.0,0.0,0.0,0.0,0.0,-6.0622,0.0,0.0,0.0,0.0,0.0,0.0,0.0,0.0,0.0,0.0,0.0,0.0,0.0,0.0,0.0,0.0,0.0,0.0,0.0,0.0,0.0,0.0,0.0,0.0,0.0,0.0,0.0,0.0,0.0,0.0,0.0,0.0,0.0,0.0,0.0,0.0,0.0,0.0,0.0,0.0,0.0,0.0,0.0,0.0,0.0,0.0,0.0,0.0,0.0,0.0,0.0,0.0,0.0,0.0,0.0,0.0,0.0,0.0,0.0,-5.7149,-5.9931,-6.2207,-6.3689,-6.4247,-6.201,-5.9349,0.0,0.0,0.0,0.0,0.0,0.0,0.0,0.0,0.0,0.0,0.0,0.0,0.0,0.0,0.0,0.0,0.0,0.0,0.0,0.0,0.0,0.0,0.0,0.0,0.0,0.0,0.0,0.0,0.0,0.0,0.0,0.0,0.0,0.0,0.0,0.0,0.0,0.0,0.0,0.0,0.0,0.0,0.0,0.0,0.0,0.0,0.0,0.0,0.0,0.0,0.0,0.0,0.0,0.0,0.0,0.0,0.0,0.0,0.0,0.0,0.0,0.0,0.0,0.0,0.0,0.0,0.0,0.0,0.0,0.0,0.0,0.0,0.0,0.0,0.0,0.0,0.0,0.0,0.0,0.0,0.0,0.0,0.0,0.0,0.0,0.0,0.0,0.0,0.0,0.0,0.0,0.0,0.0,0.0,0.0,0.0,0.0,0.0,0.0,0.0,0.0,0.0,0.0,0.0,0.0,0.0,0.0,-5.2814,-5.5674,-6.0137,-6.0933,-6.1841,-6.3128,-6.1774,-5.9333,-5.5922,0.0,0.0,0.0,0.0,0.0,0.0,0.0,0.0,0.0,0.0,0.0,0.0,0.0,0.0,0.0,0.0,0.0,0.0,0.0,0.0,0.0,0.0,0.0,0.0,0.0,0.0,0.0,0.0,0.0,0.0,0.0,0.0,0.0,0.0,0.0,0.0,0.0,0.0,-5.233,-5.5383,0.0,0.0,0.0,0.0,0.0,0.0,0.0,0.0,-6.1262,0.0,0.0,0.0,0.0,0.0,0.0,0.0,0.0,0.0,0.0,0.0,0.0,0.0,0.0,0.0,0.0,0.0,0.0,0.0,0.0,0.0,0.0,0.0,0.0,0.0,0.0,0.0,0.0,0.0,0.0,0.0,0.0,0.0,0.0,0.0,0.0,0.0,0.0,0.0,0.0,0.0,0.0,0.0,0.0,0.0,0.0,0.0,0.0,0.0,0.0,0.0,0.0,0.0,0.0,0.0,0.0,-5.2327,-5.29,-5.4581,-5.7422,-5.8825,-5.9965,-6.0891,-6.0355,-5.8054,-5.4104,0.0,0.0,0.0,0.0,0.0,0.0,0.0,0.0,0.0,0.0,0.0,0.0,0.0,0.0,0.0,0.0,0.0,0.0,0.0,0.0,0.0,0.0,0.0,0.0,0.0,0.0,0.0,0.0,0.0,0.0,0.0,0.0,0.0,0.0,0.0,0.0,0.0,0.0,0.0,-5.8474,-6.0651,0.0,0.0,0.0,0.0,0.0,0.0,0.0,0.0,-5.9634,0.0,0.0,0.0,0.0,0.0,0.0,0.0,0.0,0.0,0.0,0.0,0.0,0.0,0.0,0.0,0.0,0.0,0.0,0.0,0.0,0.0,0.0,0.0,0.0,0.0,0.0,0.0,0.0,0.0,0.0,0.0,0.0,0.0,0.0,0.0,0.0,0.0,0.0,0.0,0.0,0.0,0.0,0.0,0.0,0.0,0.0,0.0,0.0,0.0,0.0,0.0,0.0,0.0,0.0,0.0,-5.0525,-5.1705,-5.3298,-5.542,-5.6229,-5.7001,-5.7749,-5.7195,-5.5306,0.0,0.0,0.0,0.0,0.0,0.0,0.0,0.0,0.0,0.0,0.0,0.0,0.0,0.0,0.0,0.0,0.0,0.0,0.0,0.0,0.0,0.0,0.0,0.0,0.0,0.0,0.0,0.0,0.0,0.0,0.0,0.0,0.0,0.0,0.0,0.0,0.0,0.0,0.0,0.0,-5.9012,-6.0805,-6.2138,0.0,0.0,0.0,0.0,0.0,0.0,-5.864,-5.8422,0.0,0.0,0.0,0.0,0.0,0.0,0.0,0.0,0.0,0.0,0.0,0.0,0.0,0.0,0.0,0.0,0.0,0.0,0.0,0.0,0.0,0.0,0.0,0.0,0.0,0.0,0.0,0.0,0.0,0.0,0.0,0.0,0.0,0.0,0.0,0.0,0.0,0.0,0.0,0.0,0.0,0.0,0.0,0.0,0.0,0.0,0.0,0.0,0.0,0.0,0.0,0.0,0.0,0.0,0.0,-4.8436,-4.9805,-5.1601,-5.3782,-5.3829,-5.4132,-5.4861,-5.4154,-5.269,0.0,0.0,0.0,0.0,0.0,0.0,0.0,0.0,0.0,0.0,0.0,0.0,0.0,0.0,0.0,0.0,0.0,0.0,0.0,0.0,0.0,0.0,0.0,0.0,0.0,0.0,0.0,0.0,0.0,0.0,0.0,0.0,0.0,0.0,0.0,0.0,0.0,0.0,0.0,0.0,0.0,-6.0236,-6.1645,-6.0894,0.0,0.0,0.0,0.0,-5.7216,-5.8011,0.0,0.0,0.0,0.0,0.0,0.0,0.0,0.0,0.0,0.0,0.0,0.0,0.0,0.0,0.0,0.0,0.0,0.0,0.0,0.0,0.0,0.0,0.0,0.0,0.0,0.0,0.0,0.0,0.0,0.0,0.0,0.0,0.0,0.0,0.0,0.0,0.0,0.0,0.0,0.0,0.0,0.0,0.0,0.0,0.0,0.0,0.0,0.0,0.0,0.0,0.0,0.0,0.0,0.0,0.0,0.0,-4.6983,-4.7257,-4.9045,-5.2401,-5.2204,-5.2386,-5.3144,-5.2796,-5.1523,0.0,0.0,0.0,0.0,0.0,0.0,0.0,0.0,0.0,0.0,0.0,0.0,0.0,0.0,0.0,0.0,0.0,0.0,0.0,0.0,0.0,0.0,0.0,0.0,0.0,0.0,0.0,0.0,0.0,0.0,0.0,0.0,0.0,0.0,0.0,0.0,0.0,0.0,0.0,0.0,0.0,-5.9447,-5.8759,-5.8851,-5.8855,0.0,0.0,-5.7829,-5.9281,-6.063,0.0,0.0,0.0,0.0,0.0,0.0,0.0,0.0,0.0,0.0,0.0,0.0,0.0,0.0,0.0,0.0,0.0,0.0,0.0,0.0,0.0,0.0,0.0,0.0,0.0,0.0,0.0,0.0,0.0,0.0,0.0,0.0,0.0,0.0,0.0,0.0,0.0,0.0,0.0,0.0,0.0,0.0,0.0,0.0,0.0,0.0,0.0,0.0,0.0,0.0,0.0,0.0,0.0,0.0,0.0,-4.1963,-4.3739,-4.4874,-4.645,-4.8456,-4.8564,-4.882,-4.9388,-4.8796,-4.787,0.0,0.0,0.0,0.0,0.0,0.0,0.0,0.0,0.0,0.0,0.0,0.0,0.0,0.0,0.0,0.0,0.0,0.0,0.0,0.0,0.0,0.0,0.0,0.0,0.0,0.0,0.0,0.0,0.0,0.0,0.0,0.0,0.0,0.0,0.0,0.0,0.0,0.0,0.0,0.0,0.0,0.0,-5.9109,-5.8804,0.0,0.0,0.0,-5.7406,-5.8184,0.0,0.0,0.0,0.0,0.0,0.0,0.0,0.0,0.0,0.0,0.0,0.0,0.0,0.0,0.0,0.0,0.0,0.0,0.0,0.0,0.0,0.0,0.0,0.0,0.0,0.0,0.0,0.0,0.0,0.0,0.0,0.0,0.0,0.0,0.0,0.0,0.0,0.0,0.0,0.0,0.0,0.0,0.0,0.0,0.0,0.0,0.0,0.0,0.0,0.0,0.0,0.0,0.0,0.0,0.0,0.0,0.0,-4.0934,-4.2571,-4.3922,-4.4929,-4.5278,-4.5592,-4.5935,-4.5397,0.0,0.0,0.0,0.0,0.0,0.0,0.0,0.0,0.0,0.0,0.0,0.0,0.0,0.0,0.0,0.0,0.0,0.0,0.0,0.0,0.0,0.0,0.0,0.0,0.0,0.0,0.0,-4.4607,0.0,0.0,0.0,0.0,0.0,0.0,0.0,0.0,0.0,0.0,0.0,0.0,0.0,0.0,-5.6267,-5.7913,-5.7823,-5.7816,0.0,0.0,-5.6901,-5.6912,-5.7857,-5.7257,0.0,0.0,0.0,0.0,0.0,0.0,0.0,0.0,0.0,0.0,0.0,0.0,0.0,0.0,0.0,0.0,0.0,0.0,0.0,0.0,0.0,0.0,0.0,0.0,0.0,0.0,0.0,0.0,0.0,0.0,0.0,0.0,0.0,0.0,0.0,0.0,0.0,0.0,0.0,0.0,0.0,0.0,0.0,0.0,0.0,0.0,0.0,0.0,0.0,0.0,0.0,0.0,0.0,0.0,0.0,-3.9633,-4.0368,-4.1594,-4.3178,-4.3306,-4.3485,-4.3904,-4.3913,-4.3639,0.0,0.0,0.0,0.0,0.0,0.0,0.0,0.0,0.0,0.0,0.0,0.0,0.0,0.0,0.0,0.0,0.0,0.0,0.0,0.0,0.0,0.0,0.0,0.0,0.0,0.0,0.0,0.0,0.0,0.0,0.0,0.0,0.0,0.0,0.0,0.0,0.0,0.0,0.0,0.0,0.0,-5.146,-5.2812,-5.4553,-5.618,0.0,0.0,-5.658,-5.6465,-5.8982,-5.8699,-5.2068,0.0,0.0,0.0,0.0,0.0,0.0,0.0,0.0,0.0,0.0,0.0,0.0,0.0,0.0,0.0,0.0,0.0,0.0,0.0,0.0,0.0,0.0,0.0,0.0,0.0,0.0,0.0,0.0,0.0,0.0,0.0,0.0,0.0,0.0,0.0,0.0,0.0,0.0,0.0,0.0,0.0,0.0,0.0,0.0,0.0,0.0,0.0,0.0,0.0,0.0,0.0,0.0,0.0,-3.7067,-3.6867,-3.8789,-4.0082,-4.0733,-4.1006,-4.1177,-4.1343,-4.1452,-4.0756,0.0,0.0,0.0,0.0,0.0,0.0,0.0,0.0,0.0,0.0,0.0,0.0,0.0,0.0,0.0,0.0,0.0,0.0,0.0,0.0,0.0,0.0,0.0,0.0,0.0,0.0,0.0,0.0,-4.4009,-4.4078,-4.4373,0.0,0.0,0.0,0.0,0.0,0.0,0.0,0.0,0.0,0.0,-5.0321,-5.2239,-5.3917,0.0,0.0,-5.737,-5.7175,-5.8094,-5.7807,-5.6043,-5.173,-5.0854,0.0,0.0,0.0,0.0,0.0,0.0,0.0,0.0,0.0,0.0,0.0,0.0,0.0,0.0,0.0,0.0,0.0,0.0,0.0,0.0,0.0,0.0,0.0,0.0,0.0,0.0,0.0,0.0,0.0,0.0,0.0,0.0,0.0,0.0,0.0,0.0,0.0,0.0,0.0,0.0,0.0,0.0,0.0,0.0,0.0,0.0,0.0,0.0,0.0,0.0,0.0,0.0,-3.5594,-3.489,-3.7189,-3.8447,-3.8588,-3.8837,-3.9053,-3.9185,-3.9494,-3.8797,0.0,0.0,0.0,0.0,0.0,0.0,0.0,0.0,0.0,0.0,0.0,0.0,0.0,0.0,0.0,0.0,0.0,0.0,0.0,0.0,0.0,0.0,0.0,0.0,0.0,0.0,0.0,0.0,-4.4238,-4.381,-4.4051,0.0,0.0,0.0,0.0,0.0,0.0,0.0,0.0,0.0,0.0,-4.8634,-5.0568,-5.2252,-5.4048,-5.6012,-5.5771,-5.5723,-5.6725,-5.5455,-5.3266,-5.0019,0.0,0.0,0.0,0.0,0.0,0.0,0.0,0.0,0.0,0.0,0.0,0.0,0.0,0.0,0.0,0.0,0.0,0.0,0.0,0.0,0.0,0.0,0.0,0.0,0.0,0.0,0.0,0.0,0.0,0.0,-3.9733,0.0,0.0,0.0,0.0,0.0,0.0,0.0,0.0,0.0,0.0,0.0,0.0,0.0,0.0,0.0,0.0,0.0,0.0,0.0,0.0,0.0,0.0,-3.4852,-3.4165,-3.5649,-3.6582,-3.6968,-3.697,-3.7182,-3.7576,-3.8291,-3.8327,-3.7451,0.0,0.0,0.0,0.0,0.0,0.0,0.0,0.0,0.0,0.0,0.0,0.0,0.0,0.0,0.0,0.0,0.0,0.0,0.0,0.0,0.0,0.0,0.0,0.0,0.0,0.0,-4.6659,-4.395,-4.1833,0.0,0.0,0.0,0.0,0.0,0.0,0.0,0.0,0.0,0.0,-4.3808,-4.5711,-4.6973,-4.9065,-5.0806,-5.1715,-5.1789,-5.1605,-5.1314,-5.1944,-5.0984,0.0,0.0,0.0,0.0,0.0,0.0,0.0,0.0,0.0,0.0,0.0,0.0,0.0,0.0,0.0,0.0,0.0,0.0,0.0,0.0,0.0,0.0,0.0,0.0,0.0,0.0,0.0,-3.9695,-3.9191,0.0,0.0,0.0,0.0,0.0,0.0,0.0,0.0,0.0,0.0,0.0,-3.935,-3.9093,0.0,0.0,0.0,0.0,0.0,0.0,0.0,0.0,0.0,0.0,0.0,0.0,-3.4137,-3.4162,-3.5372,-3.6195,-3.6474,-3.6512,-3.6557,-3.6698,-3.6963,-3.6756,-3.5985,0.0,0.0,0.0,0.0,0.0,0.0,0.0,0.0,0.0,0.0,0.0,0.0,0.0,0.0,0.0,0.0,0.0,0.0,0.0,0.0,0.0,0.0,0.0,0.0,0.0,-4.4444,0.0,0.0,0.0,0.0,0.0,0.0,0.0,0.0,0.0,0.0,0.0,-4.0476,-4.0951,-4.1933,-4.319,-4.4773,-4.6505,-4.8348,0.0,0.0,0.0,0.0,0.0,0.0,0.0,0.0,0.0,0.0,0.0,0.0,0.0,0.0,-5.2351,-4.9179,-4.8209,-4.7741,-4.7211,0.0,0.0,0.0,0.0,0.0,0.0,0.0,0.0,0.0,0.0,0.0,0.0,0.0,0.0,-3.8848,0.0,-3.8334,0.0,0.0,0.0,0.0,0.0,0.0,0.0,0.0,-3.8646,-3.8518,-3.8595,-3.8611,-3.8656,0.0,-3.8277,-3.7796,0.0,0.0,0.0,0.0,0.0,0.0,0.0,0.0,-3.368,-3.3931,-3.5185,-3.5954,-3.6114,-3.6237,-3.6284,-3.6284,-3.6259,-3.5773,-3.4716,-3.4575,-3.4155,0.0,0.0,0.0,0.0,0.0,0.0,0.0,0.0,0.0,0.0,0.0,0.0,0.0,0.0,0.0,0.0,0.0,0.0,0.0,0.0,0.0,0.0,0.0,-4.2567,0.0,0.0,0.0,0.0,0.0,0.0,0.0,0.0,0.0,-4.0095,-4.0034,-4.0055,-4.0522,-4.0858,-4.145,-4.2546,0.0,0.0,0.0,0.0,0.0,0.0,0.0,-4.5867,-4.468,-4.4574,-4.4254,-4.3127,-4.5648,-4.7642,-4.712,0.0,0.0,-4.8189,-4.7677,-4.7353,-4.6926,-4.6574,-4.6279,-4.6044,-4.6028,-4.5846,0.0,0.0,0.0,0.0,0.0,0.0,0.0,0.0,-3.8733,-3.8645,0.0,-3.7829,0.0,0.0,0.0,0.0,0.0,-3.8893,0.0,0.0,-3.7775,-3.7421,-3.6538,-3.6523,-3.6662,-3.6938,-3.6967,-3.6555,-3.5846,-3.5773,0.0,0.0,0.0,0.0,0.0,0.0,-3.3447,-3.3515,-3.4963,-3.5749,-3.5827,-3.6131,-3.6262,-3.6301,-3.6251,-3.5437,-3.3888,-3.5193,-3.52,-3.3384,-3.4087,0.0,0.0,0.0,0.0,0.0,0.0,0.0,0.0,0.0,0.0,0.0,0.0,0.0,0.0,0.0,0.0,0.0,0.0,0.0,0.0,-4.0689,0.0,0.0,0.0,0.0,0.0,0.0,0.0,0.0,0.0,0.0,-3.9036,-3.9634,-4.0174,-4.0419,0.0,0.0,0.0,0.0,-4.0715,-4.197,-4.2016,-4.2479,-4.3828,-4.4172,-4.3827,-4.253,0.0,0.0,-4.2587,-4.3645,-4.435,-4.2925,-4.4341,-4.6978,-5.1727,-5.0465,-4.9161,-4.9232,-4.7889,-4.6761,-4.6145,-4.5942,-4.5739,-4.0702,0.0,0.0,0.0,0.0,-3.9101,-3.8889,-3.9324,-3.9039,-3.8513,-3.7793,-3.753,0.0,0.0,0.0,0.0,0.0,0.0,-3.7148,-3.6874,-3.6406,-3.6075,-3.5768,-3.5768,-3.5829,-3.592,-3.592,-3.5312,-3.416,-3.4324,-3.4233,-3.3844,0.0,0.0,0.0,0.0,-3.2393,-3.3143,-3.3862,-3.4751,-3.5788,-3.5915,-3.6023,-3.6229,-3.6225,-3.5493,-3.4033,-3.3929,-3.3643,-3.3045,-3.3149,0.0,0.0,0.0,0.0,0.0,0.0,0.0,0.0,0.0,0.0,0.0,0.0,0.0,0.0,0.0,0.0,0.0,0.0,0.0,-3.8704,-3.7959,-3.8003,0.0,0.0,0.0,0.0,0.0,0.0,0.0,0.0,0.0,-3.7888,-3.8586,-3.931,0.0,0.0,-3.8091,-3.9235,-3.8372,-3.8321,-4.0242,0.0,0.0,0.0,-4.0795,-4.0309,-4.0376,-4.1439,-4.2124,-4.1843,-4.2598,-4.3088,-4.2635,-4.3036,-4.418,-4.6046,-4.6819,-4.6704,-4.647,-4.6048,-4.5732,-4.5563,-4.5444,-4.5214,-4.0378,-3.9554,-3.9203,-3.9444,-3.9898,-3.8713,-3.8388,-3.8717,-3.8246,-3.781,-3.748,-3.7184,-3.6825,-3.6414,-3.5991,0.0,0.0,0.0,-3.6564,-3.6519,-3.5809,-3.5491,-3.546,-3.5244,-3.5121,-3.5076,-3.4828,-3.4214,-3.3383,-3.3333,-3.3345,-3.3371,0.0,0.0,-3.242,-3.2085,-3.223,-3.2879,-3.3543,-3.4325,-3.5201,-3.5345,-3.5459,-3.5566,-3.5459,-3.4973,-3.4084,-3.3425,-3.2934,-3.2591,-3.2278,-3.1825,0.0,0.0,0.0,0.0,0.0,0.0,0.0,0.0,0.0,0.0,0.0,-3.4669,-3.2756,0.0,0.0,0.0,-3.3445,-3.5412,-3.663,-3.6271,0.0,0.0,0.0,0.0,0.0,0.0,0.0,-3.7773,-3.7049,-3.6753,-3.74,-3.7857,-3.8482,-3.9268,-3.7959,-3.7155,-3.7902,0.0,-3.6693,-3.8338,-3.7654,-3.7623,-3.9343,-3.881,-3.845,-3.9235,-3.9976,-4.059,-4.0916,-4.1332,-4.1605,-4.1714,-4.1776,-4.1952,-4.253,-4.3291,-4.3984,-4.4211,-4.4538,-4.4673,-4.4423,-4.4495,-4.453,-3.9896,-3.8862,-3.902,-3.9086,-3.8976,-3.7941,-3.7568,-3.7615,-3.6953,-3.6969,-3.7446,-3.6846,-3.6507,-3.6399,-3.5768,0.0,-3.6322,-3.6322,-3.6307,-3.6215,-3.5645,-3.5306,-3.5244,-3.4628,-3.4335,-3.432,-3.3629,-3.3306,-3.329,-3.269,-3.2551,-3.2839,-3.2752,-3.2829,-3.3095,-3.2813,-3.2657,-3.2673,-3.3687,-3.4209,-3.4275,-3.4601,-3.4688,-3.4593,-3.4276,-3.4047,-3.3847,-3.3267,-3.264,-3.1974,-3.1361,-3.0729,-2.9987,0.0,0.0,0.0,0.0,0.0,0.0,0.0,0.0,0.0,0.0,0.0,0.0,0.0,0.0,0.0,-3.1573,0.0,-3.3795,-3.5398,0.0,0.0,0.0,-3.7188,-3.7219,-3.66,-3.6274,-3.6429,0.0,0.0,-3.7306,0.0,-3.7629,-3.8244,-3.7815,-3.7215,-3.6645,-3.5999,-3.5707,-3.643,-3.5876,-3.6122,-3.7851,-3.7757,-3.7776,-3.8731,-3.922,-3.9548,-3.9826,-3.9918,-4.0085,-4.0358,-4.0415,-4.048,-4.0496,-4.0853,-4.118,-4.2394,-4.322,-4.3562,-4.298,-4.3217,-4.3564,-3.9335,-3.9472,-3.9511,-3.953,-3.9423,-3.8137,-3.8141,-3.8936,-3.8308,-3.7831,-3.7492,-3.7338,-3.6692,-3.5737,-3.5568,-3.5321,-3.4982,-3.4982,-3.4645,-3.4137,-3.3967,-3.3614,-3.3121,-3.2967,-3.289,-3.2875,-3.2721,-3.2628,-3.2628,-3.2459,-3.2425,-3.2523,-3.2486,-3.2463,-3.2437,-3.2371,-3.232,-3.2336,-3.3111,-3.3668,-3.3926,-3.4301,-3.4431,-3.4284,-3.373,-3.3177,-3.2612,-3.1525,-3.0792,-3.0593,-3.0007,-2.9482,-2.9048,-2.8753,0.0,0.0,0.0,0.0,0.0,0.0,0.0,0.0,0.0,-3.3345,-2.9283,0.0,-3.157,0.0,-3.012,-3.17,-3.3838,-3.4129,0.0,0.0,-3.6304,-3.623,-3.5631,-3.5874,-3.6068,-3.61,-3.6211,-3.6335,-3.6503,-3.6503,-3.658,-3.6733,-3.6736,-3.6846,-3.7153,-3.623,-3.5537,-3.566,-3.5199,-3.5106,-3.6091,-3.6538,-3.7094,-3.8091,-3.8326,-3.8497,-3.8804,-3.9063,-3.926,-3.9365,-3.9556,-3.9914,-4.0367,-4.0542,-4.0437,-4.0426,-4.1147,-4.1816,-4.1644,-4.17,-4.1783,-3.8188,-3.8486,-3.8486,-3.8333,-3.8032,-3.8012,-3.826,-3.8635,-3.7933,-3.7128,-3.636,-3.6297,-3.6011,-3.5568,-3.5201,-3.5028,-3.4921,-3.4659,-3.4289,-3.3889,-3.3552,-3.3198,-3.2844,-3.2536,-3.2398,-3.2398,-3.2398,-3.2398,-3.2398,-3.2398,-3.2398,-3.2398,-3.2398,-3.2377,-3.2289,-3.2273,-3.2299,-3.2299,-3.2839,-3.3266,-3.3575,-3.3672,-3.3681,-3.3588,-3.2816,-3.2222,-3.1826,-3.057,-2.9835,-2.977,-2.9186,-2.8755,-2.8582,-2.8332,-2.7896,0.0,0.0,0.0,0.0,0.0,0.0,0.0,0.0,0.0,0.0,0.0,-3.0982,-3.0486,-3.0586,-3.1702,-3.4224,-3.397,-3.3895,-3.4496,-3.4347,-3.4082,-3.3711,-3.3959,-3.415,-3.4216,-3.4265,-3.4448,-3.4698,-3.5015,-3.5198,-3.513,-3.5769,-3.6395,-3.6702,-3.6275,-3.5938,-3.5799,-3.5323,-3.5059,-3.5475,-3.6061,-3.6677,-3.7204,-3.7328,-3.7437,-3.7791,-3.7973,-3.8139,-3.8257,-3.8435,-3.8723,-3.921,-3.932,-3.925,-3.9214,-3.954,-4.0012,-4.0125,-4.0354,-4.0526,-3.7056,-3.7095,-3.7095,-3.6741,-3.6207,-3.7605,-3.7864,-3.7297,-3.6543,-3.574,-3.4978,-3.4801,-3.5068,-3.5604,-3.4881,-3.48,-3.5183,-3.4643,-3.432,-3.4212,-3.3567,-3.3275,-3.3244,-3.2675,-3.2398,-3.2398,-3.2398,-3.2398,-3.2398,-3.2398,-3.2398,-3.2398,-3.2398,-3.2398,-3.2398,-3.2398,-3.2398,-3.2398,-3.2676,-3.2962,-3.316,-3.2962,-3.2796,-3.2687,-3.1778,-3.1255,-3.1131,-2.995,-2.9289,-2.9248,-2.8719,-2.8372,-2.8356,-2.7794,-2.7597,0.0,-2.7243,0.0,0.0,0.0,0.0,0.0,0.0,0.0,0.0,-2.9414,-3.0525,-3.222,-3.1693,-3.2073,-3.4053,-3.4085,-3.3607,-3.2715,-3.2188,-3.1889,-3.1833,-3.176,-3.1799,-3.1904,-3.1937,-3.2198,-3.2743,-3.3365,-3.3769,-3.372,-3.4736,-3.5542,-3.5671,-3.6038,-3.6305,-3.6211,-3.5891,-3.5645,-3.5568,-3.6076,-3.6507,-3.6507,-3.6475,-3.6554,-3.6924,-3.6969,-3.6984,-3.7315,-3.7464,-3.7583,-3.7857,-3.7947,-3.8046,-3.8238,-3.852,-3.8758,-3.8892,-3.9358,-3.9672,-3.7289,-3.7734,-3.7749,-3.7359,-3.6707,-3.6486,-3.6049,-3.5466,-3.4758,-3.4857,-3.5497,-3.5053,-3.5106,-3.5462,-3.4911,-3.4318,-3.3798,-3.366,-3.3306,-3.281,-3.2628,-3.2582,-3.2582,-3.2459,-3.2398,-3.2398,-3.2398,-3.2398,-3.2398,-3.2398,-3.2398,-3.2398,-3.2398,-3.2398,-3.2398,0.0,0.0,0.0,-3.2468,-3.2523,-3.2563,-3.2523,-3.2233,-3.1678,-3.0977,0.0,-2.9771,-2.9012,-2.8596,-2.8596,-2.8376,0.0,0.0,0.0,0.0,0.0,0.0,0.0,0.0,0.0,0.0,0.0,-2.7103,-2.7179,-2.742,-2.8492,-2.9119,-2.9021,-3.1162,-3.2074,-3.0822,-3.266,-3.3109,-3.1247,-3.182,-3.2042,-3.0995,-3.1213,-3.1552,-3.1617,-3.1748,-3.1874,-3.1952,-3.2497,-3.2839,-3.2809,-3.3473,-3.3891,-3.3802,-3.5106,-3.6068,-3.6149,-3.6152,-3.6045,-3.5598,-3.6061,-3.646,-3.646,-3.6116,-3.6085,-3.6492,-3.643,-3.6538,-3.6984,-3.7254,-3.749,-3.7828,-3.7915,-3.778,-3.7547,-3.8015,-3.8476,-3.8616,-3.8887,-3.9003,-3.689,0.0,-3.7429,-3.6585,0.0,-3.4753,-3.3922,-3.2818,-3.3304,-3.3672,-3.3932,-3.3721,-3.3738,-3.3901,-3.3527,-3.3442,-3.357,-3.2886,-3.268,-3.2875,-3.2552,-3.2398,-3.2398,-3.2398,-3.2398,-3.2398,-3.2398,-3.2398,-3.2398,-3.2398,-3.2398,-3.2398,-3.2398,-3.2398,-3.2398,-3.2398,-3.2398,-3.2398,-3.2398,-3.2398,-3.2398,-3.2398,-3.2118,-3.1546,0.0,0.0,0.0,0.0,0.0,0.0,0.0,0.0,0.0,0.0,0.0,-2.6718,-2.6599,-2.6426,-2.6133,-2.6026,-2.6013,-2.5999,-2.6013,-2.6244,-2.6907,-2.7578,-2.8073,-2.8348,-2.9922,-3.0543,-2.9766,-3.0662,-3.0829,-2.9654,-2.9839,-2.9757,-2.9195,-2.9304,-2.9528,-2.9541,-2.964,-2.9769,-3.0103,-3.0942,-3.1426,-3.148,-3.2542,-3.3143,-3.2932,-3.4279,-3.5559,-3.5975,-3.564,-3.5535,-3.5829,-3.592,-3.6226,-3.6352,-3.6053,-3.5943,-3.6414,-3.6179,-3.6116,-3.66,-3.6877,-3.7074,-3.7358,-3.7297,-3.7119,-3.7082,-3.7213,-3.7371,-3.7481,-3.7927,-3.8202,-3.6567,-3.6978,-3.6978,-3.5574,-3.3276,-3.3276,-3.2154,-3.0467,0.0,0.0,0.0,-3.2177,-3.2198,-3.2217,-3.2006,-3.2375,-3.3216,-3.2192,-3.2197,-3.3084,-3.2631,-3.2398,-3.2398,-3.2398,-3.2398,-3.2398,-3.2398,-3.2398,-3.2382,-3.2299,-3.2287,-3.2287,-3.2287,-3.2287,-3.2287,-3.2188,-3.216,-3.216,-3.2299,-3.2398,-3.2398,-3.2299,-3.2031,-3.1545,-3.0573,-2.9796,-2.9149,-2.8317,-2.7555,-2.7004,-2.7393,-2.7199,-2.6252,-2.664,-2.6599,-2.6026,-2.589,-2.5782,-2.5673,-2.555,-2.5495,-2.5495,-2.5495,-2.5837,-2.664,-2.6718,-2.7101,-2.8104,-2.8307,-2.8522,-2.8952,-2.8757,-2.8465,-2.8253,-2.7811,-2.7549,-2.7503,-2.7503,-2.7609,-2.7503,-2.7642,-2.7693,-2.8279,-2.932,-3.0046,-3.02,-3.1446,-3.2587,-3.242,-3.3581,-3.481,-3.5219,-3.4795,-3.4633,-3.5467,-3.5578,-3.564,-3.6022,-3.572,-3.5578,-3.5885,-3.5804,-3.577,-3.6059,-3.6306,-3.6647,-3.6907,-3.6678,-3.6403,-3.6586,-3.6414,-3.6136,-3.6054,-3.6662,-3.7118,-3.6908,-3.6978,-3.6978,-3.5574,-3.3276,-3.3276,-3.1963,-2.9883,-3.1128,-3.187,-3.218,-3.1801,-3.1779,-3.2012,-3.1555,-3.1356,-3.1412,-3.1613,-3.1769,0.0,-3.2249,-3.2398,-3.2398,-3.2398,-3.2398,-3.2398,-3.2398,-3.2398,-3.237,-3.2007,-3.1781,-3.1824,-3.1781,-3.1781,-3.1752,-3.1408,-3.1204,-3.1234,-3.1992,-3.2398,-3.2398,-3.2007,-3.1509,-3.0824,-2.9548,-2.8539,-2.789,-2.7002,-2.6438,-2.6347,-2.6279,-2.6199,-2.6038,-2.5986,-2.5728,-2.5216,-2.516,-2.4935,-2.4447,-2.4361,-2.4319,-2.4332,-2.4332,-2.4793,-2.5851,-2.596,-2.6016,-2.6214,-2.675,-2.707,-2.7128,-2.7542,-2.7749,-2.7636,-2.7542,-2.749,-2.7464,-2.749,-2.7503,-2.7503,-2.7503,-2.7516,-2.7719,-2.8313,-2.9008,-2.9411,-3.0394,-3.0973,-3.1965,-3.2989,-3.3665,-3.3837,-3.3822,-3.4027,-3.4368,-3.4518,-3.4593,-3.5055,-3.4637,-3.4332,-3.4535,-3.4753,-3.4984,-3.5058,-3.5751,-3.6446,-3.6862,-3.6422,-3.5983,-3.5916,-3.5849,-3.5519,-3.4778,-3.5242,-3.5771,-3.6978,-3.6894,-3.6314,-3.4992,-3.3192,-3.1859,-3.0638,-2.9687,-3.0207,-3.0573,-3.075,-3.0556,-3.0545,-3.068,-3.0449,-3.0633,-3.1138,-3.1013,-3.1265,-3.1841,-3.1717,-3.1667,-3.1652,-3.1879,-3.202,-3.2035,-3.2287,-3.2398,-3.2398,-3.2176,-3.1951,-3.1695,-3.1437,-3.1321,-3.1321,-3.1117,-3.0999,-3.0999,-3.1422,-3.1652,-3.1623,-3.1422,-3.0878,-3.0013,-2.9069,-2.8149,-2.7185,-2.6475,-2.5918,-2.5563,-2.5783,-2.5605,-2.5021,-2.5231,-2.509,-2.4563,-2.4505,-2.439,-2.4112,-2.4125,-2.4125,-2.4125,-2.4125,-2.4316,-2.4836,-2.5175,-2.537,-2.5384,-2.5674,-2.5939,-2.6174,-2.6223,-2.6463,-2.7007,-2.7066,-2.7066,-2.7105,-2.7366,-2.7503,-2.7503,-2.7503,-2.7503,-2.7503,-2.8033,-2.8608,-2.9222,-2.9993,-3.0808,-3.1389,-3.159,-3.2003,-3.2666,-3.2444,-3.2381,-3.282,-3.2754,-3.3063,-3.393,-3.3396,-3.3252,-3.3701,-3.4097,-3.4097,-3.431,-3.4838,-3.5407,-3.6073,-3.5246,-3.4887,-3.541,-3.4978,-3.4503,-3.4219,-3.4493,-3.4847,-3.6978,-3.688,-3.6005,-3.4702,-3.308,-3.067,-2.9602,-2.9602,-2.9617,-2.9602,-2.9602,-2.9602,-2.9602,-2.9602,-2.9602,-3.0075,-3.079,-3.0512,-3.0799,-3.1511,-3.119,-3.0999,-3.1029,-3.1379,-3.1567,-3.1581,-3.1908,-3.2104,-3.2076,-3.1992,-3.1737,-3.1379,-3.0896,-3.0732,-3.0851,-3.0732,-3.0673,-3.0673,-3.0703,-3.0777,-3.0999,-3.0911,-3.0352,-2.9346,-2.8569,-2.7641,-2.6551,-2.5925,-2.5342,-2.4863,-2.5203,-2.5034,-2.42,-2.4401,-2.4378,-2.3961,-2.3785,-2.3785,-2.3874,-2.4018,-2.4125,-2.4125,-2.4125,-2.4125,-2.4141,-2.4534,-2.4806,-2.4778,-2.4805,-2.5031,-2.545,-2.5149,-2.5267,-2.634,-2.6379,-2.6334,-2.6504,-2.6987,-2.7307,-2.7307,-2.7398,-2.7503,-2.7581,-2.7915,-2.8464,-2.9222,-3.0163,-3.0751,-3.0738,-3.044,-3.0823,-3.1004,-3.0829,-3.0718,-3.1205,-3.1116,-3.1492,-3.2634,-3.2151,-3.207,-3.2742,-3.2941,-3.326,-3.361,-3.3876,-3.4382,-3.5,-3.4182,-3.3744,-3.4425,-3.4194,-3.379,-3.4057,-3.4208,-3.4341,-3.6978,-3.6978,-3.6835,-3.5447,-3.3038,-3.0642,-2.9602,-2.9602,-2.9602,-2.9602,-2.9602,-2.9602,-2.9602,-2.9602,-2.9602,-2.969,-2.984,-3.0142,-3.0355,-3.0518,-3.0851,-3.0999,-3.097,-3.1029,-3.1058,-3.1087,-3.1131,-3.1219,-3.119,-3.0792,-3.0493,-3.0372,-2.996,-2.996,-3.0296,-2.996,-2.9758,-2.9727,-2.9727,-3.0144,-3.0896,-3.0583,-2.9905,-2.8978,-2.7658,-2.6544,-2.5654,-2.4752,-2.4245,-2.42,-2.4232,-2.4216,-2.4047,-2.3647,-2.3358,-2.3276,-2.2831,-2.2767,-2.3276,-2.3812,-2.4073,-2.4125,-2.4057,-2.4099,-2.4112,-2.4171,-2.4171,-2.4229,-2.42,-2.4501,-2.4953,-2.4557,-2.4713,-2.572,-2.5537,-2.5345,-2.5903,-2.6412,-2.6752,-2.6784,-2.7262,-2.7503,-2.7516,-2.7633,-2.8111,-2.9087,-2.9758,-3.0179,-3.0192,-3.0385,-3.0121,-2.9359,-2.9092,-2.9579,-2.9885,-2.9952,-3.0153,-3.0637,-3.0874,-3.0887,-3.1101,-3.2013,-3.3085,-3.2465,-3.3054,-3.365,-3.3826,-3.3395,-3.2925,-3.349,-3.3572,-3.3503,-3.3924,-3.4126,-3.4201,-3.6978,-3.6922,-3.6244,-3.4492,-3.2131,-3.0333,-2.9602,-2.9602,-2.9602,-2.9602,-2.9602,-2.9602,-2.9602,-2.9602,-2.9602,-2.9602,-2.9602,-2.9775,-2.9882,-2.9898,-3.0083,-3.016,-3.019,-3.0463,-3.0583,-3.0613,-3.0881,-3.0999,-3.0911,-3.0523,-3.0296,-3.0251,-2.9851,-2.9696,-2.9837,-2.9696,-2.9602,-2.9602,-2.9602,-2.9789,-3.007,-2.9635,-2.8896,-2.7951,-2.685,-2.5851,-2.4978,-2.4392,-2.4125,-2.4057,-2.3785,-2.3589,-2.3576,-2.3027,-2.2727,-2.2727,-2.2532,-2.2493,-2.2727,-2.2962,-2.3223,-2.3535,-2.3561,-2.372,-2.4057,-2.4125,-2.4125,-2.4125,-2.4125,-2.4347,-2.4848,-2.4452,-2.4452,-2.5171,-2.5393,-2.5563,-2.5754,-2.6621,-2.7183,-2.721,-2.7346,-2.7503,-2.7555,-2.7824,-2.8216,-2.8786,-2.9248,-2.9601,-2.964,-2.9549,-2.9179,-2.8656,-2.8608,-2.8612,-2.8552,-2.842,-2.8783,-2.9335,-2.9536,-2.9455,-3.0099,-3.0349,-3.1034,-3.1148,-3.1492,-3.2081,-3.287,-3.2355,-3.1914,-3.2673,-3.3431,-3.3633,-3.3838,-3.4,-3.4101,-3.6978,-3.674,-3.5358,-3.3473,-3.1401,-3.0136,-2.9602,-2.9602,-2.9602,-2.9602,-2.9602,-2.9602,-2.9602,-2.9602,-2.9602,-2.9602,-2.9602,-2.9602,-2.9602,-2.9602,-2.9602,-2.9602,-2.9634,-2.9943,-3.0113,-3.016,-3.0433,-3.0613,-3.0583,-3.0282,-3.0113,-3.0052,-2.9758,-2.9602,-2.9602,-2.9602,-2.9602,-2.9602,-2.9602,-2.9487,-2.9187,-2.861,-2.7959,-2.7189,-2.6346,-2.5428,-2.4461,-2.4216,-2.4125,-2.4099,-2.3509,-2.3182,-2.3184,-2.2558,-2.2087,-2.2008,-2.2374,-2.2558,-2.2413,-2.2702,-2.3014,-2.3406,-2.3459,-2.3642,-2.3992,-2.4125,-2.4125,-2.4125,-2.4125,-2.4308,-2.4596,-2.436,-2.4321,-2.4713,-2.5236,-2.5576,-2.5628,-2.6595,-2.7249,-2.7301,-2.7359,-2.7503,-2.7555,-2.7863,-2.815,-2.8412,-2.8765,-2.9026,-2.9074,-2.8817,-2.8595,-2.8242,-2.8268,-2.8164,-2.7633,-2.7844,-2.8097,-2.8239,-2.8524,-2.8712,-2.9282,-2.9218,-2.9352,-2.982,-2.9596,-2.9953,-3.1117,-3.1062,-3.1454,-3.2619,-3.3318,-3.3555,-3.3694,-3.3873,-3.4,-3.6978,-3.6613,-3.4393,-3.2721,-3.1387,-3.015,-2.9602,-2.9602,-2.9602,-2.9602,-2.9602,-2.9602,-2.9602,-2.9602,-2.9602,-2.9602,-2.9602,-2.9602,-2.9602,-2.9602,-2.9602,-2.9602,-2.9602,-2.9634,-2.9634,-2.9696,-2.9758,-2.9758,-2.9727,-2.9665,-2.9602,-2.9634,-2.9602,-2.9602,-2.9602,-2.9602,-2.9602,-2.9602,-2.9571,-2.9198,-2.8352,-2.7725,-2.7272,-2.6835,-2.6228,-2.5284,-2.4308,-2.4112,-2.4125,-2.4125,-2.3522,-2.3182,-2.3091,-2.2165,-2.1355,-2.1093,-2.2283,-2.291,-2.261,-2.3276,-2.3903,-2.3979,-2.39,-2.4031,-2.4099,-2.4125,-2.4125,-2.4125,-2.4125,-2.4135,-2.4204,-2.4178,-2.4138,-2.423,-2.4717,-2.5044,-2.5123,-2.617,-2.668,-2.6889,-2.7249,-2.7477,-2.7503,-2.7503,-2.7837,-2.8177,-2.8399,-2.8425,-2.8477,-2.8817,-2.8595,-2.8033,-2.7981,-2.819,-2.7686,-2.7758,-2.7889,-2.8005,-2.804,-2.8057,-2.801,-2.8103,-2.8432,-2.8782,-2.9202,-2.9557,-2.9817,-3.0491,-3.1467,-3.2356,-3.2862,-3.315,-3.3513,-3.3642,-3.3822,-3.6553,-3.5695,-3.4014,-3.2609,-3.1401,-3.015,-2.9602,-2.9602,-2.9602,-2.9602,-2.9602,-2.9602,-2.9602,-2.9602,-2.9602,-2.9602,-2.9602,-2.9602,-2.9602,-2.9602,-2.9602,-2.9602,-2.9602,-2.9602,-2.9602,-2.9602,-2.9602,-2.9602,-2.9602,-2.9602,-2.9602,-2.9602,-2.9602,-2.9602,-2.9602,-2.9602,-2.9602,-2.9571,-2.9415,-2.8921,-2.8177,-2.7402,-2.6666,-2.6004,-2.5367,-2.472,-2.4125,-2.4125,-2.4125,-2.4125,-2.355,-2.3039,-2.2675,-2.1929,-2.1616,-2.1812,-2.2374,-2.2596,-2.248,-2.2781,-2.3171,-2.3469,-2.355,-2.3759,-2.4034,-2.4125,-2.4125,-2.4125,-2.4125,-2.4125,-2.4125,-2.4125,-2.4125,-2.4191,-2.4622,-2.5136,-2.5537,-2.6203,-2.6804,-2.7157,-2.7398,-2.749,-2.7503,-2.7503,-2.7581,-2.7751,-2.785,-2.785,-2.7863,-2.8025,-2.802,-2.7771,-2.7981,-2.8177,-2.7581,-2.762,-2.7732,-2.7741,-2.7776,-2.796,-2.8029,-2.8047,-2.8338,-2.8526,-2.8934,-2.9195,-2.9442,-3.0301,-3.1317,-3.2163,-3.2636,-3.2962,-3.3356,-3.3503,-3.3745,-3.63,-3.5119,-3.4056,-3.2778,-3.1429,-3.0361,-2.9785,-2.9631,-2.9602,-2.9602,-2.9602,-2.9602,-2.9602,-2.9602,-2.9602,-2.9602,-2.9602,-2.9602,-2.9602,-2.9602,-2.9602,-2.9602,-2.9602,-2.9602,-2.9602,-2.9602,-2.9602,-2.9602,-2.9602,-2.9602,-2.9602,-2.9602,-2.9602,-2.9602,-2.9602,-2.9602,-2.9602,-2.954,-2.9289,-2.8681,-2.7803,-2.7016,-2.6133,-2.5169,-2.4604,-2.429,-2.4125,-2.4125,-2.4125,-2.4047,-2.3522,-2.2962,-2.2426,-2.2191,-2.2152,-2.2387,-2.2779,-2.2858,-2.2701,-2.2846,-2.3119,-2.3459,-2.3496,-2.3707,-2.4073,-2.4125,-2.4125,-2.4125,-2.4125,-2.4125,-2.4125,-2.4125,-2.4125,-2.4191,-2.4622,-2.5136,-2.5511,-2.6033,-2.6608,-2.7092,-2.7359,-2.7477,-2.7503,-2.7503,-2.7516,-2.7503,-2.7503,-2.7503,-2.7503,-2.7503,-2.7503,-2.7529,-2.7811,-2.7876,-2.7581,-2.7568,-2.7607,-2.7596,-2.7623,-2.7822,-2.7827,-2.7921,-2.803,-2.8279,-2.855,-2.8767,-2.9341,-3.019,-3.107,-3.1975,-3.2441,-3.2742,-3.3091,-3.3372,-3.3633,-3.6234,-3.5119,-3.4478,-3.3038,-3.1429,-3.0712,-3.0119,-2.9659,-2.9602,-2.9602,-2.9602,-2.9602,-2.9602,-2.9602,-2.9602,-2.9602,-2.9602,-2.9602,-2.9602,-2.9602,-2.9602,-2.9602,-2.9602,-2.9602,-2.9602,-2.9602,-2.9602,-2.9602,-2.9602,-2.9602,-2.9602,-2.9602,-2.9602,-2.9602,-2.9602,-2.9602,-2.9571,-2.9477,-2.9226,-2.8363,-2.6976,-2.6478,-2.568,-2.4419,-2.4181,-2.4138,-2.4164,-2.4138,-2.4125,-2.406,-2.3561,-2.2975,-2.2689,-2.2844,-2.2936,-2.2754,-2.3459,-2.3691,-2.3367,-2.3665,-2.3929,-2.4021,-2.4073,-2.4047,-2.4086,-2.4125,-2.4125,-2.4125,-2.4125,-2.4125,-2.4125,-2.4125,-2.4125,-2.4164,-2.4599,-2.4913,-2.5136,-2.5537,-2.6073,-2.6674,-2.7183,-2.7477,-2.7503,-2.7503,-2.7503,-2.7503,-2.7503,-2.7503,-2.7503,-2.7503,-2.7503,-2.7503,-2.7594,-2.7607,-2.7555,-2.7503,-2.7503,-2.7503,-2.751,-2.7584,-2.7367,-2.7319,-2.7394,-2.7588,-2.782,-2.8107,-2.9279,-3.0104,-3.0836,-3.163,-3.2056,-3.2563,-3.2893,-3.3203,-3.3424,-3.5644,-3.4492,-3.3859,-3.249,-3.0862,-3.0568,-3.0147,-2.9631,-2.9602,-2.9602,-2.9602,-2.9602,-2.9602,-2.9602,-2.9602,-2.9602,-2.9602,-2.9602,-2.9602,-2.9602,-2.9602,-2.9602,-2.9602,-2.9602,-2.9602,-2.9602,-2.9602,-2.9602,-2.9602,-2.9602,-2.9602,-2.9602,-2.9602,-2.9602,-2.9602,-2.9602,-2.9509,-2.9226,-2.894,-2.799,-2.6568,-2.6122,-2.5538,-2.4796,-2.4334,-2.4282,-2.4648,-2.4321,-2.4125,-2.4125,-2.3913,-2.3746,-2.3576,-2.3341,-2.3328,-2.3589,-2.3877,-2.4031,-2.3903,-2.3981,-2.4125,-2.4125,-2.4125,-2.4125,-2.4125,-2.4125,-2.4125,-2.4125,-2.4125,-2.4125,-2.4125,-2.4125,-2.4125,-2.4125,-2.4282,-2.457,-2.4979,-2.5803,-2.6444,-2.6719,-2.7183,-2.7464,-2.7503,-2.7503,-2.7503,-2.7503,-2.7503,-2.7503,-2.7503,-2.7503,-2.7503,-2.7503,-2.7503,-2.7503,-2.7503,-2.7503,-2.7503,-2.7503,-2.749,-2.7477,-2.7203,-2.6784,-2.686,-2.6844,-2.7072,-2.7752,-2.8941,-2.9944,-3.0612,-3.1354,-3.1926,-3.2379,-3.2757,-3.298,-3.3082,-3.5349,-3.4175,-3.3543,-3.2384,-3.0909,-3.0642,-3.0147,-2.9659,-2.9602,-2.9602,-2.9602,-2.9602,-2.9602,-2.9602,-2.9602,-2.9602,-2.9602,-2.9602,-2.9602,-2.9602,-2.9602,-2.9602,-2.9602,-2.9602,-2.9602,-2.9602,-2.9602,-2.9602,-2.9602,-2.9602,-2.9602,-2.9602,-2.9602,-2.9602,-2.9602,-2.9602,-2.9446,-2.9099,-2.8766,-2.7953,-2.6858,-2.6283,-2.5863,-2.5301,-2.4726,-2.4678,-2.494,-2.4426,-2.4125,-2.4125,-2.4125,-2.4125,-2.4086,-2.3744,-2.3733,-2.3979,-2.4112,-2.4112,-2.4125,-2.4099,-2.4125,-2.4125,-2.4125,-2.4125,-2.4125,-2.4125,-2.4125,-2.4125,-2.4125,-2.4125,-2.4125,-2.4125,-2.4125,-2.4125,-2.4138,-2.4282,-2.4726,-2.5489,-2.6117,-2.6366,-2.6844,-2.7203,-2.7438,-2.7503,-2.7503,-2.7503,-2.7503,-2.7503,-2.7503,-2.7503,-2.7503,-2.7503,-2.7503,-2.7503,-2.7503,-2.7503,-2.7503,-2.7503,-2.7503,-2.749,-2.7379,-2.6687,-2.6433,-2.6163,-2.6233,-2.682,-2.788,-2.9246,-3.0182,-3.0977,-3.1617,-3.2081,-3.2365,-3.2391,-3.2557,-3.5293,-3.4119,-3.3529,-3.2553,-3.1345,-3.0839,-3.0249,-2.9659,-2.9602,-2.9602,-2.9602,-2.9602,-2.9602,-2.9602,-2.9602,-2.9602,-2.9602,-2.9602,-2.9602,-2.9602,-2.9602,-2.9602,-2.9602,-2.9602,-2.9602,-2.9602,-2.9602,-2.9602,-2.9602,-2.9602,-2.9602,-2.9602,-2.9602,-2.9602,-2.9571,-2.9571,-2.9383,-2.9004,-2.8716,-2.8069,-2.7115,-2.6814,-2.6412,-2.5863,-2.5315,-2.504,-2.5014,-2.4478,-2.4125,-2.4125,-2.4125,-2.4125,-2.4125,-2.4125,-2.4073,-2.4125,-2.4125,-2.4125,-2.4125,-2.4125,-2.4125,-2.4125,-2.4125,-2.4125,-2.4125,-2.4125,-2.4125,-2.4125,-2.4125,-2.4083,-2.4083,-2.4096,-2.4096,-2.4096,-2.4096,-2.4122,-2.4148,-2.4713,-2.5358,-2.585,-2.6334,-2.6928,-2.7398,-2.749,-2.7503,-2.7503,-2.7503,-2.7503,-2.7503,-2.7503,-2.7503,-2.7503,-2.749,-2.7503,-2.7503,-2.7503,-2.7503,-2.7503,-2.7451,-2.7372,-2.7177,-2.6491,-2.58,-2.5538,-2.5668,-2.6193,-2.7016,-2.8411,-2.9442,-3.0089,-3.0777,-3.1488,-3.1805,-3.18,-3.2104,-3.4674,-3.3543,-3.3347,-3.2342,-3.0919,-3.1064,-3.0586,-2.9673,-2.9602,-2.9602,-2.9602,-2.9602,-2.9602,-2.9602,-2.9602,-2.9602,-2.9602,-2.9602,-2.9602,-2.9602,-2.9602,-2.9602,-2.9602,-2.9602,-2.9602,-2.9602,-2.9602,-2.9602,-2.9602,-2.9602,-2.9602,-2.9602,-2.9602,-2.9602,-2.9571,-2.9352,-2.9067,-2.8716,-2.8406,-2.7799,-2.7018,-2.6797,-2.6641,-2.647,-2.5903,-2.5602,-2.5484,-2.4592,-2.4125,-2.4125,-2.4125,-2.4125,-2.4125,-2.4125,-2.4125,-2.4125,-2.4125,-2.4125,-2.4125,-2.4125,-2.4125,-2.4125,-2.4125,-2.4125,-2.4125,-2.4125,-2.4125,-2.4125,-2.4125,-2.4067,-2.3979,-2.3949,-2.3949,-2.3979,-2.3995,-2.4037,-2.4099,-2.4562,-2.5214,-2.5759,-2.6308,-2.6844,-2.7307,-2.7503,-2.7503,-2.7503,-2.7503,-2.7503,-2.7503,-2.7503,-2.7503,-2.749,-2.749,-2.749,-2.7503,-2.7503,-2.7503,-2.7503,-2.7385,-2.7177,-2.6739,-2.5994,-2.534,-2.4787,-2.5389,-2.594,-2.6704,-2.7783,-2.8482,-2.9222,-2.9733,-3.034,-3.0918,-3.1121,-3.1578,-3.4851,-3.3655,-3.3389,-3.2398,-3.1007,-3.105,-3.0516,-2.9743,-2.9602,-2.9602,-2.9602,-2.9602,-2.9602,-2.9602,-2.9602,-2.9602,-2.9602,-2.9602,-2.9602,-2.9602,-2.9602,-2.9602,-2.9602,-2.9602,-2.9602,-2.9602,-2.9602,-2.9602,-2.9602,-2.9602,-2.9602,-2.9602,-2.9602,-2.9509,-2.9352,-2.9226,-2.8844,-2.8471,-2.8177,-2.7716,-2.7099,-2.704,-2.704,-2.6922,-2.6478,-2.6033,-2.5458,-2.4805,-2.4387,-2.4191,-2.4125,-2.4125,-2.4125,-2.4125,-2.4125,-2.4125,-2.4125,-2.4125,-2.4125,-2.4125,-2.4125,-2.4125,-2.4125,-2.4125,-2.4125,-2.4125,-2.4096,-2.4037,-2.4008,-2.392,-2.3819,-2.376,-2.373,-2.3713,-2.3819,-2.3907,-2.3936,-2.4281,-2.4927,-2.5584,-2.6125,-2.6648,-2.7346,-2.7477,-2.7503,-2.7503,-2.7503,-2.7503,-2.7503,-2.7503,-2.7503,-2.749,-2.7406,-2.7294,-2.732,-2.7333,-2.7359,-2.7385,-2.6929,-2.6817,-2.6321,-2.5589,-2.5092,-2.4763,-2.522,-2.5661,-2.6169,-2.6848,-2.7723,-2.833,-2.8739,-2.9354,-3.0036,-3.0105,-3.0588,-3.5349,-3.4161,-3.3705,-3.2764,-3.1597,-3.0979,-3.0488,-2.9799,-2.9645,-2.9602,-2.9602,-2.9602,-2.9602,-2.9602,-2.9602,-2.9602,-2.9602,-2.9602,-2.954,-2.954,-2.9571,-2.9571,-2.9477,-2.9571,-2.9602,-2.9602,-2.9602,-2.9602,-2.9602,-2.9602,-2.9602,-2.9571,-2.954,-2.9383,-2.9162,-2.9004,-2.8651,-2.8243,-2.8046,-2.7822,-2.7465,-2.7398,-2.7385,-2.7327,-2.6889,-2.6235,-2.5555,-2.5044,-2.4726,-2.423,-2.4135,-2.4125,-2.4125,-2.4125,-2.4125,-2.4125,-2.4125,-2.4125,-2.4125,-2.4125,-2.4125,-2.4125,-2.4125,-2.4125,-2.4125,-2.4096,-2.4008,-2.392,-2.3878,-2.376,-2.3641,-2.3569,-2.3509,-2.3463,-2.3509,-2.3688,-2.3936,-2.3949,-2.439,-2.5566,-2.5793,-2.6341,-2.7007,-2.7464,-2.7503,-2.7503,-2.7503,-2.7503,-2.7503,-2.7503,-2.7503,-2.7503,-2.7307,-2.7079,-2.7118,-2.717,-2.721,-2.7196,-2.6459,-2.608,-2.5837,-2.5288,-2.4922,-2.4771,-2.4938,-2.4949,-2.4966,-2.5783,-2.6834,-2.728,-2.7575,-2.8573,-2.9509,-2.902,-2.9144,-3.5335,-3.4231,-3.4618,-3.3797,-3.2328,-3.2033,-3.1331,-3.0231,-2.9768,-2.9602,-2.9602,-2.9602,-2.9602,-2.9602,-2.9602,-2.9602,-2.9602,-2.9571,-2.9477,-2.9257,-2.9477,-2.9415,-2.9352,-2.9477,-2.9602,-2.9602,-2.9602,-2.9602,-2.9602,-2.9602,-2.9602,-2.9571,-2.9352,-2.9162,-2.9035,-2.8587,-2.8276,-2.8046,-2.7802,-2.7636,-2.7536,-2.7503,-2.7503,-2.7451,-2.7033,-2.6654,-2.6222,-2.5463,-2.4953,-2.4743,-2.44,-2.4178,-2.4138,-2.4125,-2.4125,-2.4125,-2.4125,-2.4125,-2.4125,-2.4125,-2.4125,-2.4125,-2.4125,-2.4125,-2.4096,-2.4008,-2.3949,-2.3861,-2.376,-2.3599,-2.345,-2.3288,-2.3288,-2.333,-2.3288,-2.336,-2.3671,-2.3832,-2.4468,-2.5366,-2.5806,-2.6086,-2.6791,-2.732,-2.7438,-2.7477,-2.7503,-2.7503,-2.7503,-2.7503,-2.7503,-2.749,-2.7242,-2.7105,-2.7471,-2.7471,-2.7392,-2.7131,-2.6341,-2.5955,-2.5654,-2.4949,-2.4557,-2.441,-2.4456,-2.4489,-2.4718,-2.5064,-2.6187,-2.6288,-2.6608,-2.7596,-2.8294,-2.7889,-2.8142,-3.5855,-3.5447,-3.466,-3.3733,-3.2778,-3.1907,-3.0979,-3.0164,-2.9757,-2.9602,-2.9602,-2.9602,-2.9602,-2.9602,-2.9602,-2.9602,-2.954,-2.9415,-2.9289,-2.9162,-2.9289,-2.9352,-2.9383,-2.9477,-2.9602,-2.9602,-2.9602,-2.9602,-2.9602,-2.9602,-2.9602,-2.9571,-2.9257,-2.9004,-2.8812,-2.8373,-2.8046,-2.7802,-2.7636,-2.7503,-2.7503,-2.7503,-2.7503,-2.749,-2.7223,-2.6974,-2.6627,-2.585,-2.5319,-2.5005,-2.4717,-2.4387,-2.4164,-2.4125,-2.4125,-2.4125,-2.4125,-2.4125,-2.4125,-2.4125,-2.4125,-2.4125,-2.4125,-2.4067,-2.4037,-2.3949,-2.3832,-2.3684,-2.3552,-2.3463,-2.33,-2.3198,-2.3168,-2.321,-2.3168,-2.3316,-2.3734,-2.3838,-2.4215,-2.5255,-2.5699,-2.6212,-2.6778,-2.7222,-2.7425,-2.7469,-2.7403,-2.7403,-2.7469,-2.7469,-2.7456,-2.7391,-2.7163,-2.7236,-2.7771,-2.7863,-2.7693,-2.721,-2.6419,-2.6242,-2.6112,-2.5158,-2.4178,-2.4321,-2.454,-2.4873,-2.512,-2.5408,-2.584,-2.6478,-2.6966,-2.7182,-2.7357,-2.7527,-2.7982,-3.6143,-3.6529,-3.4133,-3.3204,-3.3136,-3.1492,-3.0457,-3.001,-2.9771,-2.9743,-2.9602,-2.9602,-2.9602,-2.9602,-2.9602,-2.9571,-2.9415,-2.9162,-2.8972,-2.8844,-2.9067,-2.9162,-2.932,-2.9477,-2.9602,-2.9602,-2.9602,-2.9602,-2.9602,-2.9602,-2.9602,-2.954,-2.9194,-2.8876,-2.8587,-2.8164,-2.7835,-2.759,-2.7536,-2.7503,-2.7503,-2.7503,-2.7503,-2.749,-2.7451,-2.7275,-2.6857,-2.6282,-2.5746,-2.5293,-2.5175,-2.4844,-2.4517,-2.4227,-2.4213,-2.4256,-2.4217,-2.4125,-2.4125,-2.4125,-2.4138,-2.4191,-2.421,-2.4229,-2.4205,-2.4189,-2.3987,-2.3658,-2.3474,-2.33,-2.3138,-2.3095,-2.3095,-2.3108,-2.3108,-2.3412,-2.3786,-2.3747,-2.4175,-2.5106,-2.5567,-2.5993,-2.6681,-2.7267,-2.7358,-2.7423,-2.7356,-2.7302,-2.7369,-2.7423,-2.741,-2.7423,-2.7248,-2.7484,-2.7994,-2.7301,-2.7249,-2.7013,-2.6276,-2.6046,-2.6052,-2.5319,-2.4452,-2.4586,-2.4859,-2.5148,-2.5616,-2.6078,-2.6547,-2.7053,-2.7076,-2.6994,-2.712,-2.7293,-2.7682,-3.4809,-3.5288,-3.3114,-3.2898,-3.3631,-3.1964,-3.1025,-3.1068,-3.0474,-3.0066,-2.9631,-2.9602,-2.9602,-2.9602,-2.9602,-2.9446,-2.9131,-2.8812,-2.8554,-2.8457,-2.8748,-2.9004,-2.9004,-2.9352,-2.9571,-2.9602,-2.9602,-2.9602,-2.9602,-2.9602,-2.9571,-2.9477,-2.9004,-2.8651,-2.8425,-2.8,-2.7636,-2.7536,-2.7503,-2.7503,-2.7503,-2.7503,-2.7503,-2.7503,-2.7503,-2.7425,-2.7275,-2.6831,-2.651,-2.636,-2.5942,-2.5636,-2.5432,-2.5079,-2.4913,-2.4687,-2.44,-2.4217,-2.4138,-2.4125,-2.4374,-2.4644,-2.4675,-2.4788,-2.4911,-2.4891,-2.4486,-2.3968,-2.348,-2.3138,-2.3095,-2.3158,-2.312,-2.3108,-2.317,-2.3226,-2.3349,-2.3495,-2.4012,-2.5183,-2.5459,-2.5749,-2.6537,-2.7095,-2.72,-2.7226,-2.7193,-2.717,-2.7201,-2.7263,-2.7324,-2.7351,-2.7397,-2.7777,-2.8276,-2.7066,-2.6367,-2.6412,-2.5903,-2.5262,-2.5171,-2.5083,-2.4874,-2.5332,-2.5398,-2.5476,-2.5997,-2.6696,-2.6826,-2.7001,-2.6881,-2.6791,-2.6605,-2.6576,-2.6735,-3.4548,-3.491,-3.23,-3.2172,-3.3093,-3.0959,-3.0298,-3.083,-3.0319,-2.9883,-2.9673,-2.9602,-2.9602,-2.9554,-2.9397,-2.9067,-2.8651,-2.8438,-2.8243,-2.821,-2.8438,-2.8748,-2.878,-2.9226,-2.9415,-2.954,-2.9602,-2.9571,-2.9602,-2.9602,-2.9509,-2.9257,-2.8844,-2.8522,-2.8262,-2.7802,-2.7536,-2.7503,-2.7503,-2.7503,-2.7503,-2.7503,-2.7503,-2.7503,-2.7503,-2.7503,-2.7385,-2.6974,-2.6719,-2.6641,-2.6399,-2.6282,-2.6177,-2.6026,-2.5594,-2.5097,-2.47,-2.4387,-2.4191,-2.4125,-2.4213,-2.4448,-2.4688,-2.4671,-2.4738,-2.4719,-2.476,-2.4166,-2.355,-2.3095,-2.3108,-2.3333,-2.3384,-2.3221,-2.3346,-2.3371,-2.3251,-2.3248,-2.4106,-2.5076,-2.5018,-2.5441,-2.6468,-2.6876,-2.7022,-2.7043,-2.6997,-2.7033,-2.7087,-2.7111,-2.718,-2.7403,-2.7488,-2.7704,-2.8059,-2.7288,-2.6211,-2.6059,-2.589,-2.5236,-2.5092,-2.5328,-2.5929,-2.653,-2.6406,-2.6007,-2.6648,-2.738,-2.7203,-2.7031,-2.724,-2.718,-2.6251,-2.588,-2.612,-3.4108,-3.4385,-3.1235,-3.1019,-3.2055,-2.9537,-2.9073,-3.0012,-2.9816,-2.9631,-2.9602,-2.9509,-2.9477,-2.9383,-2.9067,-2.8619,-2.8112,-2.8046,-2.7947,-2.798,-2.8112,-2.8471,-2.8844,-2.9035,-2.9162,-2.9415,-2.932,-2.9477,-2.9602,-2.9602,-2.9415,-2.9131,-2.878,-2.8438,-2.8112,-2.7736,-2.757,-2.7503,-2.7503,-2.7503,-2.7503,-2.7503,-2.7503,-2.7503,-2.7503,-2.7503,-2.7451,-2.7157,-2.6935,-2.6909,-2.6857,-2.6844,-2.6844,-2.6844,-2.6308,-2.5398,-2.5083,-2.473,-2.4439,-2.4125,-2.4204,-2.4478,-2.4679,-2.4473,-2.4368,-2.465,-2.4703,-2.4066,-2.3459,-2.3108,-2.3158,-2.3496,-2.3602,-2.3547,-2.3672,-2.3891,-2.3647,-2.3708,-2.4066,-2.4595,-2.4529,-2.5269,-2.6419,-2.6718,-2.6878,-2.6925,-2.6912,-2.6912,-2.6947,-2.6915,-2.7035,-2.7395,-2.7579,-2.7686,-2.7751,-2.7646,-2.6772,-2.6295,-2.6216,-2.5876,-2.5903,-2.6073,-2.6569,-2.6746,-2.6889,-2.6641,-2.7385,-2.7824,-2.759,-2.7532,-2.7829,-2.7258,-2.5862,-2.5504,-2.5799,-3.2502,-3.2479,-2.963,-2.9261,-3.0363,-2.8413,-2.831,-2.9561,-2.9537,-2.9541,-2.9571,-2.9289,-2.9194,-2.9004,-2.8522,-2.821,-2.8013,-2.7769,-2.7636,-2.7703,-2.7901,-2.8243,-2.8587,-2.8651,-2.8844,-2.9099,-2.8908,-2.9099,-2.938,-2.9505,-2.9439,-2.9104,-2.8811,-2.8465,-2.8133,-2.7709,-2.7503,-2.7503,-2.7503,-2.7503,-2.7503,-2.7503,-2.7503,-2.7503,-2.7503,-2.7503,-2.7503,-2.7333,-2.732,-2.7333,-2.7359,-2.7385,-2.7398,-2.7385,-2.6759,-2.5942,-2.5301,-2.4966,-2.4713,-2.436,-2.4269,-2.4497,-2.4641,-2.4741,-2.4719,-2.4316,-2.4135,-2.406,-2.3434,-2.312,-2.3108,-2.3208,-2.3434,-2.374,-2.3966,-2.4305,-2.4286,-2.4023,-2.4437,-2.4771,-2.4899,-2.5612,-2.6569,-2.6642,-2.671,-2.679,-2.6812,-2.6748,-2.6739,-2.6688,-2.6984,-2.7377,-2.7522,-2.7581,-2.7549,-2.7411,-2.7007,-2.6452,-2.6543,-2.6465,-2.6399,-2.6347,-2.6099,-2.6321,-2.6634,-2.6974,-2.7288,-2.7536,-2.7706,-2.7741,-2.765,-2.6511,-2.5045,-2.5153,-2.5618,-3.2541,-3.2206,-2.9799,-2.9592,-3.0414,-2.7971,-2.8002,-2.9511,-2.923,-2.921,-2.9474,-2.9257,-2.8908,-2.8522,-2.821,-2.798,-2.7769,-2.757,-2.7503,-2.7503,-2.7703,-2.7967,-2.8243,-2.8341,-2.849,-2.8716,-2.8716,-2.8716,-2.9072,-2.932,-2.9388,-2.9217,-2.8903,-2.8605,-2.8199,-2.7734,-2.7529,-2.7503,-2.7503,-2.7503,-2.7503,-2.7503,-2.7503,-2.7503,-2.7503,-2.7503,-2.7503,-2.7503,-2.7503,-2.7503,-2.7503,-2.7503,-2.749,-2.7438,-2.7118,-2.6412,-2.5772,-2.5171,-2.4557,-2.4269,-2.4321,-2.4461,-2.4538,-2.4785,-2.488,-2.421,-2.3715,-2.3979,-2.3434,-2.3145,-2.3195,-2.3421,-2.3703,-2.3991,-2.4305,-2.4582,-2.4763,-2.4637,-2.4695,-2.4996,-2.5343,-2.5941,-2.643,-2.6422,-2.6375,-2.6282,-2.6243,-2.6098,-2.6209,-2.6335,-2.6784,-2.7417,-2.7451,-2.7432,-2.7327,-2.721,-2.6824,-2.653,-2.702,-2.6922,-2.6661,-2.6491,-2.6386,-2.6399,-2.6778,-2.7027,-2.7144,-2.7523,-2.7928,-2.7668,-2.7302,-2.6258,-2.5299,-2.5374,-2.5984,-3.2336,-3.1931,-3.0214,-2.983,-3.0038,-2.746,-2.7443,-2.9042,-2.865,-2.868,-2.8994,-2.8894,-2.8503,-2.8079,-2.7947,-2.7769,-2.7536,-2.7503,-2.7503,-2.7503,-2.7536,-2.7769,-2.7967,-2.8079,-2.8131,-2.8457,-2.8262,-2.836,-2.86,-2.8851,-2.9073,-2.9072,-2.8718,-2.8431,-2.8121,-2.7758,-2.7503,-2.7503,-2.7503,-2.7503,-2.7503,-2.7503,-2.7503,-2.7503,-2.7503,-2.7503,-2.7503,-2.7503,-2.7503,-2.7503,-2.7503,-2.7503,-2.7503,-2.7464,-2.7223,-2.6674,-2.619,-2.5537,-2.4779,-2.4282,-2.4151,-2.4184,-2.4205,-2.4351,-2.4404,-2.3644,-2.3208,-2.369,-2.3384,-2.3133,-2.3208,-2.3627,-2.4017,-2.4343,-2.4675,-2.4926,-2.5146,-2.5096,-2.5209,-2.5548,-2.582,-2.5837,-2.6198,-2.6169,-2.6076,-2.5861,-2.5706,-2.5562,-2.5813,-2.6155,-2.6505,-2.7124,-2.6876,-2.6791,-2.6608,-2.6517,-2.6308,-2.6641,-2.7163,-2.7333,-2.7079,-2.704,-2.704,-2.7079,-2.7027,-2.6987,-2.704,-2.7628,-2.8119,-2.7511,-2.6928,-2.648,-2.5968,-2.5972,-2.6262,-3.1146,-3.1192,-3.0463,-2.9258,-2.7898,-2.682,-2.6533,-2.7224,-2.7762,-2.8117,-2.8274,-2.8137,-2.8,-2.7656,-2.7603,-2.757,-2.7503,-2.7503,-2.7425,-2.7425,-2.751,-2.7565,-2.7637,-2.765,-2.769,-2.7947,-2.7875,-2.7901,-2.8087,-2.8378,-2.8372,-2.8226,-2.8478,-2.8026,-2.7859,-2.7889,-2.7568,-2.7529,-2.7503,-2.7503,-2.7503,-2.7503,-2.7503,-2.7503,-2.7503,-2.7503,-2.7503,-2.7503,-2.7503,-2.7503,-2.7503,-2.7503,-2.7503,-2.7503,-2.7236,-2.6634,-2.6438,-2.5733,-2.4896,-2.44,-2.4148,-2.4063,-2.3939,-2.3846,-2.3788,-2.343,-2.3201,-2.3321,-2.3321,-2.3296,-2.3371,-2.3622,-2.4268,-2.4732,-2.5146,-2.5498,-2.5661,-2.5636,-2.5787,-2.6172,-2.6273,-2.6244,-2.6316,-2.6392,-2.6101,-2.5873,-2.5932,-2.5819,-2.611,-2.6414,-2.6446,-2.6608,-2.6229,-2.5955,-2.5628,-2.5811,-2.6674,-2.7066,-2.7432,-2.7549,-2.7471,-2.7464,-2.7372,-2.7275,-2.7118,-2.7027,-2.7,-2.7458,-2.7589,-2.7059,-2.662,-2.6474,-2.6484,-2.6536,-2.6788,-3.0813,-3.0947,-3.0372,-2.9529,-2.8477,-2.748,-2.7092,-2.7254,-2.7782,-2.8045,-2.8052,-2.8066,-2.7881,-2.7603,-2.7503,-2.7503,-2.7438,-2.7131,-2.7046,-2.6857,-2.6745,-2.6594,-2.6698,-2.6967,-2.7085,-2.7341,-2.7386,-2.7771,-2.8255,-2.8075,-2.8148,-2.8249,-2.852,-2.9009,-2.8882,-2.8268,-2.7863,-2.7542,-2.7503,-2.7503,-2.7503,-2.7503,-2.7503,-2.7503,-2.7503,-2.7503,-2.7503,-2.7503,-2.7503,-2.7503,-2.7503,-2.7503,-2.7503,-2.7503,-2.7092,-2.6399,-2.6282,-2.5654,-2.487,-2.4517,-2.4475,-2.4018,-2.3861,-2.3671,-2.3463,-2.3343,-2.3467,-2.3558,-2.3665,-2.3746,-2.418,-2.4393,-2.472,-2.5159,-2.5607,-2.5984,-2.6156,-2.6152,-2.619,-2.6451,-2.651,-2.6485,-2.6603,-2.6701,-2.6333,-2.5957,-2.6016,-2.6109,-2.6369,-2.6394,-2.6302,-2.6099,-2.5733,-2.589,-2.5641,-2.6386,-2.7275,-2.7445,-2.7589,-2.7641,-2.7615,-2.7529,-2.7425,-2.7327,-2.7236,-2.7157,-2.717,-2.7314,-2.7262,-2.7053,-2.6948,-2.6842,-2.6932,-2.6974,-2.7453,-3.0342,-3.0259,-3.0069,-2.9493,-2.869,-2.7957,-2.7491,-2.7408,-2.7808,-2.7973,-2.7914,-2.7769,-2.7669,-2.749,-2.7289,-2.7222,-2.7178,-2.7051,-2.6654,-2.6388,-2.6162,-2.5927,-2.6076,-2.644,-2.7007,-2.7105,-2.7327,-2.7798,-2.8337,-2.7785,-2.7949,-2.8355,-2.8813,-2.9118,-2.9144,-2.8856,-2.8098,-2.7633,-2.7503,-2.7503,-2.7503,-2.7503,-2.7503,-2.7503,-2.7503,-2.7503,-2.7503,-2.7503,-2.7503,-2.7503,-2.7503,-2.7503,-2.7503,-2.7372,-2.6987,-2.6438,-2.5942,-2.5497,-2.4805,-2.4439,-2.4514,-2.406,-2.392,-2.3772,-2.3624,-2.365,-2.3915,-2.4095,-2.4267,-2.4551,-2.4962,-2.505,-2.5259,-2.5696,-2.5971,-2.6312,-2.654,-2.6599,-2.6591,-2.6692,-2.6701,-2.6744,-2.6824,-2.693,-2.6824,-2.644,-2.6282,-2.6291,-2.6304,-2.6205,-2.5832,-2.5602,-2.5275,-2.5589,-2.6012,-2.636,-2.6726,-2.7157,-2.7327,-2.7615,-2.7628,-2.7542,-2.7503,-2.7425,-2.7333,-2.7288,-2.7314,-2.7392,-2.7392,-2.734,-2.7026,-2.6534,-2.686,-2.6982,-2.7994,-2.9415,-2.9025,-2.9448,-2.8922,-2.7927,-2.7953,-2.7464,-2.6824,-2.7583,-2.7835,-2.7469,-2.7053,-2.7053,-2.7188,-2.6871,-2.6714,-2.6778,-2.7013,-2.6596,-2.5711,-2.6071,-2.6168,-2.6174,-2.6401,-2.7033,-2.7949,-2.7889,-2.779,-2.836,-2.7798,-2.7902,-2.8229,-2.8538,-2.8603,-2.8499,-2.8446,-2.8072,-2.7581,-2.749,-2.7333,-2.749,-2.7438,-2.7359,-2.7503,-2.7503,-2.7503,-2.7503,-2.7503,-2.7503,-2.7503,-2.7503,-2.7503,-2.7503,-2.7411,-2.7066,-2.6543,-2.6452,-2.5947,-2.5044,-2.4465,-2.4174,-2.408,-2.3979,-2.3878,-2.3935,-2.4133,-2.4397,-2.4509,-2.477,-2.5116,-2.539,-2.5593,-2.5848,-2.6065,-2.6295,-2.646,-2.6642,-2.6888,-2.6854,-2.6854,-2.6956,-2.7011,-2.7066,-2.7134,-2.7235,-2.7022,-2.666,-2.6499,-2.6374,-2.6067,-2.5636,-2.5184,-2.4909,-2.5315,-2.5694,-2.5863,-2.619,-2.6674,-2.7118,-2.7471,-2.7581,-2.7529,-2.7503,-2.7503,-2.7438,-2.7353,-2.7346,-2.7398,-2.7157,-2.6791,-2.6321,-2.6057,-2.6454,-2.7161,-2.8226,-2.8526,-2.794,-2.8236,-2.8127,-2.7837,-2.8239,-2.7776,-2.7007,-2.739,-2.7423,-2.7019,-2.676,-2.6543,-2.6427,-2.6311,-2.6173,-2.6205,-2.6173,-2.5682,-2.5231,-2.578,-2.5679,-2.5691,-2.6181,-2.6889,-2.721,-2.734,-2.7756,-2.836,-2.7764,-2.7902,-2.8276,-2.8328,-2.842,-2.8302,-2.8085,-2.7667,-2.7359,-2.6929,-2.6654,-2.7346,-2.7223,-2.717,-2.7477,-2.7503,-2.7503,-2.7503,-2.7503,-2.7503,-2.7503,-2.7503,-2.7477,-2.7372,-2.7242,-2.6726,-2.6151,-2.5863,-2.521,-2.4583,-2.4148,-2.4138,-2.4109,-2.4067,-2.3979,-2.3942,-2.4003,-2.4378,-2.4805,-2.4959,-2.5416,-2.6164,-2.6049,-2.6151,-2.6202,-2.634,-2.6437,-2.6598,-2.6841,-2.699,-2.7024,-2.7058,-2.7214,-2.7302,-2.7263,-2.733,-2.7272,-2.6921,-2.644,-2.625,-2.5936,-2.5545,-2.4949,-2.4674,-2.5066,-2.5432,-2.5903,-2.6406,-2.702,-2.7281,-2.7438,-2.7516,-2.7503,-2.7503,-2.7503,-2.7451,-2.7398,-2.7255,-2.7066,-2.653,-2.6086,-2.6216,-2.6588,-2.7197,-2.7867,-2.8637,-2.8023,-2.7263,-2.7445,-2.7323,-2.7218,-2.802,-2.7945,-2.7297,-2.7224,-2.6918,-2.6474,-2.6233,-2.6082,-2.5861,-2.5674,-2.5569,-2.5603,-2.5782,-2.509,-2.4735,-2.5239,-2.5262,-2.5449,-2.5835,-2.6631,-2.6933,-2.718,-2.7574,-2.832,-2.7764,-2.7712,-2.7954,-2.8098,-2.8033,-2.7981,-2.7876,-2.7628,-2.7301,-2.6791,-2.6889,-2.7255,-2.7288,-2.7163,-2.7398,-2.7503,-2.7503,-2.7503,-2.7503,-2.7503,-2.7503,-2.7477,-2.7385,-2.7196,-2.6857,-2.6282,-2.5654,-2.521,-2.4809,-2.4557,-2.4478,-2.4491,-2.4478,-2.4256,-2.4067,-2.4044,-2.4281,-2.4598,-2.4939,-2.5027,-2.5749,-2.651,-2.6335,-2.6521,-2.6585,-2.665,-2.674,-2.6799,-2.709,-2.718,-2.7214,-2.7248,-2.7369,-2.7456,-2.7417,-2.7378,-2.7294,-2.717,-2.6687,-2.6229,-2.595,-2.5649,-2.5132,-2.4936,-2.5445,-2.589,-2.6295,-2.6844,-2.7398,-2.7503,-2.7503,-2.7503,-2.7503,-2.7503,-2.7503,-2.7464,-2.7346,-2.704,-2.6713,-2.6621,-2.6817,-2.7183,-2.7575,-2.8072,-2.8352,-2.8647,-2.7834,-2.6995,-2.7074,-2.6566,-2.6014,-2.7376,-2.7776,-2.7472,-2.6895,-2.6358,-2.5861,-2.5335,-2.53,-2.5616,-2.5229,-2.4981,-2.5075,-2.5556,-2.4859,-2.4318,-2.4886,-2.5019,-2.5188,-2.54,-2.6354,-2.7199,-2.7434,-2.7225,-2.8113,-2.7446,-2.7261,-2.7455,-2.7512,-2.7514,-2.76,-2.7771,-2.7589,-2.721,-2.687,-2.7033,-2.7333,-2.7242,-2.7229,-2.7359,-2.7398,-2.7411,-2.7438,-2.7503,-2.7503,-2.7477,-2.7425,-2.7157,-2.687,-2.6667,-2.5934,-2.5319,-2.4953,-2.4848,-2.4887,-2.4848,-2.4848,-2.473,-2.436,-2.4191,-2.4174,-2.4409,-2.4693,-2.5123,-2.5405,-2.6067,-2.6615,-2.6863,-2.7076,-2.7141,-2.7206,-2.7239,-2.7267,-2.7358,-2.741,-2.7436,-2.7436,-2.749,-2.7464,-2.7425,-2.7249,-2.7249,-2.7131,-2.7,-2.6582,-2.6308,-2.5981,-2.5563,-2.555,-2.6007,-2.6399,-2.6687,-2.7,-2.7477,-2.749,-2.7503,-2.7503,-2.7503,-2.7503,-2.7503,-2.7503,-2.7372,-2.7196,-2.717,-2.7163,-2.7432,-2.7392,-2.7575,-2.7732,-2.7758,-2.8022,-2.7344,-2.6472,-2.6192,-2.5958,-2.5973,-2.6742,-2.6841,-2.6375,-2.6188,-2.5826,-2.5229,-2.5087,-2.4921,-2.4683,-2.4503,-2.4467,-2.4635,-2.4826,-2.4672,-2.4614,-2.4894,-2.5152,-2.5395,-2.565,-2.6371,-2.6584,-2.669,-2.67,-2.6684,-2.6449,-2.6735,-2.6863,-2.71,-2.7041,-2.7215,-2.7497,-2.7432,-2.7236,-2.6824,-2.7007,-2.7111,-2.6915,-2.7046,-2.7255,-2.721,-2.7262,-2.7425,-2.749,-2.7503,-2.749,-2.7131,-2.6824,-2.6771,-2.5973,-2.507,-2.4517,-2.44,-2.4478,-2.4792,-2.4596,-2.4586,-2.4835,-2.4465,-2.4191,-2.4178,-2.4374,-2.4678,-2.511,-2.5581,-2.6117,-2.6614,-2.6929,-2.7117,-2.7163,-2.7254,-2.7365,-2.7359,-2.7385,-2.7438,-2.7346,-2.7346,-2.7333,-2.732,-2.7144,-2.6961,-2.704,-2.7053,-2.6948,-2.6896,-2.6608,-2.6438,-2.6033,-2.6112,-2.6543,-2.6726,-2.6987,-2.7236,-2.7464,-2.7477,-2.7503,-2.7503,-2.7503,-2.7503,-2.7503,-2.7503,-2.7503,-2.7451,-2.7411,-2.7268,-2.7013,-2.6961,-2.7183,-2.7379,-2.7451,-2.7516,-2.6868,-2.6361,-2.5728,-2.5399,-2.5273,-2.5576,-2.5505,-2.53,-2.5441,-2.5229,-2.4743,-2.4659,-2.4503,-2.4298,-2.4225,-2.4225,-2.4273,-2.4514,-2.4443,-2.4504,-2.4957,-2.524,-2.5546,-2.5652,-2.6047,-2.622,-2.6427,-2.6508,-2.6346,-2.653,-2.6803,-2.7019,-2.7032,-2.6994,-2.7163,-2.7432,-2.749,-2.7268,-2.7046,-2.7007,-2.6902,-2.6798,-2.7098,-2.7216,-2.7092,-2.7216,-2.7425,-2.749,-2.7503,-2.7425,-2.6974,-2.6719,-2.6601,-2.5811,-2.5123,-2.4713,-2.4844,-2.487,-2.4949,-2.4726,-2.4769,-2.4822,-2.4704,-2.4586,-2.4491,-2.4622,-2.4796,-2.5057,-2.5515,-2.5986,-2.647,-2.6889,-2.6961,-2.7053,-2.7177,-2.7333,-2.7346,-2.7372,-2.7281,-2.7196,-2.7157,-2.7131,-2.7013,-2.6811,-2.6732,-2.6831,-2.6791,-2.6634,-2.6752,-2.6831,-2.6785,-2.6654,-2.6791,-2.7053,-2.717,-2.7223,-2.7346,-2.7477,-2.749,-2.7503,-2.7503,-2.7503,-2.7503,-2.7503,-2.7503,-2.7503,-2.7503,-2.732,-2.7163,-2.6974,-2.6948,-2.7223,-2.7411,-2.7464,-2.7503,-2.6361,-2.6377,-2.5583,-2.4846,-2.4271,-2.4296,-2.4284,-2.4261,-2.4743,-2.4671,-2.4298,-2.4225,-2.4261,-2.4189,-2.4189,-2.4189,-2.42,-2.4298,-2.4334,-2.4189,-2.437,-2.479,-2.517,-2.4993,-2.5652,-2.6414,-2.6667,-2.6311,-2.7007,-2.7007,-2.6871,-2.7436,-2.7335,-2.7278,-2.7365,-2.7438,-2.7503,-2.7425,-2.7359,-2.7359,-2.7372,-2.7411,-2.7451,-2.7451,-2.7398,-2.7398,-2.7464,-2.7503,-2.7503,-2.732,-2.7066,-2.6745,-2.6347,-2.6073,-2.5484,-2.5236,-2.5275,-2.5262,-2.5132,-2.4979,-2.4988,-2.507,-2.507,-2.507,-2.504,-2.504,-2.5201,-2.5371,-2.5829,-2.6209,-2.6667,-2.7066,-2.7262,-2.7255,-2.7346,-2.7425,-2.7425,-2.7385,-2.7275,-2.717,-2.7131,-2.7066,-2.6634,-2.6438,-2.6706,-2.6758,-2.6674,-2.6491,-2.6726,-2.6968,-2.6968,-2.7085,-2.7177,-2.7288,-2.7333,-2.7385,-2.7425,-2.7503,-2.7503,-2.7503,-2.7503,-2.7503,-2.7503,-2.7503,-2.7503,-2.7503,-2.7464,-2.7346,-2.7307,-2.732,-2.732,-2.7425,-2.7503,-2.7503,-2.7503,-2.5693,-2.5534,-2.4775,-2.434,-2.4189,-2.4189,-2.4189,-2.4189,-2.4334,-2.4334,-2.4236,-2.4189,-2.4189,-2.4189,-2.4189,-2.4189,-2.4189,-2.4189,-2.4189,-2.4225,-2.4225,-2.4599,-2.5158,-2.4981,-2.5476,-2.5861,-2.607,-2.6173,-2.6564,-2.6564,-2.6564,-2.6884,-2.6998,-2.7188,-2.749,-2.7503,-2.7436,-2.7403,-2.7403,-2.7403,-2.741,-2.715,-2.7013,-2.721,-2.7301,-2.7275,-2.7333,-2.7503,-2.7503,-2.7398,-2.6961,-2.6517,-2.6046,-2.5884,-2.5754,-2.5628,-2.5458,-2.5471,-2.5432,-2.5306,-2.5236,-2.5497,-2.5602,-2.5615,-2.5615,-2.5615,-2.5707,-2.589,-2.6138,-2.6536,-2.6863,-2.7236,-2.7503,-2.7503,-2.7503,-2.7503,-2.7503,-2.7372,-2.7262,-2.717,-2.7131,-2.6817,-2.6386,-2.636,-2.6614,-2.6719,-2.6719,-2.6726,-2.7079,-2.7294,-2.7079,-2.7157,-2.7307,-2.7398,-2.7477,-2.7503,-2.7503,-2.7503,-2.7503,-2.7503,-2.7503,-2.7503,-2.7503,-2.7503,-2.7503,-2.7503,-2.7503,-2.7477,-2.7464,-2.7503,-2.7503,-2.7503,-2.7503,-2.7503,-2.7503,-2.5084,-2.5175,-2.4528,-2.4189,-2.4189,-2.4189,-2.4189,-2.4189,-2.4189,-2.4189,-2.4189,-2.4189,-2.4189,-2.4189,-2.4189,-2.4189,-2.4189,-2.4189,-2.4189,-2.4225,-2.4467,-2.4695,-2.4898,-2.504,-2.5687,-2.6035,-2.6483,-2.6701,-2.6496,-2.6701,-2.6939,-2.7019,-2.7066,-2.7167,-2.7469,-2.7323,-2.7154,-2.7121,-2.7154,-2.7188,-2.7222,-2.7109,-2.7124,-2.734,-2.7294,-2.7255,-2.732,-2.7503,-2.7503,-2.7464,-2.721,-2.6817,-2.6543,-2.6556,-2.6465,-2.6229,-2.5994,-2.5759,-2.572,-2.5628,-2.5511,-2.5785,-2.6164,-2.6177,-2.6295,-2.6321,-2.6399,-2.6582,-2.6817,-2.7144,-2.717,-2.7438,-2.749,-2.7503,-2.7503,-2.7503,-2.7503,-2.7451,-2.7196,-2.6883,-2.6857,-2.6804,-2.6523,-2.6536,-2.6784,-2.7131,-2.7066,-2.7027,-2.7333,-2.7503,-2.7301,-2.721,-2.7359,-2.7451,-2.749,-2.7503,-2.7503,-2.7503,-2.7503,-2.7503,-2.7503,-2.7503,-2.7503,-2.7503,-2.7503,-2.7503,-2.7503,-2.7503,-2.7503,-2.7503,-2.7503,-2.7503,-2.7503,-2.7503,-2.7503,-2.4574,-2.5034,-2.4445,-2.4189,-2.4189,-2.4189,-2.4189,-2.4189,-2.4189,-2.4189,-2.4189,-2.4189,-2.4189,-2.4189,-2.4189,-2.4189,-2.4189,-2.4189,-2.4189,-2.4334,-2.4743,-2.5016,-2.5111,-2.5146,-2.5581,-2.6186,-2.6769,-2.7019,-2.7087,-2.7222,-2.7323,-2.7469,-2.7503,-2.7469,-2.7255,-2.6985,-2.676,-2.6679,-2.6679,-2.676,-2.693,-2.7201,-2.741,-2.7477,-2.7503,-2.7503,-2.7503,-2.7503,-2.7503,-2.7477,-2.7425,-2.715,-2.704,-2.7066,-2.7027,-2.6831,-2.6575,-2.6295,-2.6112,-2.5994,-2.5955,-2.6099,-2.6549,-2.6811,-2.6883,-2.6948,-2.704,-2.7157,-2.7359,-2.7438,-2.7451,-2.7464,-2.749,-2.7503,-2.7503,-2.7503,-2.7503,-2.749,-2.717,-2.6811,-2.6798,-2.6798,-2.6641,-2.6641,-2.6961,-2.7353,-2.7477,-2.749,-2.7503,-2.7503,-2.7398,-2.7333,-2.7425,-2.749,-2.7503,-2.7503,-2.7503,-2.7503,-2.7503,-2.7503,-2.7503,-2.7503,-2.7503,-2.7503,-2.7503,-2.7503,-2.7503,-2.7503,-2.7503,-2.7503,-2.7503,-2.7503,-2.7503,-2.7503,-2.7503,-2.4282,-2.4399,-2.4235,-2.4189,-2.4189,-2.4189,-2.4189,-2.4189,-2.4189,-2.4189,-2.4189,-2.4189,-2.4189,-2.4189,-2.4189,-2.4189,-2.4189,-2.4189,-2.4189,-2.4298,-2.4886,-2.53,-2.5464,-2.537,-2.5229,-2.5791,-2.653,-2.6816,-2.7188,-2.7403,-2.7503,-2.7503,-2.7503,-2.7302,-2.6897,-2.6658,-2.6543,-2.6393,-2.6543,-2.6692,-2.6863,-2.7134,-2.7436,-2.7503,-2.7503,-2.7503,-2.7503,-2.7503,-2.7503,-2.7503,-2.749,-2.7398,-2.7359,-2.7372,-2.7333,-2.7249,-2.6974,-2.6798,-2.6543,-2.6504,-2.6517,-2.6556,-2.6948,-2.7236,-2.7268,-2.7281,-2.7333,-2.7333,-2.7477,-2.7477,-2.749,-2.749,-2.7503,-2.7503,-2.7503,-2.7503,-2.7503,-2.7438,-2.7288,-2.7131,-2.7092,-2.6791,-2.6334,-2.6569,-2.7079,-2.7333,-2.7411,-2.7425,-2.749,-2.7503,-2.7503,-2.7503,-2.7503,-2.7503,-2.7503,-2.7503,-2.7503,-2.7503,-2.7503,-2.7503,-2.7503,-2.7503,-2.7503,-2.7503,-2.7503,-2.7503,-2.7503,-2.7503,-2.7503,-2.7503,-2.7503,-2.7503,-2.7503,-2.7469,-2.7469]},{"header":{"parameterUnit":"m.s-1","parameterCategory":1,"la1":31.0,"la2":29.5877,"lo1":-88.7671,"lo2":-86.6584,"dy":0.0162,"dx":0.0185,"nx":115,"ny":88,"refTime":"2024-05-05T12:00:00:Z","depth":0,"parameterNumber":3,"parameterNumberName":"V-component_of_WINDS"},"data":[0.0,0.0,0.0,0.0,0.0,0.0,0.0,0.0,0.0,0.0,0.0,0.0,0.0,0.0,0.0,0.0,0.0,0.0,0.0,0.0,0.0,0.0,0.0,0.0,0.0,0.0,0.0,0.0,0.0,0.0,0.0,0.0,0.0,0.0,0.0,0.0,0.0,0.0,0.0,0.0,0.0,0.0,0.0,0.0,0.0,0.0,0.0,0.0,0.0,0.0,0.0,0.0,0.0,0.0,0.0,0.0,0.0,0.0,0.0,0.0,0.0,0.0,0.0,0.0,0.0,0.0,0.0,0.0,0.0,0.0,0.0,0.0,0.0,0.0,0.0,0.0,0.0,0.0,0.0,0.0,0.0,0.0,0.0,0.0,0.0,0.0,0.0,0.0,0.0,0.0,0.0,0.0,0.0,0.0,0.0,0.0,0.0,0.0,0.0,0.0,0.0,0.0,0.0,0.0,0.0,0.0,0.0,0.0,0.0,0.0,0.0,0.0,0.0,0.0,0.0,0.0,0.0,0.0,0.0,0.0,0.0,0.0,0.0,0.0,0.0,0.0,0.0,0.0,0.0,0.0,0.0,0.0,0.0,0.0,0.0,0.0,0.0,0.0,0.0,0.0,0.0,0.0,0.0,0.0,0.0,0.0,0.0,0.0,0.0,0.0,0.0,0.0,0.0,0.0,0.0,0.0,0.0,0.0,0.0,0.0,0.0,0.0,0.0,0.0,0.0,0.0,0.0,0.0,0.0,0.0,0.0,0.0,0.0,0.0,0.0,0.0,0.0,0.0,0.0,0.0,0.0,0.0,0.0,0.0,0.0,0.0,0.0,0.0,0.0,0.0,0.0,0.0,0.0,0.0,0.0,0.0,0.0,0.0,0.0,0.0,0.0,0.0,0.0,0.0,0.0,0.0,0.0,0.0,0.0,0.0,0.0,0.0,0.0,0.0,0.0,0.0,0.0,0.0,0.0,0.0,0.0,0.0,0.0,0.0,0.0,0.0,0.0,0.0,0.0,0.0,0.0,0.0,0.0,0.0,0.0,0.0,0.0,0.0,0.0,0.0,0.0,0.0,0.0,0.0,0.0,0.0,0.0,0.0,0.0,0.0,0.0,0.0,0.0,0.0,0.0,0.0,0.0,0.0,0.0,0.0,0.0,0.0,0.0,0.0,0.0,0.0,0.0,0.0,0.0,0.0,0.0,0.0,0.0,0.0,0.0,0.0,0.0,0.0,0.0,0.0,0.0,0.0,0.0,0.0,0.0,0.0,0.0,0.0,0.0,0.0,0.0,0.0,0.0,0.0,0.0,0.0,0.0,0.0,0.0,0.0,0.0,0.0,0.0,0.0,0.0,0.0,0.0,0.0,0.0,0.0,0.0,0.0,0.0,0.0,0.0,0.0,0.0,0.0,0.0,0.0,0.0,0.0,0.0,0.0,0.0,0.0,0.0,0.0,0.0,0.0,0.0,0.0,0.0,0.0,0.0,0.0,0.0,0.0,0.0,0.0,0.0,0.0,0.0,0.0,0.0,0.0,0.0,0.0,0.0,0.0,0.0,0.0,0.0,0.0,0.0,0.0,0.0,0.0,0.0,0.0,0.0,0.0,0.0,0.0,0.0,0.0,0.0,0.0,0.0,0.0,0.0,0.0,0.0,0.0,0.0,0.0,0.0,0.0,0.0,0.0,0.0,0.0,0.0,0.0,0.0,0.0,0.0,0.0,0.0,0.0,0.0,0.0,0.0,0.0,0.0,0.0,0.0,0.0,0.0,0.0,0.0,0.0,0.0,0.0,0.0,0.0,0.0,0.0,0.0,0.0,0.0,0.0,0.0,0.0,0.0,0.0,0.0,0.0,0.0,0.0,0.0,0.0,0.0,0.0,0.0,0.0,0.0,0.0,0.0,0.0,0.0,0.0,0.0,0.0,0.0,0.0,0.0,0.0,0.0,0.0,0.0,0.0,0.0,0.0,0.0,0.0,0.0,0.0,0.0,0.0,0.0,0.0,0.0,0.0,0.0,0.0,0.0,0.0,0.0,0.0,0.0,0.0,0.0,0.0,0.0,0.0,0.0,0.0,0.0,0.0,0.0,0.0,0.0,0.0,0.0,0.0,0.0,0.0,0.0,0.0,0.0,0.0,0.0,0.0,0.0,0.0,0.0,0.0,0.0,0.0,0.0,0.0,0.0,0.0,0.0,0.0,0.0,0.0,0.0,0.0,0.0,0.0,0.0,0.0,0.0,0.0,0.0,0.0,0.0,0.0,0.0,0.0,0.0,0.0,0.0,0.0,0.0,0.0,0.0,0.0,0.0,0.0,0.0,0.0,0.0,0.0,0.0,0.0,0.0,0.0,0.0,0.0,0.0,0.0,0.0,0.0,0.0,0.0,0.0,0.0,0.0,0.0,0.0,0.0,0.0,0.0,0.0,0.0,0.0,0.0,0.0,0.0,0.0,0.0,0.0,0.0,0.0,0.0,0.0,0.0,0.0,0.0,0.0,0.0,0.0,0.0,0.0,0.0,0.0,0.0,0.0,0.0,0.0,0.0,0.0,0.0,0.0,0.0,0.0,0.0,0.0,0.0,0.0,0.0,0.0,0.0,0.0,0.0,0.0,0.0,0.0,0.0,0.0,0.0,0.0,0.0,0.0,0.0,0.0,0.0,0.0,0.0,0.0,0.0,0.0,0.0,0.0,0.0,0.0,0.0,0.0,0.0,0.0,0.0,0.0,0.0,0.0,0.0,0.0,0.0,0.0,0.0,0.0,0.0,0.0,0.0,0.0,0.0,0.0,0.0,0.0,0.0,0.0,0.0,0.0,0.0,0.0,0.0,0.0,0.0,0.0,0.0,0.0,0.0,0.0,0.0,0.0,0.0,0.0,0.0,0.0,0.0,0.0,0.0,0.0,0.0,0.0,0.0,0.0,0.0,0.0,0.0,0.0,0.0,0.0,0.0,0.0,0.0,0.0,0.0,0.0,0.0,0.0,0.0,0.0,0.0,0.0,0.0,0.0,0.0,0.0,0.0,0.0,0.0,0.0,0.0,0.0,0.0,0.0,0.0,0.0,0.0,0.0,0.0,0.0,0.0,0.0,0.0,0.0,0.0,0.0,0.0,0.0,0.0,0.0,0.0,0.0,0.0,0.0,0.0,0.0,0.0,0.0,0.0,0.0,0.0,0.0,0.0,0.0,0.0,0.0,0.0,0.0,0.0,0.0,0.0,0.0,0.0,0.0,0.0,0.0,0.0,0.0,0.0,0.0,0.0,0.0,0.0,0.0,0.0,0.0,0.0,0.0,0.0,0.0,0.0,0.0,0.0,0.0,0.0,0.0,0.0,0.0,0.0,0.0,0.0,0.0,0.0,0.0,0.0,0.0,0.0,0.0,0.0,0.0,0.0,0.0,0.0,0.0,0.0,0.0,0.0,0.0,0.0,0.0,0.0,0.0,0.0,0.0,0.0,0.0,0.0,0.0,0.0,0.0,0.0,0.0,0.0,0.0,0.0,0.0,0.0,0.0,0.0,0.0,0.0,0.0,0.0,0.0,0.0,0.0,0.0,0.0,0.0,0.0,0.0,0.0,0.0,0.0,0.0,0.0,0.0,0.0,0.0,0.0,0.0,0.0,0.0,0.0,0.0,0.0,0.0,0.0,0.0,0.0,0.0,0.0,0.0,0.0,0.0,0.0,0.0,0.0,0.0,0.0,0.0,0.0,0.0,0.0,0.0,0.0,0.0,0.0,0.0,0.0,0.0,0.0,0.0,0.0,0.0,0.0,0.0,0.0,0.0,0.0,0.0,0.0,0.0,0.0,0.0,0.0,0.0,0.0,0.0,0.0,0.0,0.0,0.0,0.0,0.0,0.0,0.0,0.0,0.0,0.0,0.0,0.0,0.0,0.0,0.0,0.0,0.0,0.0,0.0,0.0,0.0,0.0,0.0,0.0,0.0,0.0,0.0,0.0,0.0,0.0,0.0,0.0,0.0,0.0,0.0,0.0,0.0,0.0,0.0,0.0,0.0,0.0,0.0,0.0,0.0,0.0,0.0,0.0,0.0,0.0,0.0,0.0,0.0,0.0,0.0,0.0,0.0,0.0,0.0,0.0,0.0,0.0,0.0,0.0,0.0,0.0,0.0,0.0,0.0,0.0,0.0,0.0,0.0,0.0,0.0,0.0,0.0,0.0,0.0,0.0,0.0,0.0,0.0,0.0,0.0,0.0,0.0,0.0,0.0,0.0,0.0,0.0,0.0,0.0,0.0,0.0,0.0,0.0,0.0,0.0,0.0,-0.0057,0.0,0.0,0.0,0.0,0.0,0.0,0.0,0.0,0.0,0.0,0.0,0.0,0.0,0.0,0.0,0.0,0.0,0.0,0.0,0.0,0.0,0.0,0.0,0.0,0.0,0.0,0.0,0.0,0.0,0.0,0.0,0.0,0.0,0.0,0.0,0.0,0.0,0.0,0.0,0.0,0.0,0.0,0.0,0.0,0.0,0.0,0.0,0.0,0.0,0.0,0.0,0.0,0.0,0.0,0.0,0.0,0.0,0.0,0.0,0.0,0.0,0.0,0.0,0.0,0.0,0.0,0.0,0.0,0.0,0.0,0.0,0.0,0.0,0.0,0.0,0.0,0.0,0.0,0.0,0.0,0.0,0.0,0.0,0.0,0.0,0.0,0.0,0.0,0.0,0.0,0.0,0.0,0.0,0.0,0.0,0.0,0.0,0.0,0.0,0.0,0.0,0.0,0.0,0.0,0.0,0.0,0.0,0.0,0.0,0.0,0.3066,0.115,0.0064,-0.0316,-0.0059,0.0,0.0,0.0,0.0,0.0,0.0,0.0,0.0,0.0,0.0,0.0,0.0,0.0,0.0,0.0,0.0,0.0,0.0,0.0,0.0,0.0,0.0,0.0,0.0,0.0,0.0,0.0,0.0,0.0,0.0,0.0,0.0,0.0,0.0,0.0,0.0,0.0,0.0,0.0,0.0,0.0,0.0,0.0,0.0,0.0,0.0,0.0,0.0,0.0,0.0,0.0,0.0,0.0,0.0,0.0,0.0,0.0,0.0,0.0,0.0,0.0,0.0,0.0,0.0,0.0,0.0,0.0,0.0,0.0,0.0,0.0,0.0,0.0,0.0,0.0,0.0,0.0,0.0,0.0,0.0,0.0,0.0,0.0,0.0,0.0,0.0,0.0,0.0,0.0,0.0,0.0,0.0,0.0,0.0,0.0,0.0,0.0,0.0,0.0,0.0,0.0,0.0,0.0,0.0,0.0,0.0,0.0,0.0,0.0,0.0,0.0,0.0,-0.0065,-0.1234,-0.1214,0.0,0.0,0.0,0.0,0.0,0.0,0.0,0.0,0.0,0.0,0.0,0.0,0.0,0.0,0.0,0.0,0.0,0.0,0.0,0.0,0.0,0.0,0.0,0.0,0.0,0.0,0.0,0.0,0.0,0.0,0.0,0.0,0.0,0.0,0.0,0.0,0.0,0.0,0.0,0.0,0.0,0.0,0.0,0.0,0.0,0.0,0.0,0.0,0.0,0.0,0.0,0.0,0.0,0.0,0.0,0.0,0.0,0.0,0.0,0.0,0.0,0.0,0.0,0.0,0.0,0.0,0.0,0.0,0.0,0.0,0.0,0.0,0.0,0.0,0.0,0.0,0.0,0.0,0.0,0.0,0.0,0.0,0.0,0.0,0.0,0.0,0.0,0.0,0.0,0.0,0.0,0.0,0.0,0.0,0.0,0.0,0.0,0.0,0.0,0.0,0.0,0.0,0.0,0.0,0.0,0.0,0.0,0.0,0.0,0.0,0.3574,0.259,-0.132,0.0,-0.4794,0.0,0.0,0.0,0.0,0.0,0.0,0.0,0.0,0.0,0.0,0.0,0.0,0.0,0.0,0.0,0.0,0.0,0.0,0.0,0.0,0.0,0.0,0.0,0.0,0.0,0.0,0.0,0.0,0.0,0.0,0.0,0.0,0.0,0.0,0.0,0.0,0.0,0.0,0.0,0.0,0.0,0.0,0.0,0.0,0.0,0.0,0.0,0.0,0.0,0.0,0.0,0.0,0.0,0.0,0.0,0.0,0.0,0.0,0.0,0.0,0.0,0.0,0.0,0.0,0.0,0.0,0.0,0.0,0.0,0.0,0.0,0.0,0.0,0.0,0.0,0.0,0.0,0.0,0.0,0.0,0.0,0.0,0.0,0.0,0.0,0.0,0.0,0.0,0.0,0.0,0.0,0.0,0.0,0.0,0.0,0.0,0.0,0.0,0.0,0.0,0.0,0.0,0.0,0.0,0.0,0.0,0.0,0.0,0.0,0.0,0.3995,0.3377,-0.0523,-0.3417,0.0,0.0,0.0,0.0,0.0,0.0,0.0,0.0,0.0,0.0,0.0,0.0,0.0,0.0,0.0,0.0,0.0,0.0,0.0,0.0,0.0,0.0,0.0,0.0,0.0,0.0,0.0,0.0,0.0,0.0,0.0,0.0,0.0,0.0,0.0,0.0,0.0,0.0,0.0,0.0,0.0,0.0,0.0,0.0,0.0,0.0,0.0,0.0,0.0,0.0,0.0,0.0,0.0,0.0,0.0,0.0,0.0,0.0,0.0,0.0,0.0,0.0,0.0,0.0,0.0,0.0,0.0,0.0,0.0,0.0,0.0,0.0,0.0,0.0,0.0,0.0,0.0,0.0,0.0,0.0,0.0,0.0,0.0,0.0,0.0,0.0,0.0,0.0,0.0,0.0,0.0,0.0,0.0,0.0,0.0,0.0,0.0,0.0,0.0,0.0,0.0,0.0,0.0,0.0,0.0,0.0,0.0,0.0,0.0,0.0,0.6707,0.346,0.1264,-0.1253,-0.368,-0.5974,0.0,0.0,0.0,0.0,0.0,0.0,0.0,0.0,0.0,0.0,0.0,0.0,0.0,0.0,0.0,0.0,0.0,0.0,0.0,0.0,0.0,0.0,0.0,0.0,0.0,0.0,0.0,0.0,0.0,0.0,0.0,0.0,0.0,0.0,0.0,0.0,0.0,0.0,0.0,0.0,0.0,0.0,0.0,0.0,0.0,0.0,0.0,0.0,0.0,0.0,0.0,0.0,0.0,0.0,0.0,0.0,0.0,0.0,0.0,0.0,0.0,0.0,0.0,0.0,0.0,0.0,0.0,0.0,0.0,0.0,0.0,0.0,0.0,0.0,0.0,0.0,0.0,0.0,0.0,0.0,0.0,0.0,0.0,0.0,0.0,0.0,0.0,0.0,0.0,0.0,0.0,0.0,0.0,0.0,0.0,0.0,0.0,0.0,0.0,0.0,0.0,0.0,0.0,0.0,0.0,0.0,0.0,0.0,1.1432,0.6884,0.1363,-0.4783,-0.4814,-0.5846,0.0,0.0,0.0,0.0,0.0,0.0,0.0,0.0,0.0,0.0,0.0,0.0,0.0,0.0,0.0,0.0,0.0,0.0,0.0,0.0,0.0,0.0,0.0,0.0,0.0,0.0,0.0,0.0,0.0,0.0,0.0,0.0,0.0,0.0,0.0,0.0,0.0,0.0,0.0,0.0,0.0,0.0,0.0,0.0,0.0,0.0,0.0,0.0,0.0,0.0,0.0,0.0,0.0,0.0,0.0,0.0,0.0,0.0,0.0,0.0,0.0,0.0,0.0,0.0,0.0,0.0,0.0,0.0,0.0,0.0,0.0,0.0,0.0,0.0,0.0,0.0,0.0,0.0,0.0,0.0,0.0,0.0,0.0,0.0,0.0,0.0,0.0,0.0,0.0,0.0,0.0,0.0,0.0,0.0,0.0,0.0,0.0,0.0,0.0,0.0,0.0,0.0,0.0,0.0,0.0,0.0,0.0,0.0,0.0,1.0718,0.6376,0.0873,-0.5422,-0.4594,-0.5485,0.0,0.0,0.0,0.0,0.0,0.0,0.0,0.0,0.0,0.0,0.0,0.0,0.0,0.0,0.0,0.0,0.0,0.0,0.0,0.0,0.0,0.0,0.0,0.0,0.0,0.0,0.0,0.0,0.0,0.0,0.0,0.0,0.0,0.0,0.0,0.0,0.0,0.0,0.0,0.0,0.0,0.0,0.0,0.0,0.0,0.0,0.0,0.0,0.0,0.0,0.0,0.0,0.0,0.0,0.0,0.0,0.0,0.0,0.0,0.0,0.0,0.0,0.0,0.0,0.0,0.0,0.0,0.0,0.0,0.0,0.0,0.0,0.0,0.0,0.0,0.0,0.0,0.0,0.0,0.0,0.0,0.0,0.0,0.0,0.0,0.0,0.0,0.0,0.0,0.0,0.0,0.0,0.0,0.0,0.0,0.0,0.0,0.0,0.0,0.0,0.0,0.0,0.0,0.0,0.0,0.0,0.0,0.0,0.0,0.8441,0.0,0.1194,-0.4982,-0.4241,-0.5227,0.0,0.0,0.0,0.0,0.0,0.0,0.0,0.0,0.0,0.0,0.0,0.0,0.0,0.0,0.0,0.0,0.0,0.0,0.0,0.0,0.0,0.0,0.0,0.0,0.0,0.0,0.0,0.0,0.0,0.0,0.0,0.0,0.0,0.0,0.0,0.0,0.0,0.0,0.0,0.0,0.0,0.0,0.0,0.0,0.0,0.0,0.0,0.0,0.0,0.0,0.0,0.0,0.0,0.0,0.0,0.0,0.0,0.0,0.0,0.0,0.0,0.0,0.0,0.0,0.0,0.0,0.0,0.0,0.0,0.0,0.0,0.0,0.0,0.0,0.0,0.0,0.0,0.0,0.0,0.0,0.0,0.0,0.0,0.0,0.0,0.0,0.0,0.0,0.0,0.0,0.0,0.0,0.0,0.0,0.0,0.0,0.0,0.0,0.0,0.0,0.0,0.0,0.0,0.0,0.0,0.0,0.0,0.0,0.9594,0.4597,0.49,0.2139,-0.3783,-0.4102,-0.5088,0.0,0.0,0.0,0.0,0.0,0.0,0.0,0.0,0.0,0.0,0.0,0.0,0.0,0.0,0.0,0.0,0.0,0.0,0.0,0.0,0.0,0.0,0.0,0.0,0.0,0.0,0.0,0.0,0.0,0.0,0.0,0.0,0.0,0.0,0.0,0.0,0.0,0.0,0.0,0.0,0.0,0.0,0.0,0.0,0.0,0.0,0.0,0.0,0.0,0.0,0.0,0.0,0.0,0.0,0.0,0.0,0.0,0.0,0.0,0.0,0.0,0.0,0.0,0.0,0.0,0.0,0.0,0.0,0.0,0.0,0.0,0.0,0.0,0.0,0.0,0.0,0.0,0.0,0.0,0.0,0.0,0.0,0.0,0.0,0.0,0.0,0.0,0.0,0.0,0.0,0.0,0.0,0.0,0.0,0.0,0.0,0.0,0.0,0.0,0.0,0.0,0.0,0.0,0.0,0.0,0.0,0.0,0.0,0.0,0.4546,0.485,0.1809,-0.4843,-0.4152,-0.5184,0.0,0.0,0.0,0.0,0.0,0.0,0.0,0.0,0.0,0.0,0.0,0.0,0.0,0.0,0.0,0.0,0.0,0.0,0.0,0.0,0.0,0.0,0.0,0.0,0.0,0.0,0.0,0.0,0.0,0.0,0.0,0.0,0.0,0.0,0.0,0.0,0.0,0.0,0.0,0.0,0.0,0.0,0.0,0.0,0.0,0.0,0.0,0.0,0.0,0.0,0.0,0.0,0.0,0.0,0.0,0.0,0.0,0.0,0.0,0.0,0.0,0.0,0.0,0.0,0.0,0.0,0.0,0.0,0.0,0.0,0.0,0.0,0.0,0.0,0.0,0.0,0.0,0.0,0.0,0.0,0.0,0.0,0.0,0.0,0.0,0.0,0.0,0.0,0.0,0.0,0.0,0.0,0.0,0.0,0.0,0.0,0.0,0.0,0.0,0.0,0.0,0.0,0.0,0.0,0.0,0.0,0.0,0.0,0.0,0.5571,0.5214,0.2154,-0.4126,-0.3306,-0.4121,-0.683,0.0,0.0,0.0,0.0,0.0,0.0,0.0,0.0,0.0,0.0,0.0,0.0,0.0,0.0,0.0,0.0,0.0,0.0,0.0,0.0,0.0,0.0,0.0,0.0,0.0,0.0,0.0,0.0,0.0,0.0,0.0,0.0,0.0,0.0,0.0,0.0,0.0,0.0,0.0,0.0,0.0,0.0,0.0,0.0,0.0,0.0,0.0,0.0,0.0,0.0,0.0,0.0,0.0,0.0,0.0,0.0,0.0,0.0,0.0,0.0,0.0,0.0,0.0,0.0,0.0,0.0,0.0,0.0,0.0,0.0,0.0,0.0,0.0,0.0,0.0,0.0,0.0,0.0,0.0,0.0,0.0,0.0,0.0,0.0,0.0,0.0,0.0,0.0,0.0,0.0,0.0,0.0,0.0,0.0,0.0,0.0,0.0,0.0,0.0,0.0,0.0,0.0,0.0,0.0,0.0,0.0,0.0,0.0,0.7008,0.5859,0.3036,-0.159,-0.1784,-0.2307,0.0,0.0,0.0,0.0,0.0,0.0,0.0,0.0,0.0,0.0,0.0,0.0,0.0,0.0,0.0,0.0,0.0,0.0,0.0,0.0,0.0,0.0,0.0,0.0,0.0,0.0,0.0,0.0,0.0,0.0,0.0,0.0,0.0,0.0,0.0,0.0,0.0,0.0,0.0,0.0,0.0,0.0,0.0,0.0,0.0,0.0,0.0,0.0,0.0,0.0,0.0,0.0,0.0,0.0,0.0,0.0,0.0,0.0,0.0,0.0,0.0,0.0,0.0,0.0,0.0,0.0,0.0,0.0,0.0,0.0,0.0,0.0,0.0,0.0,0.0,0.0,0.0,0.0,0.0,0.0,0.0,0.0,0.0,0.0,0.0,0.0,0.0,0.0,0.0,0.0,0.0,0.0,0.0,0.0,0.0,0.0,0.0,0.0,0.0,0.0,0.0,0.0,0.0,0.0,0.0,0.0,0.0,0.0,0.0,0.7055,0.599,0.3461,-0.0579,-0.1427,-0.2592,0.0,0.0,0.0,0.0,0.0,0.0,0.0,0.0,0.0,0.0,0.0,0.0,0.0,0.0,0.0,0.0,0.0,0.0,0.0,0.0,0.0,0.0,0.0,0.0,0.0,0.0,0.0,0.0,0.0,0.0,0.0,0.0,0.0,0.0,0.0,0.0,0.0,0.0,0.0,0.0,0.0,0.0,0.0,0.0,0.0,0.0,0.0,0.0,0.0,0.0,0.0,0.0,0.0,0.0,0.0,0.0,0.0,0.0,0.0,0.0,0.0,0.0,0.0,0.0,0.0,0.0,0.0,0.0,0.0,0.0,0.0,0.0,0.0,0.0,0.0,0.0,0.0,0.0,0.0,0.0,0.0,0.0,0.0,0.0,0.0,0.0,0.0,0.0,0.0,0.0,0.0,0.0,0.0,0.0,0.0,0.0,0.0,0.0,0.0,0.0,0.0,0.0,0.0,0.0,0.0,0.0,0.0,0.0,0.9653,0.9318,0.7514,0.51,0.2054,0.0,-0.1519,0.0,0.0,0.0,0.0,0.0,0.0,0.0,0.0,0.0,0.0,0.0,0.0,0.0,0.0,0.0,0.0,0.0,0.0,0.0,0.0,0.0,0.0,0.0,0.0,0.0,0.0,0.0,0.0,0.0,0.0,0.0,0.0,0.0,0.0,0.0,0.0,0.0,0.0,0.0,0.0,0.0,0.0,0.0,0.0,0.0,0.0,0.0,0.0,0.0,0.0,0.0,0.0,0.0,0.0,0.0,0.0,0.0,0.0,0.0,0.0,0.0,0.0,0.0,0.0,0.0,0.0,0.0,0.0,0.0,0.0,0.0,0.0,0.0,0.0,0.0,0.0,0.0,0.0,0.0,0.0,0.0,0.0,0.0,0.0,0.0,0.0,0.0,0.0,0.0,0.0,0.0,0.0,0.0,0.0,0.0,0.0,0.0,0.0,0.0,0.0,0.0,0.0,0.0,0.0,0.0,0.0,0.0,0.0,1.0822,1.2327,0.9443,0.7084,0.543,0.2025,0.0199,0.0,0.0,0.0,0.0,0.0,0.0,0.0,0.0,0.0,0.0,0.0,0.0,0.0,0.0,0.0,0.0,0.0,0.0,0.0,0.0,0.0,0.0,0.0,0.0,0.0,0.0,0.0,0.0,0.0,0.0,0.0,0.0,0.0,0.0,0.0,0.0,0.0,0.0,0.0,0.0,0.0,0.0,0.0,0.0,0.0,0.0,0.0,0.0,0.0,0.0,0.0,0.0,0.0,0.0,0.0,0.0,0.0,0.0,0.0,0.0,0.0,0.0,0.0,0.0,0.0,0.0,0.0,0.0,0.0,0.0,0.0,0.0,0.0,0.0,0.0,0.0,0.0,0.0,0.0,0.0,0.0,0.0,0.0,0.0,0.0,0.0,0.0,0.0,0.0,0.0,0.0,0.0,0.0,0.0,0.0,0.0,0.0,0.0,0.0,0.0,0.0,0.0,0.0,0.0,0.0,0.0,0.0,0.0,1.1755,1.1862,0.9288,0.7553,0.6864,0.3544,0.1234,0.0,0.0,0.0,0.0,0.0,0.0,0.0,0.0,0.0,0.0,0.0,0.0,0.0,0.0,0.0,0.0,0.0,0.0,0.0,0.0,0.0,0.0,0.0,0.0,0.0,0.0,0.0,0.0,0.0,0.0,0.0,0.0,0.0,0.0,0.0,0.0,0.0,0.0,0.0,0.0,0.0,0.0,0.0,0.0,0.0,0.0,0.0,0.0,0.537,0.0,0.0,0.0,0.0,0.0,0.0,0.0,0.0,0.0,0.0,0.0,0.0,0.0,0.0,0.0,0.0,0.0,0.0,0.0,0.0,0.0,0.0,0.0,0.0,0.0,0.0,0.0,0.0,0.0,0.0,0.0,0.0,0.0,0.0,0.0,0.0,0.0,0.0,0.0,0.0,0.0,0.0,0.0,0.0,0.0,0.0,0.0,0.0,0.0,0.0,0.0,0.0,0.0,0.0,0.0,0.0,0.0,0.0,0.0,1.2931,1.3286,1.1179,0.9235,0.7533,0.563,0.3825,0.0,0.0,0.0,0.0,0.0,0.0,0.0,0.0,0.0,0.0,0.0,0.0,0.0,0.0,0.0,0.0,0.0,0.0,0.0,0.0,0.0,0.0,0.0,0.0,0.0,0.0,0.0,0.0,0.0,0.0,0.0,0.0,0.0,0.0,0.0,0.0,0.0,0.0,0.0,0.0,0.0,0.0,0.0,0.0,0.0,0.0,0.0,0.0,0.0,0.0,0.0,0.0,0.0,0.0,0.0,0.0,0.0,0.0,0.0,0.0,0.0,0.0,0.0,0.0,0.0,0.0,0.0,0.0,0.0,0.0,0.0,0.0,0.0,0.0,0.0,0.0,0.0,0.0,0.0,0.0,0.0,0.0,0.0,0.0,0.0,0.0,0.0,0.0,0.0,0.0,0.0,0.0,0.0,0.0,0.0,0.0,0.0,0.0,0.0,0.0,0.0,0.0,0.0,0.0,0.0,0.0,0.0,1.4709,1.4139,1.5133,1.3369,1.1113,0.8451,0.7653,0.6498,0.5077,0.0,0.0,0.0,0.0,0.0,0.0,0.0,0.0,0.0,0.0,0.0,0.0,0.0,0.0,0.0,0.0,0.0,0.0,0.0,0.0,0.0,0.0,0.0,0.0,0.0,0.0,0.0,0.0,0.0,0.0,0.0,0.0,0.0,0.0,0.0,0.0,0.0,0.0,2.0416,1.9953,0.0,0.0,0.0,0.0,0.0,0.0,0.0,0.0,0.4485,0.0,0.0,0.0,0.0,0.0,0.0,0.0,0.0,0.0,0.0,0.0,0.0,0.0,0.0,0.0,0.0,0.0,0.0,0.0,0.0,0.0,0.0,0.0,0.0,0.0,0.0,0.0,0.0,0.0,0.0,0.0,0.0,0.0,0.0,0.0,0.0,0.0,0.0,0.0,0.0,0.0,0.0,0.0,0.0,0.0,0.0,0.0,0.0,0.0,0.0,0.0,0.0,0.0,0.0,0.0,0.0,1.7002,1.5544,1.5137,1.5925,1.3311,1.1792,1.1423,0.8818,0.7643,0.7965,0.0,0.0,0.0,0.0,0.0,0.0,0.0,0.0,0.0,0.0,0.0,0.0,0.0,0.0,0.0,0.0,0.0,0.0,0.0,0.0,0.0,0.0,0.0,0.0,0.0,0.0,0.0,0.0,0.0,0.0,0.0,0.0,0.0,0.0,0.0,0.0,0.0,0.0,0.0,2.2886,2.1403,0.0,0.0,0.0,0.0,0.0,0.0,0.0,0.0,0.7124,0.0,0.0,0.0,0.0,0.0,0.0,0.0,0.0,0.0,0.0,0.0,0.0,0.0,0.0,0.0,0.0,0.0,0.0,0.0,0.0,0.0,0.0,0.0,0.0,0.0,0.0,0.0,0.0,0.0,0.0,0.0,0.0,0.0,0.0,0.0,0.0,0.0,0.0,0.0,0.0,0.0,0.0,0.0,0.0,0.0,0.0,0.0,0.0,0.0,0.0,0.0,0.0,0.0,0.0,0.0,1.6478,1.6055,1.5851,1.5761,1.4411,1.2963,1.1618,1.0021,0.9007,0.0,0.0,0.0,0.0,0.0,0.0,0.0,0.0,0.0,0.0,0.0,0.0,0.0,0.0,0.0,0.0,0.0,0.0,0.0,0.0,0.0,0.0,0.0,0.0,0.0,0.0,0.0,0.0,0.0,0.0,0.0,0.0,0.0,0.0,0.0,0.0,0.0,0.0,0.0,0.0,2.3171,2.2131,1.8259,0.0,0.0,0.0,0.0,0.0,0.0,0.9681,0.9188,0.0,0.0,0.0,0.0,0.0,0.0,0.0,0.0,0.0,0.0,0.0,0.0,0.0,0.0,0.0,0.0,0.0,0.0,0.0,0.0,0.0,0.0,0.0,0.0,0.0,0.0,0.0,0.0,0.0,0.0,0.0,0.0,0.0,0.0,0.0,0.0,0.0,0.0,0.0,0.0,0.0,0.0,0.0,0.0,0.0,0.0,0.0,0.0,0.0,0.0,0.0,0.0,0.0,0.0,0.0,1.6265,1.6665,1.658,1.5867,1.5499,1.4252,1.1974,1.1449,1.0421,0.0,0.0,0.0,0.0,0.0,0.0,0.0,0.0,0.0,0.0,0.0,0.0,0.0,0.0,0.0,0.0,0.0,0.0,0.0,0.0,0.0,0.0,0.0,0.0,0.0,0.0,0.0,0.0,0.0,0.0,0.0,0.0,0.0,0.0,0.0,0.0,0.0,0.0,0.0,0.0,0.0,2.2821,1.9215,1.84,0.0,0.0,0.0,0.0,1.2357,1.1802,0.0,0.0,0.0,0.0,0.0,0.0,0.0,0.0,0.0,0.0,0.0,0.0,0.0,0.0,0.0,0.0,0.0,0.0,0.0,0.0,0.0,0.0,0.0,0.0,0.0,0.0,0.0,0.0,0.0,0.0,0.0,0.0,0.0,0.0,0.0,0.0,0.0,0.0,0.0,0.0,0.0,0.0,0.0,0.0,0.0,0.0,0.0,0.0,0.0,0.0,0.0,0.0,0.0,0.0,0.0,0.0,1.7333,1.7493,1.7548,1.7216,1.596,1.5145,1.5051,1.3409,1.1777,0.0,0.0,0.0,0.0,0.0,0.0,0.0,0.0,0.0,0.0,0.0,0.0,0.0,0.0,0.0,0.0,0.0,0.0,0.0,0.0,0.0,0.0,0.0,0.0,0.0,0.0,0.0,0.0,0.0,0.0,0.0,0.0,0.0,0.0,0.0,0.0,0.0,0.0,0.0,0.0,0.0,2.5005,2.0952,2.1275,2.0914,0.0,0.0,1.7198,1.4027,1.4766,0.0,0.0,0.0,0.0,0.0,0.0,0.0,0.0,0.0,0.0,0.0,0.0,0.0,0.0,0.0,0.0,0.0,0.0,0.0,0.0,0.0,0.0,0.0,0.0,0.0,0.0,0.0,0.0,0.0,0.0,0.0,0.0,0.0,0.0,0.0,0.0,0.0,0.0,0.0,0.0,0.0,0.0,0.0,0.0,0.0,0.0,0.0,0.0,0.0,0.0,0.0,0.0,0.0,0.0,0.0,1.8738,1.734,1.7225,1.7252,1.7338,1.619,1.5334,1.4747,1.3704,1.2491,0.0,0.0,0.0,0.0,0.0,0.0,0.0,0.0,0.0,0.0,0.0,0.0,0.0,0.0,0.0,0.0,0.0,0.0,0.0,0.0,0.0,0.0,0.0,0.0,0.0,0.0,0.0,0.0,0.0,0.0,0.0,0.0,0.0,0.0,0.0,0.0,0.0,0.0,0.0,0.0,0.0,0.0,2.2321,2.2573,0.0,0.0,0.0,1.8999,1.7235,0.0,0.0,0.0,0.0,0.0,0.0,0.0,0.0,0.0,0.0,0.0,0.0,0.0,0.0,0.0,0.0,0.0,0.0,0.0,0.0,0.0,0.0,0.0,0.0,0.0,0.0,0.0,0.0,0.0,0.0,0.0,0.0,0.0,0.0,0.0,0.0,0.0,0.0,0.0,0.0,0.0,0.0,0.0,0.0,0.0,0.0,0.0,0.0,0.0,0.0,0.0,0.0,0.0,0.0,0.0,0.0,0.0,1.7534,1.7416,1.7301,1.7134,1.648,1.5588,1.4483,1.4042,0.0,0.0,0.0,0.0,0.0,0.0,0.0,0.0,0.0,0.0,0.0,0.0,0.0,0.0,0.0,0.0,0.0,0.0,0.0,0.0,0.0,0.0,0.0,0.0,0.0,0.0,0.0,1.5687,0.0,0.0,0.0,0.0,0.0,0.0,0.0,0.0,0.0,0.0,0.0,0.0,0.0,0.0,2.4978,2.3398,2.3877,2.4096,0.0,0.0,2.0921,2.0084,1.9499,1.8259,0.0,0.0,0.0,0.0,0.0,0.0,0.0,0.0,0.0,0.0,0.0,0.0,0.0,0.0,0.0,0.0,0.0,0.0,0.0,0.0,0.0,0.0,0.0,0.0,0.0,0.0,0.0,0.0,0.0,0.0,0.0,0.0,0.0,0.0,0.0,0.0,0.0,0.0,0.0,0.0,0.0,0.0,0.0,0.0,0.0,0.0,0.0,0.0,0.0,0.0,0.0,0.0,0.0,0.0,0.0,1.8481,1.8985,1.8464,1.6845,1.6678,1.6204,1.5332,1.5067,1.4285,0.0,0.0,0.0,0.0,0.0,0.0,0.0,0.0,0.0,0.0,0.0,0.0,0.0,0.0,0.0,0.0,0.0,0.0,0.0,0.0,0.0,0.0,0.0,0.0,0.0,0.0,0.0,0.0,0.0,0.0,0.0,0.0,0.0,0.0,0.0,0.0,0.0,0.0,0.0,0.0,0.0,2.5168,2.4137,2.5583,2.6346,0.0,0.0,2.3509,2.1746,2.2273,2.1801,1.8374,0.0,0.0,0.0,0.0,0.0,0.0,0.0,0.0,0.0,0.0,0.0,0.0,0.0,0.0,0.0,0.0,0.0,0.0,0.0,0.0,0.0,0.0,0.0,0.0,0.0,0.0,0.0,0.0,0.0,0.0,0.0,0.0,0.0,0.0,0.0,0.0,0.0,0.0,0.0,0.0,0.0,0.0,0.0,0.0,0.0,0.0,0.0,0.0,0.0,0.0,0.0,0.0,0.0,1.9399,1.8633,1.9024,1.8904,1.8189,1.7565,1.7109,1.6756,1.6485,1.5798,0.0,0.0,0.0,0.0,0.0,0.0,0.0,0.0,0.0,0.0,0.0,0.0,0.0,0.0,0.0,0.0,0.0,0.0,0.0,0.0,0.0,0.0,0.0,0.0,0.0,0.0,0.0,0.0,1.8285,1.9798,2.2487,0.0,0.0,0.0,0.0,0.0,0.0,0.0,0.0,0.0,0.0,2.6756,2.5974,2.7029,0.0,0.0,2.4945,2.3756,2.3471,2.2553,2.1373,1.9857,1.9521,0.0,0.0,0.0,0.0,0.0,0.0,0.0,0.0,0.0,0.0,0.0,0.0,0.0,0.0,0.0,0.0,0.0,0.0,0.0,0.0,0.0,0.0,0.0,0.0,0.0,0.0,0.0,0.0,0.0,0.0,0.0,0.0,0.0,0.0,0.0,0.0,0.0,0.0,0.0,0.0,0.0,0.0,0.0,0.0,0.0,0.0,0.0,0.0,0.0,0.0,0.0,0.0,1.8926,1.8502,1.8949,1.9012,1.8768,1.811,1.7592,1.7344,1.7224,1.6769,0.0,0.0,0.0,0.0,0.0,0.0,0.0,0.0,0.0,0.0,0.0,0.0,0.0,0.0,0.0,0.0,0.0,0.0,0.0,0.0,0.0,0.0,0.0,0.0,0.0,0.0,0.0,0.0,1.987,2.1427,2.3238,0.0,0.0,0.0,0.0,0.0,0.0,0.0,0.0,0.0,0.0,2.7516,2.6958,2.7783,2.8061,2.7017,2.5416,2.4374,2.4518,2.3112,2.1656,2.0719,0.0,0.0,0.0,0.0,0.0,0.0,0.0,0.0,0.0,0.0,0.0,0.0,0.0,0.0,0.0,0.0,0.0,0.0,0.0,0.0,0.0,0.0,0.0,0.0,0.0,0.0,0.0,0.0,0.0,0.0,2.1126,0.0,0.0,0.0,0.0,0.0,0.0,0.0,0.0,0.0,0.0,0.0,0.0,0.0,0.0,0.0,0.0,0.0,0.0,0.0,0.0,0.0,0.0,1.8531,1.8118,1.8905,1.8891,1.808,1.8031,1.7635,1.6828,1.6998,1.6964,1.6723,0.0,0.0,0.0,0.0,0.0,0.0,0.0,0.0,0.0,0.0,0.0,0.0,0.0,0.0,0.0,0.0,0.0,0.0,0.0,0.0,0.0,0.0,0.0,0.0,0.0,0.0,2.0774,2.1674,2.2126,0.0,0.0,0.0,0.0,0.0,0.0,0.0,0.0,0.0,0.0,2.6257,2.6993,2.6644,2.7548,2.7873,2.6492,2.6174,2.58,2.4889,2.4429,2.3437,0.0,0.0,0.0,0.0,0.0,0.0,0.0,0.0,0.0,0.0,0.0,0.0,0.0,0.0,0.0,0.0,0.0,0.0,0.0,0.0,0.0,0.0,0.0,0.0,0.0,0.0,0.0,2.2573,2.1836,0.0,0.0,0.0,0.0,0.0,0.0,0.0,0.0,0.0,0.0,0.0,2.5615,2.5509,0.0,0.0,0.0,0.0,0.0,0.0,0.0,0.0,0.0,0.0,0.0,0.0,1.8583,1.8164,1.9255,1.9499,1.8886,1.8856,1.8727,1.8447,1.853,1.8376,1.804,0.0,0.0,0.0,0.0,0.0,0.0,0.0,0.0,0.0,0.0,0.0,0.0,0.0,0.0,0.0,0.0,0.0,0.0,0.0,0.0,0.0,0.0,0.0,0.0,0.0,2.0079,0.0,0.0,0.0,0.0,0.0,0.0,0.0,0.0,0.0,0.0,0.0,2.4141,2.6088,2.7232,2.7914,2.8046,2.8849,2.8978,0.0,0.0,0.0,0.0,0.0,0.0,0.0,0.0,0.0,0.0,0.0,0.0,0.0,0.0,2.4621,2.1447,1.9417,1.8147,1.8004,0.0,0.0,0.0,0.0,0.0,0.0,0.0,0.0,0.0,0.0,0.0,0.0,0.0,0.0,2.4334,0.0,2.3606,0.0,0.0,0.0,0.0,0.0,0.0,0.0,0.0,2.5761,2.6473,2.6774,2.6785,2.6754,0.0,2.6307,2.4958,0.0,0.0,0.0,0.0,0.0,0.0,0.0,0.0,1.8765,1.8471,1.9554,1.9981,1.9608,1.942,1.9292,1.9292,1.9381,1.9171,1.8703,1.7712,1.6983,0.0,0.0,0.0,0.0,0.0,0.0,0.0,0.0,0.0,0.0,0.0,0.0,0.0,0.0,0.0,0.0,0.0,0.0,0.0,0.0,0.0,0.0,0.0,2.0589,0.0,0.0,0.0,0.0,0.0,0.0,0.0,0.0,0.0,2.5176,2.5016,2.5641,2.7591,2.8344,2.8621,2.8361,0.0,0.0,0.0,0.0,0.0,0.0,0.0,2.6415,2.6319,2.6191,2.6003,2.5722,2.7023,2.8063,2.7756,0.0,0.0,2.4421,2.198,2.0406,2.0161,1.8876,1.7707,1.7502,1.7266,1.7027,0.0,0.0,0.0,0.0,0.0,0.0,0.0,0.0,2.5274,2.5337,0.0,2.4802,0.0,0.0,0.0,0.0,0.0,2.6234,0.0,0.0,2.7952,2.852,2.8419,2.8407,2.8259,2.7898,2.7794,2.6742,2.4809,2.3342,0.0,0.0,0.0,0.0,0.0,0.0,1.902,1.9058,1.9831,2.0226,2.0167,1.9618,1.9332,1.9301,1.9478,1.9341,1.8833,1.9257,1.8667,1.6736,1.6856,0.0,0.0,0.0,0.0,0.0,0.0,0.0,0.0,0.0,0.0,0.0,0.0,0.0,0.0,0.0,0.0,0.0,0.0,0.0,0.0,2.1863,0.0,0.0,0.0,0.0,0.0,0.0,0.0,0.0,0.0,0.0,2.6892,2.7367,2.813,2.9366,0.0,0.0,0.0,0.0,2.7269,2.6996,2.6961,2.7323,2.8259,2.7938,2.7386,2.677,0.0,0.0,2.6936,2.8683,2.9774,2.8953,2.8796,2.8788,2.8305,2.6061,2.431,2.3945,2.2267,2.088,2.0244,1.9976,1.971,2.8566,0.0,0.0,0.0,0.0,2.6623,2.7104,2.7471,2.7975,2.7535,2.6524,2.6524,0.0,0.0,0.0,0.0,0.0,0.0,2.6253,2.6302,2.7434,2.7932,2.7945,2.7945,2.7867,2.775,2.775,2.7035,2.5742,2.4995,2.3363,2.0841,0.0,0.0,0.0,0.0,1.9657,1.962,2.0548,2.0777,2.0196,2.001,1.9814,1.9518,1.9566,1.9725,1.9997,1.9787,1.9424,1.8935,1.7905,0.0,0.0,0.0,0.0,0.0,0.0,0.0,0.0,0.0,0.0,0.0,0.0,0.0,0.0,0.0,0.0,0.0,0.0,0.0,2.2571,2.2527,2.2835,0.0,0.0,0.0,0.0,0.0,0.0,0.0,0.0,0.0,2.8551,2.8035,2.8234,0.0,0.0,2.8769,2.8834,2.8459,2.8034,2.7723,0.0,0.0,0.0,2.7711,2.7833,2.801,2.8083,2.808,2.7761,2.853,2.9132,2.8825,2.8824,2.8828,2.8773,2.7031,2.5358,2.4514,2.3716,2.3176,2.2904,2.2042,2.1024,3.1689,2.9942,2.8548,2.7876,2.7808,2.8126,2.847,2.878,2.8952,2.8622,2.7924,2.783,2.7002,2.5735,2.5791,0.0,0.0,0.0,2.6994,2.7023,2.7477,2.7729,2.7705,2.7474,2.7378,2.7404,2.715,2.6731,2.6081,2.5635,2.4449,2.2615,0.0,0.0,2.0209,2.0737,2.098,2.0946,2.1576,2.1657,2.1203,2.0924,2.0731,2.0586,2.0731,2.1014,2.1453,2.0886,2.0529,2.0415,1.9203,1.8236,0.0,0.0,0.0,0.0,0.0,0.0,0.0,0.0,0.0,0.0,0.0,1.9715,1.9584,0.0,0.0,0.0,2.2189,2.3606,2.3959,2.4007,0.0,0.0,0.0,0.0,0.0,0.0,0.0,2.7823,2.8236,2.8715,2.922,2.8722,2.8736,2.9996,2.9391,2.8898,2.9017,0.0,2.8155,2.8175,2.8245,2.8287,2.8388,2.8391,2.8517,2.8834,2.8779,2.8488,2.8121,2.8274,2.8394,2.8269,2.8178,2.8231,2.8351,2.7248,2.6038,2.5141,2.4435,2.3941,2.3745,2.2549,2.1419,3.4605,3.3411,3.0761,2.9655,2.9638,2.951,2.9417,2.9388,2.8871,2.8883,2.9256,2.8787,2.8522,2.8374,2.7945,0.0,2.8378,2.8378,2.8302,2.8294,2.7786,2.7522,2.7474,2.6994,2.6765,2.6753,2.6274,2.6021,2.6009,2.554,2.5147,2.4802,2.347,2.251,2.1905,2.2394,2.2655,2.2666,2.2776,2.2804,2.274,2.2096,2.1886,2.2145,2.2419,2.2696,2.2992,2.2281,2.1707,2.1263,2.0561,1.9956,1.9521,0.0,0.0,0.0,0.0,0.0,0.0,0.0,0.0,0.0,0.0,0.0,0.0,0.0,0.0,0.0,2.2365,0.0,2.5351,2.5777,0.0,0.0,0.0,2.7267,2.729,2.8211,2.8724,2.859,0.0,0.0,2.9212,0.0,2.9465,2.9947,2.9544,2.9076,2.8631,2.8126,2.7897,2.8335,2.7966,2.8158,2.9307,2.9301,2.9117,2.9186,2.8955,2.8471,2.8081,2.7951,2.7744,2.7415,2.7261,2.7304,2.7315,2.7169,2.6743,2.5915,2.4828,2.3899,2.358,2.2557,2.1661,3.367,3.2902,3.221,3.1939,3.1853,3.1021,3.0611,3.0489,2.9929,2.9556,2.9292,2.9172,2.8667,2.7858,2.7789,2.7534,2.727,2.727,2.7067,2.6671,2.6538,2.6262,2.5877,2.5757,2.5697,2.5685,2.5564,2.5492,2.5492,2.536,2.5276,2.5182,2.4815,2.4131,2.3137,2.3197,2.3267,2.3279,2.3673,2.3629,2.3154,2.2489,2.2253,2.2478,2.2219,2.2484,2.3262,2.2331,2.1812,2.1721,2.106,2.031,1.9455,1.9122,0.0,0.0,0.0,0.0,0.0,0.0,0.0,0.0,0.0,2.181,2.022,0.0,2.2571,0.0,2.2956,2.4105,2.5096,2.5718,0.0,0.0,2.7731,2.8306,2.8089,2.8599,2.9013,2.8973,2.8803,2.8773,2.8906,2.8906,2.8967,2.9088,2.8895,2.8787,2.9027,2.8306,2.7765,2.7861,2.75,2.7366,2.8134,2.8546,2.8722,2.8769,2.8684,2.8421,2.8,2.7671,2.7426,2.7309,2.6996,2.6922,2.7228,2.7282,2.7019,2.6504,2.5962,2.5625,2.5457,2.4258,2.3161,3.4384,3.405,3.405,3.3544,3.2698,3.1265,3.0776,3.087,2.9837,2.9533,2.9707,2.9196,2.8773,2.8419,2.7688,2.7306,2.7222,2.7018,2.6729,2.6417,2.6214,2.5937,2.5661,2.542,2.5312,2.5312,2.5312,2.5312,2.5312,2.5312,2.5312,2.5312,2.5312,2.4956,2.4331,2.4319,2.4284,2.4284,2.4411,2.4225,2.3728,2.3522,2.3475,2.3573,2.3246,2.3303,2.3874,2.2879,2.2329,2.2383,2.1794,2.1229,2.0671,2.0349,1.9852,0.0,0.0,0.0,0.0,0.0,0.0,0.0,0.0,0.0,0.0,0.0,2.3241,2.4141,2.4329,2.5217,2.7223,2.7508,2.7817,2.85,2.9013,2.9173,2.8856,2.9197,2.9425,2.9288,2.92,2.9227,2.9505,2.9251,2.9274,2.9872,2.9289,2.8885,2.9064,2.8533,2.8077,2.8159,2.7659,2.733,2.7654,2.8174,2.8527,2.8548,2.8578,2.8403,2.7964,2.7716,2.752,2.7288,2.7037,2.6863,2.6948,2.6961,2.6787,2.6388,2.6109,2.5922,2.5748,2.4608,2.3634,3.5629,3.5588,3.5588,3.4487,3.2673,3.093,3.0457,3.0813,2.9264,2.9201,3.0139,2.9202,2.8972,2.909,2.7746,2.725,2.7488,2.7006,2.6753,2.6669,2.6226,2.5997,2.5973,2.5528,2.5312,2.5312,2.5312,2.5312,2.5312,2.5312,2.5312,2.5312,2.5312,2.5312,2.5312,2.5312,2.5312,2.5312,2.5016,2.467,2.437,2.467,2.4826,2.4743,2.455,2.4364,2.4268,2.34,2.2883,2.2903,2.2438,2.2216,2.2204,2.1813,2.1368,0.0,2.0576,0.0,0.0,0.0,0.0,0.0,0.0,0.0,0.0,2.1914,2.3423,2.5975,2.5664,2.6557,2.9537,2.95,2.9602,3.0241,3.0147,2.9867,2.9555,2.9747,2.9848,2.9621,2.9586,2.9764,3.0268,2.9845,3.0008,3.0966,3.0329,2.9625,2.947,2.8988,2.8621,2.8803,2.8231,2.7786,2.7789,2.8122,2.8522,2.8522,2.8626,2.8431,2.8078,2.7985,2.7869,2.7423,2.7219,2.7056,2.6569,2.6509,2.6332,2.5913,2.5738,2.5593,2.5317,2.4475,2.3544,3.5386,3.4881,3.4895,3.3786,3.205,3.1231,3.0721,3.0291,2.9555,2.9378,2.9588,2.9872,2.9263,2.8082,2.8208,2.7605,2.6406,2.6298,2.6021,2.5577,2.5492,2.5456,2.5456,2.536,2.5312,2.5312,2.5312,2.5312,2.5312,2.5312,2.5312,2.5312,2.5312,2.5312,2.5312,0.0,0.0,0.0,2.5253,2.5182,2.5099,2.5182,2.5014,2.4583,2.4148,0.0,2.3312,2.2666,2.2342,2.2342,2.237,0.0,0.0,0.0,0.0,0.0,0.0,0.0,0.0,0.0,0.0,0.0,2.3926,2.3213,2.1909,2.2663,2.3318,2.3501,2.5234,2.6617,2.709,2.8579,2.9486,2.9523,3.0196,3.0274,2.9477,2.9814,3.0138,3.0069,2.9931,2.9854,3.0057,3.0304,3.0623,3.0998,3.1146,3.1328,3.1452,3.005,2.9013,2.8819,2.8564,2.8225,2.775,2.8174,2.855,2.855,2.8922,2.8961,2.851,2.8526,2.8419,2.7869,2.7441,2.7051,2.661,2.6487,2.627,2.5505,2.5581,2.577,2.5559,2.5073,2.449,3.5238,0.0,3.5209,3.3967,0.0,3.1775,3.0948,2.981,2.9207,2.9142,2.9497,2.9768,2.9393,2.8573,2.832,2.7752,2.6883,2.6394,2.5995,2.5685,2.5432,2.5312,2.5312,2.5312,2.5312,2.5312,2.5312,2.5312,2.5312,2.5312,2.5312,2.5312,2.5312,2.5312,2.5312,2.5312,2.5312,2.5312,2.5312,2.5312,2.5312,2.5312,2.532,2.5318,0.0,0.0,0.0,0.0,0.0,0.0,0.0,0.0,0.0,0.0,0.0,2.4005,2.4108,2.4268,2.4584,2.4697,2.4739,2.4726,2.4739,2.4207,2.293,2.3346,2.3819,2.4158,2.5443,2.6786,2.8247,2.9033,2.9706,3.0308,3.0564,3.048,3.0101,3.0213,3.0377,3.0391,3.0294,3.0359,3.0633,3.0874,3.1357,3.1964,3.1979,3.2146,3.2362,3.0932,2.9574,2.9067,2.9445,2.9358,2.8499,2.8636,2.8816,2.8657,2.9,2.9106,2.8578,2.8843,2.8922,2.8339,2.7978,2.7684,2.7267,2.685,2.6294,2.5665,2.5337,2.5207,2.5044,2.4866,2.4513,3.5236,3.571,3.571,3.4353,3.2205,3.2205,3.1118,2.9294,0.0,0.0,0.0,2.9614,2.9504,2.9136,2.8317,2.7834,2.7503,2.6596,2.619,2.6082,2.5552,2.5312,2.5312,2.5312,2.5312,2.5312,2.5312,2.5312,2.53,2.5406,2.5453,2.5453,2.5453,2.5453,2.5453,2.5546,2.5581,2.5581,2.5406,2.5312,2.5312,2.5406,2.565,2.6061,2.4813,2.4344,2.4785,2.3498,2.307,2.3682,2.3292,2.3488,2.4427,2.4092,2.4108,2.4697,2.4839,2.4952,2.5064,2.5217,2.5328,2.5328,2.5328,2.4951,2.4092,2.4005,2.4455,2.5472,2.5656,2.689,2.9656,2.9519,2.98,3.1172,3.0887,3.0597,3.0612,3.0612,3.0596,3.0612,3.0565,3.0756,3.1201,3.1304,3.1801,3.2885,3.2706,3.2516,3.2847,3.1659,3.0393,2.9947,3.038,3.0506,2.9563,2.9459,2.9445,2.904,2.938,2.9459,2.8929,2.9123,2.9225,2.8555,2.8493,2.8311,2.7938,2.7202,2.6388,2.5796,2.5085,2.4489,2.4261,2.4266,2.4104,3.5642,3.571,3.571,3.4353,3.2205,3.2205,3.0866,2.8858,2.9733,2.9915,2.9553,3.0046,2.944,2.8074,2.8412,2.8048,2.7067,2.6468,2.6188,0.0,2.5595,2.5312,2.5312,2.5312,2.5312,2.5312,2.5312,2.5312,2.5347,2.5804,2.6082,2.606,2.6082,2.6082,2.6117,2.653,2.6769,2.6735,2.5791,2.5312,2.5312,2.5804,2.5859,2.5523,2.546,2.5249,2.4892,2.4419,2.4226,2.4355,2.4399,2.4485,2.4656,2.4768,2.5063,2.566,2.5715,2.5934,2.6447,2.6527,2.6539,2.6553,2.6553,2.6069,2.4964,2.4851,2.4905,2.5094,2.5551,2.6428,2.797,2.8521,2.9242,3.0492,3.0656,3.0598,3.0569,3.0598,3.0612,3.0612,3.0612,3.0627,3.0785,3.117,3.1726,3.2521,3.3025,3.3287,3.3101,3.2277,3.1599,3.1415,3.1402,3.118,3.054,3.0606,3.0404,3.0139,3.0442,3.0374,2.9365,2.9682,2.9682,2.8708,2.8565,2.841,2.803,2.7446,2.6565,2.5559,2.5044,2.4526,2.3569,2.3437,2.3452,3.571,3.5628,3.4992,3.3718,3.2123,3.0833,2.9651,2.8668,2.917,2.9268,2.9054,2.9315,2.8986,2.8298,2.8519,2.8379,2.7853,2.7317,2.7058,2.7015,2.6496,2.622,2.6208,2.5931,2.5756,2.5769,2.5453,2.5312,2.5312,2.5594,2.5873,2.6186,2.6496,2.6633,2.6633,2.6871,2.7007,2.7007,2.6483,2.6208,2.6242,2.6483,2.6489,2.6205,2.5888,2.5625,2.5461,2.4905,2.4811,2.5231,2.5007,2.5161,2.5797,2.5619,2.5756,2.634,2.6394,2.65,2.6779,2.6794,2.6794,2.6794,2.6794,2.6594,2.6001,2.5674,2.5481,2.5495,2.573,2.6511,2.8068,2.8183,2.8627,2.9929,3.006,3.006,3.0103,3.0393,3.0612,3.0612,3.0612,3.0612,3.0612,3.1134,3.1772,3.2454,3.3311,3.3917,3.3808,3.3217,3.2354,3.1684,3.1883,3.1613,3.0672,3.0543,3.0497,3.0151,3.0335,3.0204,2.9555,2.9902,2.9902,2.9238,2.8975,2.8929,2.8694,2.7599,2.6529,2.5727,2.472,2.3935,2.3244,2.3047,2.2901,3.571,3.5615,3.4694,3.3512,3.2015,2.9618,2.8587,2.8587,2.86,2.8587,2.8587,2.8587,2.8587,2.8587,2.8587,2.8602,2.8525,2.802,2.7792,2.7756,2.7233,2.7007,2.6973,2.6564,2.6371,2.6324,2.5896,2.5652,2.5687,2.5791,2.6104,2.6564,2.7095,2.731,2.7175,2.731,2.7377,2.7377,2.7343,2.7229,2.7007,2.7108,2.709,2.695,2.6467,2.6173,2.6149,2.5532,2.5453,2.6029,2.5646,2.5811,2.67,2.6224,2.6085,2.6495,2.6416,2.6416,2.6573,2.6733,2.6794,2.6794,2.6794,2.6794,2.6753,2.6367,2.6084,2.6111,2.6139,2.6784,2.8018,2.7869,2.8,2.9189,2.9233,2.9247,2.9435,2.9972,3.0394,3.0394,3.0496,3.0612,3.0699,3.1003,3.1613,3.2454,3.3499,3.4153,3.4138,3.3881,3.3054,3.1965,3.2134,3.2159,3.0665,3.0644,3.0678,3.0299,3.0244,3.0102,2.9806,3.0053,3.0079,2.954,2.9383,2.9365,2.9238,2.7866,2.6602,2.5941,2.4843,2.366,2.3135,2.2911,2.2676,3.571,3.571,3.5493,3.4231,3.1974,2.9591,2.8587,2.8587,2.8587,2.8587,2.8587,2.8587,2.8587,2.8587,2.8587,2.8609,2.8565,2.8046,2.7815,2.7782,2.7235,2.7007,2.704,2.6973,2.6939,2.6905,2.6824,2.6722,2.6756,2.7242,2.7577,2.7709,2.8183,2.8183,2.7822,2.8183,2.8425,2.8457,2.8457,2.7987,2.7095,2.7477,2.7583,2.726,2.7418,2.7367,2.6975,2.6777,2.6633,2.67,2.6618,2.6659,2.6707,2.6147,2.5828,2.585,2.5357,2.523,2.585,2.6445,2.6736,2.6794,2.6777,2.6765,2.6779,2.6727,2.6727,2.6674,2.67,2.7033,2.7652,2.7273,2.7447,2.8565,2.8361,2.8087,2.8768,2.9334,2.9711,2.9682,3.0277,3.0612,3.0627,3.0757,3.1221,3.2234,3.305,3.359,3.3605,3.3746,3.338,3.204,3.2098,3.2209,3.163,3.1701,3.1429,3.1177,3.0942,3.0486,3.01,3.0049,3.0184,2.9618,2.9372,2.9316,2.9082,2.8021,2.6781,2.6166,2.5126,2.3897,2.3261,2.2964,2.2852,3.571,3.5655,3.4924,3.3308,3.1029,2.9292,2.8587,2.8587,2.8587,2.8587,2.8587,2.8587,2.8587,2.8587,2.8587,2.8587,2.8587,2.8379,2.8295,2.8249,2.8052,2.7941,2.7908,2.761,2.7477,2.7443,2.7142,2.7007,2.7108,2.7543,2.7822,2.7842,2.8327,2.849,2.8314,2.849,2.8587,2.8587,2.8587,2.8392,2.798,2.7817,2.7602,2.7288,2.7204,2.7004,2.6727,2.6736,2.6794,2.6777,2.6416,2.6199,2.6184,2.5575,2.5241,2.5241,2.4969,2.4926,2.5241,2.5502,2.5792,2.6195,2.6224,2.6344,2.6777,2.6794,2.6794,2.6794,2.6794,2.7041,2.7536,2.7157,2.7157,2.7955,2.8202,2.839,2.8665,2.9566,3.019,3.0219,3.0438,3.0612,3.067,3.0901,3.1337,3.1901,3.2483,3.2875,3.2919,3.2817,3.2336,3.1756,3.1772,3.1637,3.1296,3.1151,3.1137,3.1048,3.0586,3.0039,3.0033,2.95,2.9322,2.9429,2.9175,2.914,2.9402,2.8126,2.6839,2.6223,2.5021,2.3714,2.342,2.315,2.3001,3.571,3.5479,3.407,3.2254,3.0323,2.9102,2.8587,2.8587,2.8587,2.8587,2.8587,2.8587,2.8587,2.8587,2.8587,2.8587,2.8587,2.8587,2.8587,2.8587,2.8587,2.8587,2.8554,2.8229,2.802,2.7941,2.7643,2.7443,2.7477,2.7809,2.802,2.8085,2.8425,2.8587,2.8587,2.8587,2.8587,2.8587,2.8587,2.8538,2.837,2.7871,2.7475,2.7308,2.6986,2.6679,2.6461,2.6659,2.6794,2.6765,2.6166,2.5803,2.5749,2.4998,2.4476,2.4442,2.4849,2.4998,2.4892,2.5158,2.556,2.5995,2.6054,2.6257,2.6704,2.6794,2.6794,2.6794,2.6794,2.6997,2.7316,2.7055,2.7012,2.7447,2.8028,2.8405,2.8463,2.9537,3.0263,3.0321,3.0452,3.0612,3.067,3.0945,3.1264,3.1555,3.1946,3.2237,3.222,3.2004,3.1758,3.1366,3.1395,3.1279,3.0757,3.0857,3.0865,3.0682,3.0256,2.9862,2.9798,2.9091,2.8593,2.8923,2.8706,2.8673,2.889,2.7907,2.6687,2.5946,2.4879,2.3824,2.3593,2.3335,2.315,3.571,3.5357,3.3213,3.1599,3.031,2.9116,2.8587,2.8587,2.8587,2.8587,2.8587,2.8587,2.8587,2.8587,2.8587,2.8587,2.8587,2.8587,2.8587,2.8587,2.8587,2.8587,2.8587,2.8554,2.8554,2.849,2.8425,2.8425,2.8457,2.8522,2.8587,2.8554,2.8587,2.8587,2.8587,2.8587,2.8587,2.8587,2.8619,2.8443,2.8106,2.7545,2.7391,2.7547,2.7101,2.6761,2.6761,2.6779,2.6794,2.6794,2.6181,2.5803,2.5701,2.4617,2.3717,2.3374,2.4747,2.5444,2.5056,2.585,2.6547,2.6689,2.6602,2.6747,2.6765,2.6794,2.6794,2.6794,2.6794,2.6864,2.6881,2.6852,2.6808,2.691,2.7391,2.7753,2.784,2.9,2.9566,2.9798,3.0263,3.0583,3.0612,3.0612,3.0916,3.1293,3.154,3.1569,3.1627,3.2004,3.1758,3.1134,3.1076,3.1308,3.0816,3.0829,3.0974,3.0764,3.0334,2.9891,2.9452,2.9038,2.8744,2.8532,2.8634,2.8605,2.8419,2.7696,2.6521,2.568,2.5159,2.4418,2.3849,2.3666,2.3409,3.5222,3.4395,3.2847,3.149,3.0323,2.9116,2.8587,2.8587,2.8587,2.8587,2.8587,2.8587,2.8587,2.8587,2.8587,2.8587,2.8587,2.8587,2.8587,2.8587,2.8587,2.8587,2.8587,2.8587,2.8587,2.8587,2.8587,2.8587,2.8587,2.8587,2.8587,2.8587,2.8587,2.8587,2.8587,2.8587,2.8587,2.8619,2.878,2.8669,2.8115,2.7702,2.7493,2.7343,2.679,2.6567,2.6794,2.6794,2.6794,2.6794,2.6155,2.5643,2.5183,2.4408,2.4007,2.4225,2.4849,2.5096,2.4911,2.5245,2.5734,2.6123,2.6155,2.6387,2.6692,2.6794,2.6794,2.6794,2.6794,2.6794,2.6794,2.6794,2.6794,2.6866,2.7345,2.7855,2.8361,2.9102,2.9769,3.0161,3.0496,3.0598,3.0612,3.0612,3.0699,3.0888,3.093,3.093,3.0945,3.1193,3.1119,3.0843,3.1076,3.1293,3.0699,3.0743,3.08,3.0608,3.0312,3.0115,2.973,2.9362,2.9027,2.865,2.8683,2.8502,2.8246,2.7584,2.6395,2.5641,2.5099,2.467,2.4068,2.3897,2.3519,3.4978,3.384,3.2888,3.1653,3.0351,2.9319,2.8763,2.8614,2.8587,2.8587,2.8587,2.8587,2.8587,2.8587,2.8587,2.8587,2.8587,2.8587,2.8587,2.8587,2.8587,2.8587,2.8587,2.8587,2.8587,2.8587,2.8587,2.8587,2.8587,2.8587,2.8587,2.8587,2.8587,2.8587,2.8587,2.8587,2.8587,2.8651,2.8908,2.8744,2.8047,2.7915,2.7598,2.7109,2.6675,2.6566,2.6794,2.6794,2.6794,2.6707,2.6181,2.5502,2.4907,2.4646,2.4602,2.4863,2.5299,2.5386,2.5212,2.5317,2.5676,2.6054,2.6152,2.6329,2.6736,2.6794,2.6794,2.6794,2.6794,2.6794,2.6794,2.6794,2.6794,2.6866,2.7345,2.7855,2.8332,2.8913,2.9552,3.0089,3.0452,3.0583,3.0612,3.0612,3.0627,3.0612,3.0612,3.0612,3.0612,3.0612,3.0612,3.0641,3.0887,3.0959,3.0699,3.0685,3.0728,3.0581,3.0477,3.0296,2.9972,2.9616,2.9217,2.8839,2.8488,2.8269,2.7843,2.7242,2.6536,2.572,2.5288,2.4897,2.4431,2.408,2.3714,3.4991,3.384,3.3295,3.1974,3.0351,2.9659,2.9149,2.8641,2.8587,2.8587,2.8587,2.8587,2.8587,2.8587,2.8587,2.8587,2.8587,2.8587,2.8587,2.8587,2.8587,2.8587,2.8587,2.8587,2.8587,2.8587,2.8587,2.8587,2.8587,2.8587,2.8587,2.8587,2.8587,2.8587,2.8587,2.8587,2.8619,2.8716,2.8972,2.8674,2.7873,2.8024,2.7781,2.7002,2.6796,2.6808,2.6837,2.6808,2.6794,2.6721,2.6224,2.5517,2.5143,2.5371,2.5473,2.5216,2.6054,2.637,2.5952,2.6341,2.6576,2.6678,2.6736,2.6707,2.675,2.6794,2.6794,2.6794,2.6794,2.6794,2.6794,2.6794,2.6794,2.6837,2.726,2.7608,2.7855,2.8361,2.8956,2.9624,3.019,3.0583,3.0612,3.0612,3.0612,3.0612,3.0612,3.0612,3.0612,3.0612,3.0612,3.0612,3.0714,3.0728,3.067,3.0612,3.0612,3.0612,3.0553,3.0434,2.9997,2.9618,2.9121,2.8693,2.8003,2.7742,2.7482,2.6928,2.6628,2.5958,2.5556,2.5099,2.473,2.4345,2.4007,3.4421,3.3308,3.2698,3.1444,2.9869,2.9583,2.9176,2.8614,2.8587,2.8587,2.8587,2.8587,2.8587,2.8587,2.8587,2.8587,2.8587,2.8587,2.8587,2.8587,2.8587,2.8587,2.8587,2.8587,2.8587,2.8587,2.8587,2.8587,2.8587,2.8587,2.8587,2.8587,2.8587,2.8587,2.8587,2.8587,2.8683,2.8972,2.9257,2.8984,2.8181,2.8383,2.8176,2.7478,2.7026,2.6968,2.7374,2.7012,2.6794,2.6794,2.6617,2.6373,2.6184,2.5923,2.5908,2.6199,2.6518,2.6747,2.6547,2.6634,2.6794,2.6794,2.6794,2.6794,2.6794,2.6794,2.6794,2.6794,2.6794,2.6794,2.6794,2.6794,2.6794,2.6794,2.6968,2.7287,2.7681,2.8594,2.9305,2.961,3.019,3.0569,3.0612,3.0612,3.0612,3.0612,3.0612,3.0612,3.0612,3.0612,3.0612,3.0612,3.0612,3.0612,3.0612,3.0612,3.0612,3.0612,3.0598,3.0583,3.0146,2.9551,2.9057,2.835,2.767,2.7212,2.6929,2.6609,2.6319,2.6077,2.5624,2.524,2.4909,2.4515,2.4146,3.4136,3.3074,3.2463,3.1273,2.9849,2.9591,2.9176,2.8641,2.8587,2.8587,2.8587,2.8587,2.8587,2.8587,2.8587,2.8587,2.8587,2.8587,2.8587,2.8587,2.8587,2.8587,2.8587,2.8587,2.8587,2.8587,2.8587,2.8587,2.8587,2.8587,2.8587,2.8587,2.8587,2.8587,2.8587,2.8587,2.8748,2.9099,2.9401,2.9264,2.8739,2.8872,2.8724,2.81,2.7461,2.7347,2.7637,2.7128,2.6794,2.6794,2.6794,2.6794,2.675,2.6428,2.6358,2.6689,2.6779,2.6779,2.6794,2.6765,2.6794,2.6794,2.6794,2.6794,2.6794,2.6794,2.6794,2.6794,2.6794,2.6794,2.6794,2.6794,2.6794,2.6794,2.6808,2.6968,2.7461,2.8246,2.8942,2.9218,2.9813,3.0278,3.0539,3.0612,3.0612,3.0612,3.0612,3.0612,3.0612,3.0612,3.0612,3.0612,3.0612,3.0612,3.0612,3.0612,3.0612,3.0612,3.0612,3.0598,3.0408,2.9639,2.8973,2.7812,2.6988,2.682,2.6573,2.6218,2.5892,2.5706,2.5603,2.5177,2.4779,2.4519,2.4201,3.4082,3.302,3.2449,3.1436,3.0269,2.9781,2.9211,2.8641,2.8587,2.8587,2.8587,2.8587,2.8587,2.8587,2.8587,2.8587,2.8587,2.8587,2.8587,2.8587,2.8587,2.8587,2.8587,2.8587,2.8587,2.8587,2.8587,2.8587,2.8587,2.8587,2.8587,2.8587,2.8587,2.8587,2.8619,2.8619,2.8812,2.9194,2.9477,2.945,2.9141,2.9391,2.9334,2.8724,2.8115,2.781,2.7781,2.7186,2.6794,2.6794,2.6794,2.6794,2.6794,2.6794,2.6736,2.6794,2.6794,2.6794,2.6794,2.6794,2.6794,2.6794,2.6794,2.6794,2.6794,2.6794,2.6794,2.6794,2.6794,2.6806,2.6806,2.682,2.682,2.682,2.682,2.6849,2.6878,2.7447,2.8101,2.871,2.9247,2.9842,3.0496,3.0598,3.0612,3.0612,3.0612,3.0612,3.0612,3.0612,3.0612,3.0612,3.0598,3.0612,3.0612,3.0612,3.0612,3.0612,3.0554,3.0467,3.0249,2.9421,2.8466,2.7326,2.6638,2.648,2.626,2.6034,2.582,2.5699,2.5427,2.5046,2.4737,2.4456,2.4413,3.3485,3.2463,3.2273,3.1232,2.9923,2.9998,2.9536,2.8655,2.8587,2.8587,2.8587,2.8587,2.8587,2.8587,2.8587,2.8587,2.8587,2.8587,2.8587,2.8587,2.8587,2.8587,2.8587,2.8587,2.8587,2.8587,2.8587,2.8587,2.8587,2.8587,2.8587,2.8587,2.8587,2.8587,2.8619,2.8844,2.9131,2.9477,2.9803,2.9811,2.9549,2.9566,2.9523,2.9334,2.8768,2.8434,2.8303,2.7372,2.6794,2.6794,2.6794,2.6794,2.6794,2.6794,2.6794,2.6794,2.6794,2.6794,2.6794,2.6794,2.6794,2.6794,2.6794,2.6794,2.6794,2.6794,2.6794,2.6794,2.6794,2.6846,2.6925,2.6951,2.6951,2.6925,2.6884,2.6873,2.7001,2.7399,2.7942,2.8608,2.9218,2.9813,3.0394,3.0612,3.0612,3.0612,3.0612,3.0612,3.0612,3.0612,3.0612,3.0598,3.0598,3.0598,3.0612,3.0612,3.0612,3.0612,3.0481,3.0249,2.9697,2.8869,2.7775,2.6639,2.658,2.6455,2.6299,2.6079,2.5928,2.5627,2.5394,2.5066,2.4759,2.4534,2.4616,3.3582,3.2572,3.2314,3.1287,2.9944,2.9984,2.9469,2.8722,2.8587,2.8587,2.8587,2.8587,2.8587,2.8587,2.8587,2.8587,2.8587,2.8587,2.8587,2.8587,2.8587,2.8587,2.8587,2.8587,2.8587,2.8587,2.8587,2.8587,2.8587,2.8587,2.8587,2.8587,2.8587,2.8683,2.8844,2.8972,2.9352,2.9741,3.0019,3.0048,3.003,3.0031,3.0031,2.99,2.9406,2.8913,2.8274,2.7549,2.7084,2.6866,2.6794,2.6794,2.6794,2.6794,2.6794,2.6794,2.6794,2.6794,2.6794,2.6794,2.6794,2.6794,2.6794,2.6794,2.6794,2.6794,2.682,2.6873,2.6899,2.6977,2.7041,2.7093,2.7119,2.7159,2.7041,2.6963,2.6937,2.7205,2.7806,2.8476,2.9015,2.9595,3.0438,3.0583,3.0612,3.0612,3.0612,3.0612,3.0612,3.0612,3.0612,3.0598,3.0437,3.038,3.0409,3.0423,3.0452,3.0481,2.9973,2.9784,2.9232,2.8419,2.7684,2.6847,2.6634,2.64,2.6284,2.604,2.5627,2.5397,2.5259,2.5237,2.5036,2.4707,2.4825,3.4136,3.3061,3.2548,3.1639,3.0513,2.9916,2.9442,2.8777,2.8627,2.8587,2.8587,2.8587,2.8587,2.8587,2.8587,2.8587,2.8587,2.8587,2.8651,2.8651,2.8619,2.8619,2.8716,2.8619,2.8587,2.8587,2.8587,2.8587,2.8587,2.8587,2.8587,2.8619,2.8651,2.8812,2.9035,2.9194,2.954,2.9958,3.0142,3.0296,3.0436,3.0496,3.0481,3.035,2.9798,2.9073,2.8319,2.7753,2.7461,2.691,2.6864,2.6794,2.6794,2.6794,2.6794,2.6794,2.6794,2.6794,2.6794,2.6794,2.6794,2.6794,2.6794,2.6794,2.6794,2.682,2.6899,2.6977,2.6989,2.7093,2.7196,2.7233,2.7284,2.735,2.7284,2.713,2.6937,2.6951,2.7448,2.8519,2.8709,2.9319,3.006,3.0569,3.0612,3.0612,3.0612,3.0612,3.0612,3.0612,3.0612,3.0612,3.0394,3.0074,3.0118,3.0176,3.0219,3.0205,2.945,2.9028,2.8695,2.8086,2.7679,2.7211,2.6684,2.6406,2.6309,2.5952,2.5576,2.5273,2.5212,2.5447,2.5595,2.5116,2.5001,3.4122,3.3129,3.343,3.2566,3.1219,3.0934,3.0256,2.9257,2.8809,2.8587,2.8587,2.8587,2.8587,2.8587,2.8587,2.8587,2.8587,2.8619,2.8716,2.894,2.8716,2.878,2.8844,2.8716,2.8587,2.8587,2.8587,2.8587,2.8587,2.8587,2.8587,2.8619,2.8844,2.9035,2.9162,2.9602,2.9927,3.0142,3.0341,3.0492,3.0582,3.0612,3.0612,3.0554,2.9958,2.9537,2.9058,2.8217,2.7652,2.742,2.7099,2.6852,2.6808,2.6794,2.6794,2.6794,2.6794,2.6794,2.6794,2.6794,2.6794,2.6794,2.6794,2.6794,2.682,2.6899,2.6951,2.7029,2.7093,2.7207,2.7335,2.7448,2.7448,2.7437,2.7448,2.7412,2.717,2.7055,2.7535,2.8357,2.8723,2.8971,2.9755,3.0409,3.0539,3.0583,3.0612,3.0612,3.0612,3.0612,3.0612,3.0598,3.0322,3.0103,3.051,3.051,3.0422,3.0132,2.9319,2.8826,2.8492,2.7708,2.7273,2.6932,2.6572,2.6435,2.6623,2.6297,2.6017,2.5608,2.536,2.5621,2.5757,2.5389,2.5284,3.4624,3.4231,3.3471,3.2576,3.1653,3.0812,2.9916,2.9129,2.8736,2.8587,2.8587,2.8587,2.8587,2.8587,2.8587,2.8587,2.8651,2.878,2.8908,2.9035,2.8908,2.8844,2.8812,2.8716,2.8587,2.8587,2.8587,2.8587,2.8587,2.8587,2.8587,2.8619,2.894,2.9194,2.9383,2.9834,3.0142,3.0341,3.0492,3.0612,3.0612,3.0612,3.0612,3.0598,3.0234,2.9958,2.9508,2.871,2.8058,2.771,2.7391,2.7084,2.6837,2.6794,2.6794,2.6794,2.6794,2.6794,2.6794,2.6794,2.6794,2.6794,2.6794,2.6846,2.6873,2.6951,2.7055,2.7185,2.7273,2.735,2.7463,2.7524,2.7549,2.7539,2.7549,2.7603,2.7606,2.7362,2.7551,2.8482,2.8793,2.9304,2.9871,3.0366,3.0525,3.0642,3.0702,3.0702,3.0642,3.0642,3.0628,3.0555,3.0234,3.0248,3.0843,3.0945,3.0756,3.0219,2.9406,2.9145,2.9,2.794,2.6852,2.6775,2.6839,2.7144,2.7235,2.6833,2.6933,2.724,2.7143,2.6537,2.6075,2.6009,2.5923,3.5056,3.5276,3.3397,3.2559,3.2069,3.0678,2.967,2.898,2.875,2.8722,2.8587,2.8587,2.8587,2.8587,2.8587,2.8619,2.878,2.9035,2.9226,2.9352,2.9131,2.9035,2.8876,2.8716,2.8587,2.8587,2.8587,2.8587,2.8587,2.8587,2.8587,2.8651,2.9004,2.932,2.9602,3.0005,3.031,3.0507,3.0582,3.0612,3.0612,3.0612,3.0612,3.0598,3.0554,3.0292,2.9827,2.9189,2.8594,2.8029,2.7898,2.7592,2.7229,2.6965,2.6951,2.6939,2.6895,2.6794,2.6794,2.6794,2.6808,2.6866,2.7006,2.7147,2.7299,2.7521,2.7594,2.7517,2.7546,2.7463,2.7575,2.7585,2.7585,2.76,2.76,2.7778,2.7973,2.7621,2.7871,2.8691,2.8962,2.9315,2.9959,3.0483,3.0585,3.0657,3.0717,3.0791,3.0732,3.0657,3.0643,3.0657,3.0395,3.0524,3.109,3.0321,3.0263,3.0001,2.9246,2.8927,2.887,2.8058,2.7157,2.7246,2.7368,2.7686,2.8078,2.8211,2.8468,2.9011,2.8346,2.7171,2.6768,2.6704,2.6385,3.4658,3.4227,3.4516,3.3992,3.2905,3.2034,3.0957,3.0133,2.9428,2.9034,2.8614,2.8587,2.8587,2.8587,2.8587,2.8748,2.9067,2.9383,2.9634,2.9727,2.9446,2.9194,2.9194,2.8844,2.8619,2.8587,2.8587,2.8587,2.8587,2.8587,2.8619,2.8716,2.9194,2.954,2.9758,3.0158,3.0492,3.0582,3.0612,3.0612,3.0612,3.0612,3.0612,3.0612,3.0612,3.0525,3.0292,2.9798,2.9378,2.9276,2.8811,2.8534,2.8245,2.7853,2.7608,2.7418,2.7099,2.6895,2.6808,2.6794,2.707,2.743,2.7586,2.7956,2.8343,2.8697,2.848,2.8125,2.7797,2.7575,2.7585,2.766,2.7615,2.76,2.7675,2.7679,2.7703,2.7631,2.7805,2.8779,2.9031,2.9297,3.006,3.0558,3.0542,3.0571,3.0601,3.0778,3.0881,3.0748,3.0615,3.0644,3.0628,3.0917,3.1335,3.006,2.9348,2.9334,2.8768,2.8057,2.7955,2.7797,2.7565,2.8072,2.8145,2.8232,2.8683,2.9261,2.9275,2.9273,2.845,2.7562,2.6897,2.6345,2.6044,3.395,3.3859,3.3375,3.2954,3.2449,3.1299,3.0497,2.9902,2.9279,2.8858,2.8655,2.8587,2.8587,2.8665,2.8826,2.9131,2.954,2.9772,2.9958,2.9988,2.9772,2.9446,2.9415,2.8972,2.878,2.8651,2.8587,2.8619,2.8587,2.8587,2.8683,2.894,2.9352,2.9665,2.9913,3.0341,3.0582,3.0612,3.0612,3.0612,3.0612,3.0612,3.0612,3.0612,3.0612,3.0612,3.0481,2.9958,2.961,2.9523,2.9319,2.9189,2.9073,2.8841,2.8362,2.7811,2.7432,2.7084,2.6866,2.6794,2.6951,2.7212,2.76,2.7825,2.8209,2.8562,2.899,2.8547,2.7942,2.7585,2.76,2.7869,2.7929,2.7735,2.7884,2.7914,2.7709,2.7584,2.8162,2.8847,2.8716,2.9202,3.0381,3.0646,3.0543,3.0499,3.0514,3.069,3.0955,3.0778,3.0586,3.0702,3.073,3.0904,3.1163,3.0306,2.9174,2.8942,2.8753,2.8028,2.7868,2.8129,2.8797,2.9464,2.9392,2.8884,2.9595,3.0276,2.9883,2.9564,2.9211,2.8516,2.6889,2.5937,2.5724,3.3227,3.3278,3.2204,3.1842,3.1777,3.0721,2.9975,2.9621,2.9236,2.8866,2.8587,2.8683,2.8716,2.8812,2.9131,2.9571,3.008,3.0142,3.0233,3.0203,3.008,2.9741,2.9352,2.9162,2.9035,2.878,2.8876,2.8716,2.8587,2.8587,2.878,2.9067,2.9415,2.9772,3.008,3.0401,3.0552,3.0612,3.0612,3.0612,3.0612,3.0612,3.0612,3.0612,3.0612,3.0612,3.0554,3.0161,2.9914,2.9885,2.9827,2.9813,2.9813,2.9813,2.9218,2.8145,2.7797,2.7405,2.7142,2.6794,2.6881,2.7186,2.753,2.7662,2.7909,2.8545,2.886,2.8554,2.8019,2.76,2.766,2.8064,2.8128,2.8124,2.8274,2.8472,2.8244,2.8192,2.8554,2.8797,2.8468,2.9197,3.0526,3.0939,3.0852,3.0837,3.0822,3.0822,3.0999,3.069,3.0558,3.0761,3.0832,3.0816,3.0888,3.0772,2.9798,2.9203,2.9116,2.8739,2.8768,2.8956,2.9508,2.9769,2.9929,2.9653,3.0481,3.0901,3.0507,3.0244,3.0237,2.9167,2.7074,2.5953,2.5631,3.2573,3.1709,3.2691,3.2498,3.158,3.1764,3.1304,3.0345,3.0122,2.9541,2.8619,2.8908,2.9004,2.9194,2.9665,2.9988,3.0172,3.0371,3.0492,3.0431,3.0249,2.9958,2.9602,2.954,2.9352,2.9099,2.9289,2.9099,2.8871,2.8743,2.8867,2.9232,2.9575,2.98,3.0301,3.0505,3.0612,3.0612,3.0612,3.0612,3.0612,3.0612,3.0612,3.0612,3.0612,3.0612,3.0612,3.0423,3.0409,3.0423,3.0452,3.0481,3.0496,3.0481,2.9784,2.8811,2.81,2.7666,2.7447,2.7055,2.6953,2.7326,2.7852,2.8336,2.8562,2.8471,2.8573,2.8611,2.7989,2.7615,2.76,2.772,2.7989,2.8293,2.8562,2.8966,2.9007,2.8693,2.9059,2.9391,2.9282,2.9855,3.0835,3.1056,3.1204,3.116,3.1116,3.1042,3.0895,3.0499,3.0499,3.0673,3.07,3.0699,3.0597,3.051,3.006,2.9377,2.9479,2.9392,2.9319,2.9261,2.8985,2.9232,2.9581,2.9958,3.0306,3.0582,3.0771,3.0608,3.0241,2.8742,2.6798,2.6103,2.573,3.2755,3.1373,3.2378,3.2436,3.191,3.1894,3.1581,3.0962,3.0203,2.9402,2.8775,2.894,2.9289,2.9665,2.9988,3.0203,3.0371,3.0552,3.0612,3.0612,3.0431,3.0189,2.9958,2.9865,2.9696,2.9477,2.9477,2.9477,2.9263,2.9513,2.9775,2.9861,3.0192,3.0608,3.0639,3.0667,3.0641,3.0612,3.0612,3.0612,3.0612,3.0612,3.0612,3.0612,3.0612,3.0612,3.0612,3.0612,3.0612,3.0612,3.0612,3.0612,3.0598,3.0539,3.0118,2.9334,2.8623,2.7955,2.7273,2.6953,2.7012,2.7227,2.7735,2.8324,2.8811,2.8535,2.8263,2.8577,2.7989,2.7645,2.7705,2.7974,2.8248,2.8592,2.8966,2.9295,2.9577,2.9427,2.943,2.9789,3.0135,3.0575,3.0877,3.0936,3.095,3.0773,3.0524,3.0288,3.0217,3.0029,3.0207,3.0584,3.0554,3.0466,3.035,3.0219,2.9857,2.9464,3.0075,2.99,2.961,2.9421,2.9305,2.9319,2.974,3.0016,3.0147,3.0568,3.1018,3.0594,3.0057,2.8656,2.7309,2.6622,2.6384,3.3122,3.1653,3.2259,3.227,3.1862,3.1589,3.15,3.1349,3.0191,2.9376,2.9121,2.9275,2.971,3.0111,3.0233,3.0371,3.0582,3.0612,3.0612,3.0612,3.0582,3.0371,3.0189,3.0111,3.0036,2.9727,2.9913,2.982,2.9942,3.027,3.057,3.0436,3.0395,3.0824,3.1027,3.0829,3.0612,3.0612,3.0612,3.0612,3.0612,3.0612,3.0612,3.0612,3.0612,3.0612,3.0612,3.0612,3.0612,3.0612,3.0612,3.0612,3.0612,3.0569,3.0234,2.9624,2.9087,2.8361,2.752,2.6968,2.6823,2.6977,2.7299,2.7951,2.8447,2.7991,2.772,2.8233,2.7929,2.763,2.772,2.8158,2.8622,2.9011,2.9472,2.9771,2.9968,2.9909,3.0043,3.0447,3.0703,3.0791,3.0947,3.0844,3.0666,3.0413,3.0032,2.9666,2.963,2.9693,2.9827,3.0191,2.9915,2.9755,2.9552,2.945,2.9218,2.9653,3.0234,3.0423,3.0074,3.0031,3.0031,3.0074,3.0016,2.9972,3.0031,3.0684,3.1161,3.0421,2.971,2.9088,2.8153,2.7428,2.6959,3.3473,3.23,3.2882,3.2211,3.0781,3.1264,3.1482,3.1456,3.043,2.9889,2.9794,2.9976,3.0158,3.0447,3.0522,3.0552,3.0612,3.0612,3.0525,3.0525,3.0553,3.0214,3.0094,3.0109,3.0284,3.0101,3.0221,3.0249,3.0317,3.0766,3.0692,3.0268,3.0673,3.0585,3.0738,3.0974,3.0685,3.0641,3.0612,3.0612,3.0612,3.0612,3.0612,3.0612,3.0612,3.0612,3.0612,3.0612,3.0612,3.0612,3.0612,3.0612,3.0612,3.0612,3.0248,2.9581,2.9363,2.8579,2.765,2.7099,2.6878,2.6902,2.7117,2.7432,2.7791,2.7737,2.7649,2.7854,2.7854,2.7824,2.7914,2.8214,2.8921,2.9475,2.9968,3.0387,3.0582,3.0552,3.0731,3.1122,3.1241,3.1138,3.1154,3.1038,3.0696,3.0428,3.0095,2.9702,2.9707,2.9725,2.9566,2.9552,2.9131,2.8826,2.8463,2.8666,2.9624,3.006,3.0466,3.0597,3.051,3.0569,3.0467,3.0292,3.0118,3.0016,2.9987,3.0495,3.064,2.9987,2.9435,2.9146,2.8713,2.8024,2.7619,3.4752,3.3552,3.3363,3.2651,3.1627,3.1129,3.1235,3.156,3.0518,3.0009,3.0083,3.0097,3.0294,3.0522,3.0612,3.0612,3.0539,3.0132,3.0104,2.9827,2.9639,2.9407,2.9392,2.9754,2.9884,2.9968,3.0349,3.0843,3.1038,3.1043,3.1056,3.0964,3.1193,3.1936,3.2077,3.1395,3.0945,3.0656,3.0612,3.0612,3.0612,3.0612,3.0612,3.0612,3.0612,3.0612,3.0612,3.0612,3.0612,3.0612,3.0612,3.0612,3.0612,3.0612,3.0089,2.9319,2.9189,2.8492,2.7621,2.7229,2.7241,2.6969,2.7029,2.717,2.735,2.7452,2.7782,2.8013,2.8203,2.8237,2.8816,2.9071,2.946,2.9983,3.0449,3.0898,3.1034,3.096,3.1005,3.1245,3.1246,3.1216,3.1217,3.1263,3.0832,3.0459,3.0126,2.9838,2.9739,2.9507,2.9275,2.8985,2.8579,2.8753,2.8477,2.9305,3.0292,3.048,3.064,3.0698,3.0669,3.0641,3.0525,3.035,3.0248,3.0161,3.0176,3.0335,3.0277,3.0045,2.9798,2.9551,2.9071,2.855,2.8552,3.537,3.4277,3.3322,3.2684,3.2145,3.0913,3.0937,3.153,3.0547,3.0129,3.0264,3.0371,3.0462,3.0598,3.0777,3.0836,3.0719,3.0309,3.0061,2.9827,2.9505,2.9113,2.9216,2.9493,2.9929,3.0103,3.035,3.0872,3.1333,3.0858,3.0973,3.1422,3.193,3.2338,3.2367,3.2048,3.1206,3.0757,3.0612,3.0612,3.0612,3.0612,3.0612,3.0612,3.0612,3.0612,3.0612,3.0612,3.0612,3.0612,3.0612,3.0612,3.0612,3.0467,2.9972,2.9363,2.8811,2.8318,2.7549,2.7142,2.7285,2.6957,2.6977,2.7107,2.7237,2.7447,2.794,2.8274,2.8538,2.8937,2.9486,2.959,2.9771,3.022,3.0678,3.1081,3.1143,3.1144,3.1203,3.1322,3.1263,3.1175,3.1131,3.1117,3.0925,3.0482,3.0102,2.9782,2.9536,2.9231,2.8752,2.8434,2.8071,2.8419,2.8826,2.9276,2.9682,3.0161,3.035,3.0669,3.0684,3.0656,3.0612,3.0525,3.0423,3.0306,3.0335,3.0422,3.0422,3.0364,2.9885,2.9276,2.9376,2.8998,2.9629,3.5055,3.4209,3.2777,3.2121,3.1985,3.0573,3.0569,3.1337,3.0567,3.031,3.0642,3.0984,3.0984,3.0866,3.1117,3.1278,3.1146,3.0734,3.0528,3.0438,2.9663,2.9708,2.9781,2.9841,2.9958,3.0973,3.0974,3.0932,3.1496,3.0872,3.0988,3.1351,3.1625,3.1698,3.1582,3.1524,3.1177,3.0699,3.0598,3.0423,3.0598,3.0539,3.0452,3.0612,3.0612,3.0612,3.0612,3.0612,3.0612,3.0612,3.0612,3.0612,3.0612,3.051,3.006,2.9479,2.9377,2.8754,2.7753,2.7171,2.6907,2.6861,2.6925,2.6989,2.7173,2.7518,2.8066,2.8382,2.8621,2.902,2.9402,2.9768,3.0064,3.0316,3.0787,3.0981,3.1056,3.1205,3.1234,3.1234,3.1146,3.1073,3.0999,3.094,3.0851,3.0543,3.0134,2.9755,2.942,2.9014,2.8534,2.7969,2.7665,2.8115,2.8536,2.8724,2.9087,2.9624,3.0118,3.051,3.0699,3.0641,3.0612,3.0612,3.0539,3.0379,3.0438,3.0496,3.0161,2.9755,2.9232,2.8813,2.9059,2.9577,3.0268,3.5782,3.5126,3.3725,3.3152,3.2809,3.0682,3.0312,3.0999,3.0687,3.0657,3.1014,3.1263,3.1423,3.1495,3.1566,3.168,3.1578,3.0712,3.0539,3.0812,2.9788,2.941,2.9554,2.9853,2.9929,3.0219,3.0364,3.0962,3.1496,3.0903,3.0988,3.1335,3.1393,3.1495,3.1364,3.1192,3.0727,3.0452,2.9973,2.9668,3.0438,3.0234,3.0176,3.0583,3.0612,3.0612,3.0612,3.0612,3.0612,3.0612,3.0612,3.0583,3.0467,3.0322,2.9682,2.9044,2.8724,2.7998,2.7302,2.6878,2.6808,2.6835,2.6846,2.6925,2.7062,2.719,2.7797,2.841,2.8586,2.9173,3.0231,3.0098,3.0216,3.0275,3.0569,3.0614,3.0733,3.1013,3.1117,3.1087,3.1058,3.0895,3.0791,3.0748,3.0688,3.0556,3.0163,2.9624,2.9217,2.8869,2.8433,2.7708,2.7403,2.7839,2.8245,2.8768,2.9392,3.0075,3.0365,3.0539,3.0627,3.0612,3.0612,3.0612,3.0554,3.0496,3.0336,3.006,2.9464,2.8971,2.9116,2.9465,3.0073,3.0545,3.0979,3.603,3.521,3.4272,3.3591,3.2945,3.1119,3.0765,3.1264,3.1043,3.1102,3.1481,3.1682,3.1781,3.1936,3.2061,3.2145,3.2043,3.1345,3.1052,3.1236,3.0146,2.9973,2.9995,3.005,3.0367,3.0309,3.0586,3.1098,3.1453,3.0903,3.0845,3.1047,3.1206,3.1134,3.1076,3.0959,3.0684,3.0321,2.9755,2.9929,3.0336,3.0306,3.0234,3.0496,3.0612,3.0612,3.0612,3.0612,3.0612,3.0612,3.0583,3.0481,3.0205,2.9827,2.9189,2.8492,2.7998,2.7492,2.7273,2.7186,2.72,2.7186,2.6939,2.6846,2.6998,2.7205,2.7681,2.8188,2.8475,2.9297,3.0162,3.0029,3.0308,3.0382,3.0455,3.0558,3.0558,3.0822,3.0925,3.0895,3.0866,3.0732,3.0628,3.0584,3.054,3.038,3.0176,2.9639,2.9131,2.8883,2.8549,2.7911,2.7694,2.826,2.8753,2.9203,2.9813,3.0496,3.0612,3.0612,3.0612,3.0612,3.0612,3.0612,3.0569,3.0438,3.0031,2.9668,2.9566,2.9784,3.019,3.0626,3.1177,3.1213,3.1262,3.5706,3.4552,3.4267,3.3473,3.234,3.1842,3.1883,3.2094,3.1559,3.1552,3.1936,3.2355,3.2382,3.2132,3.2437,3.2629,3.2532,3.2056,3.2106,3.198,3.1216,3.1034,3.0897,3.0951,3.0994,3.122,3.1352,3.1249,3.1429,3.1159,3.088,3.076,3.0892,3.0759,3.0788,3.0843,3.064,3.0219,2.9842,3.0089,3.0423,3.0322,3.0307,3.0452,3.0496,3.051,3.0539,3.0612,3.0612,3.0583,3.0525,3.0161,2.9842,2.9552,2.8739,2.8058,2.7652,2.7536,2.7579,2.7536,2.7536,2.7405,2.7055,2.6866,2.6907,2.7169,2.7544,2.8024,2.8401,2.9014,2.9624,3.0032,3.047,3.0543,3.0616,3.0586,3.0483,3.0585,3.0643,3.0672,3.0672,3.0598,3.0569,3.0525,3.0263,3.0263,3.0132,2.9987,2.9523,2.9218,2.8855,2.839,2.8376,2.8884,2.9319,2.9639,2.9987,3.0583,3.0598,3.0612,3.0612,3.0612,3.0612,3.0612,3.0612,3.0467,3.0205,3.0176,3.0234,3.0466,3.0422,3.0626,3.08,3.0829,3.0985,3.5395,3.4734,3.4211,3.3676,3.317,3.273,3.2345,3.1995,3.1769,3.1964,3.2437,3.2547,3.2699,3.2904,3.3038,3.3065,3.2915,3.2722,3.2741,3.2516,3.2079,3.1977,3.1784,3.1604,3.1567,3.1541,3.1528,3.1469,3.1661,3.1451,3.1234,3.1176,3.0969,3.0631,3.0425,3.0539,3.0466,3.0248,2.9857,3.006,3.0176,2.9958,3.0104,3.0336,3.0219,3.0277,3.0525,3.0598,3.0612,3.0598,3.0132,2.9726,2.9668,2.8783,2.7782,2.7229,2.7099,2.7186,2.7534,2.7316,2.7246,2.7521,2.7171,2.6866,2.6852,2.707,2.7347,2.7826,2.8348,2.8942,2.9494,2.9973,3.0249,3.0366,3.0468,3.0526,3.0452,3.0481,3.0539,3.0438,3.0438,3.0423,3.0409,3.0147,2.9943,3.0031,3.0045,2.9929,2.9871,2.9552,2.9363,2.8913,2.9,2.9479,2.9682,2.9972,3.0248,3.0569,3.0583,3.0612,3.0612,3.0612,3.0612,3.0612,3.0612,3.0612,3.0554,3.051,3.0351,3.0001,2.9943,3.019,3.0408,3.0554,3.0627,3.5095,3.4745,3.422,3.3782,3.3462,3.3181,3.2792,3.2456,3.2272,3.2437,3.2834,3.2873,3.3038,3.3214,3.3266,3.3266,3.3256,3.3054,3.3033,3.2964,3.2672,3.2379,3.2188,3.2104,3.1809,3.1667,3.1495,3.1452,3.1537,3.1408,3.1175,3.1014,3.1029,3.0646,3.0366,3.0466,3.0598,3.0351,3.0104,3.006,2.9944,2.9828,3.0162,3.0292,3.0089,3.0292,3.0525,3.0598,3.0612,3.0525,2.9958,2.961,2.9479,2.8666,2.784,2.7447,2.7592,2.7621,2.7708,2.7461,2.7449,2.7507,2.7376,2.7246,2.72,2.7345,2.7478,2.7768,2.8275,2.8797,2.9334,2.9798,2.9943,3.0045,3.0249,3.0423,3.0438,3.0467,3.0365,3.0205,3.0161,3.0132,3.0001,2.9711,2.9624,2.9798,2.9755,2.9581,2.9711,2.9798,2.9813,2.9668,2.9755,3.0045,3.0176,3.0234,3.0438,3.0583,3.0598,3.0612,3.0612,3.0612,3.0612,3.0612,3.0612,3.0612,3.0612,3.0409,3.0234,2.9958,2.9929,3.0234,3.051,3.0569,3.0612,3.4745,3.461,3.4182,3.3731,3.333,3.3287,3.3272,3.324,3.2834,3.2888,3.3214,3.3266,3.324,3.3293,3.3293,3.3293,3.3309,3.3214,3.3187,3.3293,3.316,3.2823,3.2508,3.2645,3.2104,3.148,3.1292,3.1566,3.0999,3.0999,3.1117,3.0672,3.0762,3.063,3.0526,3.0539,3.0612,3.0525,3.0452,3.0452,3.0467,3.051,3.0554,3.0554,3.0496,3.0496,3.0569,3.0612,3.0612,3.0409,3.006,2.9639,2.9261,2.8956,2.8303,2.8028,2.8071,2.8057,2.7911,2.7681,2.7752,2.7782,2.7782,2.7782,2.781,2.781,2.7927,2.8116,2.8623,2.9044,2.9552,3.006,3.0277,3.0336,3.0438,3.0525,3.0525,3.0481,3.0292,3.0176,3.0132,3.006,2.9581,2.9363,2.9595,2.9653,2.9624,2.9421,2.9682,3.0016,3.0016,3.0147,3.0249,3.0306,3.0423,3.0481,3.0525,3.0612,3.0612,3.0612,3.0612,3.0612,3.0612,3.0612,3.0612,3.0612,3.0569,3.0438,3.0394,3.0409,3.0409,3.0525,3.0612,3.0612,3.0612,3.4173,3.4194,3.3711,3.3424,3.3293,3.3293,3.3293,3.3293,3.3187,3.3187,3.3282,3.3293,3.3293,3.3293,3.3293,3.3293,3.3293,3.3293,3.3293,3.3266,3.3266,3.2942,3.2492,3.2629,3.2244,3.1936,3.1766,3.168,3.1379,3.1379,3.1379,3.1131,3.1058,3.0866,3.0598,3.0612,3.0672,3.0702,3.0702,3.0702,3.0643,3.022,3.0001,3.0219,3.0321,3.0292,3.0423,3.0612,3.0612,3.0496,2.9943,2.945,2.8927,2.8811,2.8665,2.8463,2.8274,2.8289,2.8245,2.8043,2.8028,2.8318,2.8434,2.8448,2.8448,2.8448,2.855,2.8753,2.9029,2.9407,2.9769,3.0248,3.0612,3.0612,3.0612,3.0612,3.0612,3.0467,3.0277,3.0176,3.0132,2.9784,2.9305,2.9276,2.9494,2.961,2.961,2.9682,3.0074,3.038,3.0074,3.0161,3.0394,3.0496,3.0583,3.0612,3.0612,3.0612,3.0612,3.0612,3.0612,3.0612,3.0612,3.0612,3.0612,3.0612,3.0612,3.0583,3.0569,3.0612,3.0612,3.0612,3.0612,3.0612,3.0612,3.3822,3.4023,3.3529,3.3293,3.3293,3.3293,3.3293,3.3293,3.3293,3.3293,3.3293,3.3293,3.3293,3.3293,3.3293,3.3293,3.3293,3.3293,3.3293,3.3266,3.3065,3.2846,3.2668,3.2559,3.2076,3.1794,3.1422,3.1263,3.1437,3.1263,3.1058,3.1014,3.0999,3.091,3.0642,3.0747,3.0896,3.0925,3.0896,3.0866,3.0836,3.044,3.0191,3.0364,3.038,3.0336,3.0409,3.0612,3.0612,3.0569,3.0219,2.9784,2.9479,2.9493,2.9392,2.9131,2.8869,2.8608,2.8565,2.8463,2.8332,2.8637,2.9058,2.9073,2.9203,2.9232,2.9319,2.9523,2.9784,3.0147,3.0176,3.0539,3.0598,3.0612,3.0612,3.0612,3.0612,3.0554,3.0205,2.9856,2.9827,2.9769,2.9392,2.9407,2.9682,3.0132,3.006,3.0016,3.0423,3.0612,3.0321,3.0219,3.0452,3.0554,3.0598,3.0612,3.0612,3.0612,3.0612,3.0612,3.0612,3.0612,3.0612,3.0612,3.0612,3.0612,3.0612,3.0612,3.0612,3.0612,3.0612,3.0612,3.0612,3.0612,3.0612,3.3592,3.3909,3.3492,3.3293,3.3293,3.3293,3.3293,3.3293,3.3293,3.3293,3.3293,3.3293,3.3293,3.3293,3.3293,3.3293,3.3293,3.3293,3.3293,3.3187,3.2834,3.2602,3.2504,3.2477,3.216,3.1695,3.1204,3.1014,3.0955,3.0836,3.0747,3.0642,3.0612,3.0642,3.0807,3.1043,3.1263,3.1307,3.1307,3.1263,3.1117,3.0881,3.0643,3.0583,3.0612,3.0612,3.0612,3.0612,3.0612,3.0583,3.0525,3.022,3.0031,3.006,3.0016,2.9798,2.945,2.9203,2.9,2.8869,2.8826,2.8985,2.9421,2.9711,2.9856,2.9929,3.0031,3.0161,3.0452,3.0539,3.0554,3.0569,3.0598,3.0612,3.0612,3.0612,3.0612,3.0598,3.0176,2.9711,2.9697,2.9697,2.9523,2.9523,2.9943,3.0379,3.0583,3.0598,3.0612,3.0612,3.0496,3.0423,3.0525,3.0598,3.0612,3.0612,3.0612,3.0612,3.0612,3.0612,3.0612,3.0612,3.0612,3.0612,3.0612,3.0612,3.0612,3.0612,3.0612,3.0612,3.0612,3.0612,3.0612,3.0612,3.0612,3.3345,3.3429,3.3356,3.3293,3.3293,3.3293,3.3293,3.3293,3.3293,3.3293,3.3293,3.3293,3.3293,3.3293,3.3293,3.3293,3.3293,3.3293,3.3293,3.3214,3.2726,3.2382,3.2228,3.2327,3.2437,3.1992,3.1408,3.119,3.0866,3.0702,3.0612,3.0612,3.0612,3.0791,3.1146,3.1351,3.1423,3.1523,3.1423,3.1322,3.1176,3.094,3.0672,3.0612,3.0612,3.0612,3.0612,3.0612,3.0612,3.0612,3.0598,3.0496,3.0452,3.0467,3.0423,3.0263,2.9958,2.9697,2.9479,2.9435,2.945,2.9493,2.9929,3.0248,3.0351,3.0365,3.0423,3.0423,3.0583,3.0583,3.0598,3.0598,3.0612,3.0612,3.0612,3.0612,3.0612,3.0539,3.0306,3.0132,3.0089,2.9755,2.9247,2.9508,3.0074,3.0423,3.051,3.0525,3.0598,3.0612,3.0612,3.0612,3.0612,3.0612,3.0612,3.0612,3.0612,3.0612,3.0612,3.0612,3.0612,3.0612,3.0612,3.0612,3.0612,3.0612,3.0612,3.0612,3.0612,3.0612,3.0612,3.0612,3.0612,3.0642,3.0642]}]]